[[{"header":{"parameterUnit":"m.s-1","parameterCategory":1,"la1":31.0,"la2":29.5877,"lo1":-88.7671,"lo2":-86.6584,"dy":0.0162,"dx":0.0185,"nx":115,"ny":88,"refTime":"2023-09-06T18:00:00:Z","depth":0,"parameterNumber":2,"parameterNumberName":"U-component_of_WINDS"},"data":[0.0,0.0,0.0,0.0,0.0,0.0,0.0,0.0,0.0,0.0,0.0,0.0,0.0,0.0,0.0,0.0,0.0,0.0,0.0,0.0,0.0,0.0,0.0,0.0,0.0,0.0,0.0,0.0,0.0,0.0,0.0,0.0,0.0,0.0,0.0,0.0,0.0,0.0,0.0,0.0,0.0,0.0,0.0,0.0,0.0,0.0,0.0,0.0,0.0,0.0,0.0,0.0,0.0,0.0,0.0,0.0,0.0,0.0,0.0,0.0,0.0,0.0,0.0,0.0,0.0,0.0,0.0,0.0,0.0,0.0,0.0,0.0,0.0,0.0,0.0,0.0,0.0,0.0,0.0,0.0,0.0,0.0,0.0,0.0,0.0,0.0,0.0,0.0,0.0,0.0,0.0,0.0,0.0,0.0,0.0,0.0,0.0,0.0,0.0,0.0,0.0,0.0,0.0,0.0,0.0,0.0,0.0,0.0,0.0,0.0,0.0,0.0,0.0,0.0,0.0,0.0,0.0,0.0,0.0,0.0,0.0,0.0,0.0,0.0,0.0,0.0,0.0,0.0,0.0,0.0,0.0,0.0,0.0,0.0,0.0,0.0,0.0,0.0,0.0,0.0,0.0,0.0,0.0,0.0,0.0,0.0,0.0,0.0,0.0,0.0,0.0,0.0,0.0,0.0,0.0,0.0,0.0,0.0,0.0,0.0,0.0,0.0,0.0,0.0,0.0,0.0,0.0,0.0,0.0,0.0,0.0,0.0,0.0,0.0,0.0,0.0,0.0,0.0,0.0,0.0,0.0,0.0,0.0,0.0,0.0,0.0,0.0,0.0,0.0,0.0,0.0,0.0,0.0,0.0,0.0,0.0,0.0,0.0,0.0,0.0,0.0,0.0,0.0,0.0,0.0,0.0,0.0,0.0,0.0,0.0,0.0,0.0,0.0,0.0,0.0,0.0,0.0,0.0,0.0,0.0,0.0,0.0,0.0,0.0,0.0,0.0,0.0,0.0,0.0,0.0,0.0,0.0,0.0,0.0,0.0,0.0,0.0,0.0,0.0,0.0,0.0,0.0,0.0,0.0,0.0,0.0,0.0,0.0,0.0,0.0,0.0,0.0,0.0,0.0,0.0,0.0,0.0,0.0,0.0,0.0,0.0,0.0,0.0,0.0,0.0,0.0,0.0,0.0,0.0,0.0,0.0,0.0,0.0,0.0,0.0,0.0,0.0,0.0,0.0,0.0,0.0,0.0,0.0,0.0,0.0,0.0,0.0,0.0,0.0,0.0,0.0,0.0,0.0,0.0,0.0,0.0,0.0,0.0,0.0,0.0,0.0,0.0,0.0,0.0,0.0,0.0,0.0,0.0,0.0,0.0,0.0,0.0,0.0,0.0,0.0,0.0,0.0,0.0,0.0,0.0,0.0,0.0,0.0,0.0,0.0,0.0,0.0,0.0,0.0,0.0,0.0,0.0,0.0,0.0,0.0,0.0,0.0,0.0,0.0,0.0,0.0,0.0,0.0,0.0,0.0,0.0,0.0,0.0,0.0,0.0,0.0,0.0,0.0,0.0,0.0,0.0,0.0,0.0,0.0,0.0,0.0,0.0,0.0,0.0,0.0,0.0,0.0,0.0,0.0,0.0,0.0,0.0,0.0,0.0,0.0,0.0,0.0,0.0,0.0,0.0,0.0,0.0,0.0,0.0,0.0,0.0,0.0,0.0,0.0,0.0,0.0,0.0,0.0,0.0,0.0,0.0,0.0,0.0,0.0,0.0,0.0,0.0,0.0,0.0,0.0,0.0,0.0,0.0,0.0,0.0,0.0,0.0,0.0,0.0,0.0,0.0,0.0,0.0,0.0,0.0,0.0,0.0,0.0,0.0,0.0,0.0,0.0,0.0,0.0,0.0,0.0,0.0,0.0,0.0,0.0,0.0,0.0,0.0,0.0,0.0,0.0,0.0,0.0,0.0,0.0,0.0,0.0,0.0,0.0,0.0,0.0,0.0,0.0,0.0,0.0,0.0,0.0,0.0,0.0,0.0,0.0,0.0,0.0,0.0,0.0,0.0,0.0,0.0,0.0,0.0,0.0,0.0,0.0,0.0,0.0,0.0,0.0,0.0,0.0,0.0,0.0,0.0,0.0,0.0,0.0,0.0,0.0,0.0,0.0,0.0,0.0,0.0,0.0,0.0,0.0,0.0,0.0,0.0,0.0,0.0,0.0,0.0,0.0,0.0,0.0,0.0,0.0,0.0,0.0,0.0,0.0,0.0,0.0,0.0,0.0,0.0,0.0,0.0,0.0,0.0,0.0,0.0,0.0,0.0,0.0,0.0,0.0,0.0,0.0,0.0,0.0,0.0,0.0,0.0,0.0,0.0,0.0,0.0,0.0,0.0,0.0,0.0,0.0,0.0,0.0,0.0,0.0,0.0,0.0,0.0,0.0,0.0,0.0,0.0,0.0,0.0,0.0,0.0,0.0,0.0,0.0,0.0,0.0,0.0,0.0,0.0,0.0,0.0,0.0,0.0,0.0,0.0,0.0,0.0,0.0,0.0,0.0,0.0,0.0,0.0,0.0,0.0,0.0,0.0,0.0,0.0,0.0,0.0,0.0,0.0,0.0,0.0,0.0,0.0,0.0,0.0,0.0,0.0,0.0,0.0,0.0,0.0,0.0,0.0,0.0,0.0,0.0,0.0,0.0,0.0,0.0,0.0,0.0,0.0,0.0,0.0,0.0,0.0,0.0,0.0,0.0,0.0,0.0,0.0,0.0,0.0,0.0,0.0,0.0,0.0,0.0,0.0,0.0,0.0,0.0,0.0,0.0,0.0,0.0,0.0,0.0,0.0,0.0,0.0,0.0,0.0,0.0,0.0,0.0,0.0,0.0,0.0,0.0,0.0,0.0,0.0,0.0,0.0,0.0,0.0,0.0,0.0,0.0,0.0,0.0,0.0,0.0,0.0,0.0,0.0,0.0,0.0,0.0,0.0,0.0,0.0,0.0,0.0,0.0,0.0,0.0,0.0,0.0,0.0,0.0,0.0,0.0,0.0,0.0,0.0,0.0,0.0,0.0,0.0,0.0,0.0,0.0,0.0,0.0,0.0,0.0,0.0,0.0,0.0,0.0,0.0,0.0,0.0,0.0,0.0,0.0,0.0,0.0,0.0,0.0,0.0,0.0,0.0,0.0,0.0,0.0,0.0,0.0,0.0,0.0,0.0,0.0,0.0,0.0,0.0,0.0,0.0,0.0,0.0,0.0,0.0,0.0,0.0,0.0,0.0,0.0,0.0,0.0,0.0,0.0,0.0,0.0,0.0,0.0,0.0,0.0,0.0,0.0,0.0,0.0,0.0,0.0,0.0,0.0,0.0,0.0,0.0,0.0,0.0,0.0,0.0,0.0,0.0,0.0,0.0,0.0,0.0,0.0,0.0,0.0,0.0,0.0,0.0,0.0,0.0,0.0,0.0,0.0,0.0,0.0,0.0,0.0,0.0,0.0,0.0,0.0,0.0,0.0,0.0,0.0,0.0,0.0,0.0,0.0,0.0,0.0,0.0,0.0,0.0,0.0,0.0,0.0,0.0,0.0,0.0,0.0,0.0,0.0,0.0,0.0,0.0,0.0,0.0,0.0,0.0,0.0,0.0,0.0,0.0,0.0,0.0,0.0,0.0,0.0,0.0,0.0,0.0,0.0,0.0,0.0,0.0,0.0,0.0,0.0,0.0,0.0,0.0,0.0,0.0,0.0,0.0,0.0,0.0,0.0,0.0,0.0,0.0,0.0,0.0,0.0,0.0,0.0,0.0,0.0,0.0,0.0,0.0,0.0,0.0,0.0,0.0,0.0,0.0,0.0,0.0,0.0,0.0,0.0,0.0,0.0,0.0,0.0,0.0,0.0,0.0,0.0,0.0,0.0,0.0,0.0,0.0,0.0,0.0,0.0,0.0,0.0,0.0,0.0,0.0,0.0,0.0,0.0,0.0,0.0,0.0,0.0,0.0,0.0,0.0,0.0,0.0,0.0,0.0,0.0,0.0,0.0,0.0,0.0,0.0,0.0,0.0,0.0,0.0,0.0,0.0,0.0,0.0,0.0,0.0,0.0,0.0,0.0,0.0,0.0,0.0,0.0,0.0,0.0,0.0,0.0,0.0,0.0,0.0,0.0,0.0,0.0,0.0,0.0,0.0,0.0,0.0,0.0,0.0,0.0,0.0,0.0,0.0,0.0,0.0,0.0,0.0,0.0,0.0,0.0,0.0,0.0,0.0,0.0,0.0,0.0,0.0,1.7997,0.0,0.0,0.0,0.0,0.0,0.0,0.0,0.0,0.0,0.0,0.0,0.0,0.0,0.0,0.0,0.0,0.0,0.0,0.0,0.0,0.0,0.0,0.0,0.0,0.0,0.0,0.0,0.0,0.0,0.0,0.0,0.0,0.0,0.0,0.0,0.0,0.0,0.0,0.0,0.0,0.0,0.0,0.0,0.0,0.0,0.0,0.0,0.0,0.0,0.0,0.0,0.0,0.0,0.0,0.0,0.0,0.0,0.0,0.0,0.0,0.0,0.0,0.0,0.0,0.0,0.0,0.0,0.0,0.0,0.0,0.0,0.0,0.0,0.0,0.0,0.0,0.0,0.0,0.0,0.0,0.0,0.0,0.0,0.0,0.0,0.0,0.0,0.0,0.0,0.0,0.0,0.0,0.0,0.0,0.0,0.0,0.0,0.0,0.0,0.0,0.0,0.0,0.0,0.0,0.0,0.0,0.0,0.0,0.0,0.0,1.9413,1.9402,1.942,1.9402,1.9422,0.0,0.0,0.0,0.0,0.0,0.0,0.0,0.0,0.0,0.0,0.0,0.0,0.0,0.0,0.0,0.0,0.0,0.0,0.0,0.0,0.0,0.0,0.0,0.0,0.0,0.0,0.0,0.0,0.0,0.0,0.0,0.0,0.0,0.0,0.0,0.0,0.0,0.0,0.0,0.0,0.0,0.0,0.0,0.0,0.0,0.0,0.0,0.0,0.0,0.0,0.0,0.0,0.0,0.0,0.0,0.0,0.0,0.0,0.0,0.0,0.0,0.0,0.0,0.0,0.0,0.0,0.0,0.0,0.0,0.0,0.0,0.0,0.0,0.0,0.0,0.0,0.0,0.0,0.0,0.0,0.0,0.0,0.0,0.0,0.0,0.0,0.0,0.0,0.0,0.0,0.0,0.0,0.0,0.0,0.0,0.0,0.0,0.0,0.0,0.0,0.0,0.0,0.0,0.0,0.0,0.0,0.0,0.0,0.0,0.0,0.0,0.0,2.0598,2.0597,2.0594,0.0,0.0,0.0,0.0,0.0,0.0,0.0,0.0,0.0,0.0,0.0,0.0,0.0,0.0,0.0,0.0,0.0,0.0,0.0,0.0,0.0,0.0,0.0,0.0,0.0,0.0,0.0,0.0,0.0,0.0,0.0,0.0,0.0,0.0,0.0,0.0,0.0,0.0,0.0,0.0,0.0,0.0,0.0,0.0,0.0,0.0,0.0,0.0,0.0,0.0,0.0,0.0,0.0,0.0,0.0,0.0,0.0,0.0,0.0,0.0,0.0,0.0,0.0,0.0,0.0,0.0,0.0,0.0,0.0,0.0,0.0,0.0,0.0,0.0,0.0,0.0,0.0,0.0,0.0,0.0,0.0,0.0,0.0,0.0,0.0,0.0,0.0,0.0,0.0,0.0,0.0,0.0,0.0,0.0,0.0,0.0,0.0,0.0,0.0,0.0,0.0,0.0,0.0,0.0,0.0,0.0,0.0,0.0,0.0,0.0,2.0604,2.0605,2.0605,0.0,2.0594,0.0,0.0,0.0,0.0,0.0,0.0,0.0,0.0,0.0,0.0,0.0,0.0,0.0,0.0,0.0,0.0,0.0,0.0,0.0,0.0,0.0,0.0,0.0,0.0,0.0,0.0,0.0,0.0,0.0,0.0,0.0,0.0,0.0,0.0,0.0,0.0,0.0,0.0,0.0,0.0,0.0,0.0,0.0,0.0,0.0,0.0,0.0,0.0,0.0,0.0,0.0,0.0,0.0,0.0,0.0,0.0,0.0,0.0,0.0,0.0,0.0,0.0,0.0,0.0,0.0,0.0,0.0,0.0,0.0,0.0,0.0,0.0,0.0,0.0,0.0,0.0,0.0,0.0,0.0,0.0,0.0,0.0,0.0,0.0,0.0,0.0,0.0,0.0,0.0,0.0,0.0,0.0,0.0,0.0,0.0,0.0,0.0,0.0,0.0,0.0,0.0,0.0,0.0,0.0,0.0,0.0,0.0,0.0,0.0,0.0,2.0598,2.0601,2.0605,2.0605,0.0,0.0,0.0,0.0,0.0,0.0,0.0,0.0,0.0,0.0,0.0,0.0,0.0,0.0,0.0,0.0,0.0,0.0,0.0,0.0,0.0,0.0,0.0,0.0,0.0,0.0,0.0,0.0,0.0,0.0,0.0,0.0,0.0,0.0,0.0,0.0,0.0,0.0,0.0,0.0,0.0,0.0,0.0,0.0,0.0,0.0,0.0,0.0,0.0,0.0,0.0,0.0,0.0,0.0,0.0,0.0,0.0,0.0,0.0,0.0,0.0,0.0,0.0,0.0,0.0,0.0,0.0,0.0,0.0,0.0,0.0,0.0,0.0,0.0,0.0,0.0,0.0,0.0,0.0,0.0,0.0,0.0,0.0,0.0,0.0,0.0,0.0,0.0,0.0,0.0,0.0,0.0,0.0,0.0,0.0,0.0,0.0,0.0,0.0,0.0,0.0,0.0,0.0,0.0,0.0,0.0,0.0,0.0,0.0,0.0,2.0593,2.0593,2.0594,2.0604,2.0605,2.0605,0.0,0.0,0.0,0.0,0.0,0.0,0.0,0.0,0.0,0.0,0.0,0.0,0.0,0.0,0.0,0.0,0.0,0.0,0.0,0.0,0.0,0.0,0.0,0.0,0.0,0.0,0.0,0.0,0.0,0.0,0.0,0.0,0.0,0.0,0.0,0.0,0.0,0.0,0.0,0.0,0.0,0.0,0.0,0.0,0.0,0.0,0.0,0.0,0.0,0.0,0.0,0.0,0.0,0.0,0.0,0.0,0.0,0.0,0.0,0.0,0.0,0.0,0.0,0.0,0.0,0.0,0.0,0.0,0.0,0.0,0.0,0.0,0.0,0.0,0.0,0.0,0.0,0.0,0.0,0.0,0.0,0.0,0.0,0.0,0.0,0.0,0.0,0.0,0.0,0.0,0.0,0.0,0.0,0.0,0.0,0.0,0.0,0.0,0.0,0.0,0.0,0.0,0.0,0.0,0.0,0.0,0.0,0.0,2.0593,2.0593,2.0593,2.0593,2.0604,2.0605,0.0,0.0,0.0,0.0,0.0,0.0,0.0,0.0,0.0,0.0,0.0,0.0,0.0,0.0,0.0,0.0,0.0,0.0,0.0,0.0,0.0,0.0,0.0,0.0,0.0,0.0,0.0,0.0,0.0,0.0,0.0,0.0,0.0,0.0,0.0,0.0,0.0,0.0,0.0,0.0,0.0,0.0,0.0,0.0,0.0,0.0,0.0,0.0,0.0,0.0,0.0,0.0,0.0,0.0,0.0,0.0,0.0,0.0,0.0,0.0,0.0,0.0,0.0,0.0,0.0,0.0,0.0,0.0,0.0,0.0,0.0,0.0,0.0,0.0,0.0,0.0,0.0,0.0,0.0,0.0,0.0,0.0,0.0,0.0,0.0,0.0,0.0,0.0,0.0,0.0,0.0,0.0,0.0,0.0,0.0,0.0,0.0,0.0,0.0,0.0,0.0,0.0,0.0,0.0,0.0,0.0,0.0,0.0,0.0,2.0593,2.0593,2.0593,2.0594,2.0601,2.0605,0.0,0.0,0.0,0.0,0.0,0.0,0.0,0.0,0.0,0.0,0.0,0.0,0.0,0.0,0.0,0.0,0.0,0.0,0.0,0.0,0.0,0.0,0.0,0.0,0.0,0.0,0.0,0.0,0.0,0.0,0.0,0.0,0.0,0.0,0.0,0.0,0.0,0.0,0.0,0.0,0.0,0.0,0.0,0.0,0.0,0.0,0.0,0.0,0.0,0.0,0.0,0.0,0.0,0.0,0.0,0.0,0.0,0.0,0.0,0.0,0.0,0.0,0.0,0.0,0.0,0.0,0.0,0.0,0.0,0.0,0.0,0.0,0.0,0.0,0.0,0.0,0.0,0.0,0.0,0.0,0.0,0.0,0.0,0.0,0.0,0.0,0.0,0.0,0.0,0.0,0.0,0.0,0.0,0.0,0.0,0.0,0.0,0.0,0.0,0.0,0.0,0.0,0.0,0.0,0.0,0.0,0.0,0.0,0.0,2.0593,0.0,2.0593,2.0593,2.0597,2.0602,0.0,0.0,0.0,0.0,0.0,0.0,0.0,0.0,0.0,0.0,0.0,0.0,0.0,0.0,0.0,0.0,0.0,0.0,0.0,0.0,0.0,0.0,0.0,0.0,0.0,0.0,0.0,0.0,0.0,0.0,0.0,0.0,0.0,0.0,0.0,0.0,0.0,0.0,0.0,0.0,0.0,0.0,0.0,0.0,0.0,0.0,0.0,0.0,0.0,0.0,0.0,0.0,0.0,0.0,0.0,0.0,0.0,0.0,0.0,0.0,0.0,0.0,0.0,0.0,0.0,0.0,0.0,0.0,0.0,0.0,0.0,0.0,0.0,0.0,0.0,0.0,0.0,0.0,0.0,0.0,0.0,0.0,0.0,0.0,0.0,0.0,0.0,0.0,0.0,0.0,0.0,0.0,0.0,0.0,0.0,0.0,0.0,0.0,0.0,0.0,0.0,0.0,0.0,0.0,0.0,0.0,0.0,0.0,2.0632,2.0593,2.0632,2.0671,2.0612,2.0653,2.0619,0.0,0.0,0.0,0.0,0.0,0.0,0.0,0.0,0.0,0.0,0.0,0.0,0.0,0.0,0.0,0.0,0.0,0.0,0.0,0.0,0.0,0.0,0.0,0.0,0.0,0.0,0.0,0.0,0.0,0.0,0.0,0.0,0.0,0.0,0.0,0.0,0.0,0.0,0.0,0.0,0.0,0.0,0.0,0.0,0.0,0.0,0.0,0.0,0.0,0.0,0.0,0.0,0.0,0.0,0.0,0.0,0.0,0.0,0.0,0.0,0.0,0.0,0.0,0.0,0.0,0.0,0.0,0.0,0.0,0.0,0.0,0.0,0.0,0.0,0.0,0.0,0.0,0.0,0.0,0.0,0.0,0.0,0.0,0.0,0.0,0.0,0.0,0.0,0.0,0.0,0.0,0.0,0.0,0.0,0.0,0.0,0.0,0.0,0.0,0.0,0.0,0.0,0.0,0.0,0.0,0.0,0.0,0.0,0.0,2.0632,2.12,2.1512,2.1492,2.1492,2.1476,0.0,0.0,0.0,0.0,0.0,0.0,0.0,0.0,0.0,0.0,0.0,0.0,0.0,0.0,0.0,0.0,0.0,0.0,0.0,0.0,0.0,0.0,0.0,0.0,0.0,0.0,0.0,0.0,0.0,0.0,0.0,0.0,0.0,0.0,0.0,0.0,0.0,0.0,0.0,0.0,0.0,0.0,0.0,0.0,0.0,0.0,0.0,0.0,0.0,0.0,0.0,0.0,0.0,0.0,0.0,0.0,0.0,0.0,0.0,0.0,0.0,0.0,0.0,0.0,0.0,0.0,0.0,0.0,0.0,0.0,0.0,0.0,0.0,0.0,0.0,0.0,0.0,0.0,0.0,0.0,0.0,0.0,0.0,0.0,0.0,0.0,0.0,0.0,0.0,0.0,0.0,0.0,0.0,0.0,0.0,0.0,0.0,0.0,0.0,0.0,0.0,0.0,0.0,0.0,0.0,0.0,0.0,0.0,0.0,2.2019,2.2237,2.2356,2.2336,2.2333,2.2351,2.2332,0.0,0.0,0.0,0.0,0.0,0.0,0.0,0.0,0.0,0.0,0.0,0.0,0.0,0.0,0.0,0.0,0.0,0.0,0.0,0.0,0.0,0.0,0.0,0.0,0.0,0.0,0.0,0.0,0.0,0.0,0.0,0.0,0.0,0.0,0.0,0.0,0.0,0.0,0.0,0.0,0.0,0.0,0.0,0.0,0.0,0.0,0.0,0.0,0.0,0.0,0.0,0.0,0.0,0.0,0.0,0.0,0.0,0.0,0.0,0.0,0.0,0.0,0.0,0.0,0.0,0.0,0.0,0.0,0.0,0.0,0.0,0.0,0.0,0.0,0.0,0.0,0.0,0.0,0.0,0.0,0.0,0.0,0.0,0.0,0.0,0.0,0.0,0.0,0.0,0.0,0.0,0.0,0.0,0.0,0.0,0.0,0.0,0.0,0.0,0.0,0.0,0.0,0.0,0.0,0.0,0.0,0.0,0.0,2.4463,2.3764,2.3414,2.3337,2.3291,2.3228,0.0,0.0,0.0,0.0,0.0,0.0,0.0,0.0,0.0,0.0,0.0,0.0,0.0,0.0,0.0,0.0,0.0,0.0,0.0,0.0,0.0,0.0,0.0,0.0,0.0,0.0,0.0,0.0,0.0,0.0,0.0,0.0,0.0,0.0,0.0,0.0,0.0,0.0,0.0,0.0,0.0,0.0,0.0,0.0,0.0,0.0,0.0,0.0,0.0,0.0,0.0,0.0,0.0,0.0,0.0,0.0,0.0,0.0,0.0,0.0,0.0,0.0,0.0,0.0,0.0,0.0,0.0,0.0,0.0,0.0,0.0,0.0,0.0,0.0,0.0,0.0,0.0,0.0,0.0,0.0,0.0,0.0,0.0,0.0,0.0,0.0,0.0,0.0,0.0,0.0,0.0,0.0,0.0,0.0,0.0,0.0,0.0,0.0,0.0,0.0,0.0,0.0,0.0,0.0,0.0,0.0,0.0,0.0,0.0,2.5341,2.6379,2.6637,2.5996,2.5368,2.5012,0.0,0.0,0.0,0.0,0.0,0.0,0.0,0.0,0.0,0.0,0.0,0.0,0.0,0.0,0.0,0.0,0.0,0.0,0.0,0.0,0.0,0.0,0.0,0.0,0.0,0.0,0.0,0.0,0.0,0.0,0.0,0.0,0.0,0.0,0.0,0.0,0.0,0.0,0.0,0.0,0.0,0.0,0.0,0.0,0.0,0.0,0.0,0.0,0.0,0.0,0.0,0.0,0.0,0.0,0.0,0.0,0.0,0.0,0.0,0.0,0.0,0.0,0.0,0.0,0.0,0.0,0.0,0.0,0.0,0.0,0.0,0.0,0.0,0.0,0.0,0.0,0.0,0.0,0.0,0.0,0.0,0.0,0.0,0.0,0.0,0.0,0.0,0.0,0.0,0.0,0.0,0.0,0.0,0.0,0.0,0.0,0.0,0.0,0.0,0.0,0.0,0.0,0.0,0.0,0.0,0.0,0.0,0.0,2.5737,2.7315,2.8687,2.9313,2.9137,2.7614,2.6615,0.0,0.0,0.0,0.0,0.0,0.0,0.0,0.0,0.0,0.0,0.0,0.0,0.0,0.0,0.0,0.0,0.0,0.0,0.0,0.0,0.0,0.0,0.0,0.0,0.0,0.0,0.0,0.0,0.0,0.0,0.0,0.0,0.0,0.0,0.0,0.0,0.0,0.0,0.0,0.0,0.0,0.0,0.0,0.0,0.0,0.0,0.0,0.0,0.0,0.0,0.0,0.0,0.0,0.0,0.0,0.0,0.0,0.0,0.0,0.0,0.0,0.0,0.0,0.0,0.0,0.0,0.0,0.0,0.0,0.0,0.0,0.0,0.0,0.0,0.0,0.0,0.0,0.0,0.0,0.0,0.0,0.0,0.0,0.0,0.0,0.0,0.0,0.0,0.0,0.0,0.0,0.0,0.0,0.0,0.0,0.0,0.0,0.0,0.0,0.0,0.0,0.0,0.0,0.0,0.0,0.0,0.0,0.0,2.7046,2.9541,3.0526,3.1365,3.1992,2.9816,2.8118,0.0,0.0,0.0,0.0,0.0,0.0,0.0,0.0,0.0,0.0,0.0,0.0,0.0,0.0,0.0,0.0,0.0,0.0,0.0,0.0,0.0,0.0,0.0,0.0,0.0,0.0,0.0,0.0,0.0,0.0,0.0,0.0,0.0,0.0,0.0,0.0,0.0,0.0,0.0,0.0,0.0,0.0,0.0,0.0,0.0,0.0,0.0,0.0,0.0,0.0,0.0,0.0,0.0,0.0,0.0,0.0,0.0,0.0,0.0,0.0,0.0,0.0,0.0,0.0,0.0,0.0,0.0,0.0,0.0,0.0,0.0,0.0,0.0,0.0,0.0,0.0,0.0,0.0,0.0,0.0,0.0,0.0,0.0,0.0,0.0,0.0,0.0,0.0,0.0,0.0,0.0,0.0,0.0,0.0,0.0,0.0,0.0,0.0,0.0,0.0,0.0,0.0,0.0,0.0,0.0,0.0,0.0,0.0,2.7648,2.9547,3.1052,3.193,3.2092,3.0964,2.9601,0.0,0.0,0.0,0.0,0.0,0.0,0.0,0.0,0.0,0.0,0.0,0.0,0.0,0.0,0.0,0.0,0.0,0.0,0.0,0.0,0.0,0.0,0.0,0.0,0.0,0.0,0.0,0.0,0.0,0.0,0.0,0.0,0.0,0.0,0.0,0.0,0.0,0.0,0.0,0.0,0.0,0.0,0.0,0.0,0.0,0.0,0.0,0.0,1.6914,0.0,0.0,0.0,0.0,0.0,0.0,0.0,0.0,0.0,0.0,0.0,0.0,0.0,0.0,0.0,0.0,0.0,0.0,0.0,0.0,0.0,0.0,0.0,0.0,0.0,0.0,0.0,0.0,0.0,0.0,0.0,0.0,0.0,0.0,0.0,0.0,0.0,0.0,0.0,0.0,0.0,0.0,0.0,0.0,0.0,0.0,0.0,0.0,0.0,0.0,0.0,0.0,0.0,0.0,0.0,0.0,0.0,0.0,0.0,2.8252,2.9586,3.1239,3.2112,3.2093,3.1695,3.0469,0.0,0.0,0.0,0.0,0.0,0.0,0.0,0.0,0.0,0.0,0.0,0.0,0.0,0.0,0.0,0.0,0.0,0.0,0.0,0.0,0.0,0.0,0.0,0.0,0.0,0.0,0.0,0.0,0.0,0.0,0.0,0.0,0.0,0.0,0.0,0.0,0.0,0.0,0.0,0.0,0.0,0.0,0.0,0.0,0.0,0.0,0.0,0.0,0.0,0.0,0.0,0.0,0.0,0.0,0.0,0.0,0.0,0.0,0.0,0.0,0.0,0.0,0.0,0.0,0.0,0.0,0.0,0.0,0.0,0.0,0.0,0.0,0.0,0.0,0.0,0.0,0.0,0.0,0.0,0.0,0.0,0.0,0.0,0.0,0.0,0.0,0.0,0.0,0.0,0.0,0.0,0.0,0.0,0.0,0.0,0.0,0.0,0.0,0.0,0.0,0.0,0.0,0.0,0.0,0.0,0.0,0.0,2.7059,2.8717,2.9606,3.124,3.2101,3.2094,3.1952,3.0745,2.84,0.0,0.0,0.0,0.0,0.0,0.0,0.0,0.0,0.0,0.0,0.0,0.0,0.0,0.0,0.0,0.0,0.0,0.0,0.0,0.0,0.0,0.0,0.0,0.0,0.0,0.0,0.0,0.0,0.0,0.0,0.0,0.0,0.0,0.0,0.0,0.0,0.0,0.0,1.4199,1.6109,0.0,0.0,0.0,0.0,0.0,0.0,0.0,0.0,1.7769,0.0,0.0,0.0,0.0,0.0,0.0,0.0,0.0,0.0,0.0,0.0,0.0,0.0,0.0,0.0,0.0,0.0,0.0,0.0,0.0,0.0,0.0,0.0,0.0,0.0,0.0,0.0,0.0,0.0,0.0,0.0,0.0,0.0,0.0,0.0,0.0,0.0,0.0,0.0,0.0,0.0,0.0,0.0,0.0,0.0,0.0,0.0,0.0,0.0,0.0,0.0,0.0,0.0,0.0,0.0,0.0,2.5492,2.7347,2.873,2.9598,3.1241,3.2099,3.209,3.1401,3.0125,2.8359,0.0,0.0,0.0,0.0,0.0,0.0,0.0,0.0,0.0,0.0,0.0,0.0,0.0,0.0,0.0,0.0,0.0,0.0,0.0,0.0,0.0,0.0,0.0,0.0,0.0,0.0,0.0,0.0,0.0,0.0,0.0,0.0,0.0,0.0,0.0,0.0,0.0,0.0,0.0,1.7557,1.8559,0.0,0.0,0.0,0.0,0.0,0.0,0.0,0.0,1.9406,0.0,0.0,0.0,0.0,0.0,0.0,0.0,0.0,0.0,0.0,0.0,0.0,0.0,0.0,0.0,0.0,0.0,0.0,0.0,0.0,0.0,0.0,0.0,0.0,0.0,0.0,0.0,0.0,0.0,0.0,0.0,0.0,0.0,0.0,0.0,0.0,0.0,0.0,0.0,0.0,0.0,0.0,0.0,0.0,0.0,0.0,0.0,0.0,0.0,0.0,0.0,0.0,0.0,0.0,0.0,2.5683,2.6969,2.8034,2.8879,3.0117,3.0739,3.0695,3.0289,2.9285,0.0,0.0,0.0,0.0,0.0,0.0,0.0,0.0,0.0,0.0,0.0,0.0,0.0,0.0,0.0,0.0,0.0,0.0,0.0,0.0,0.0,0.0,0.0,0.0,0.0,0.0,0.0,0.0,0.0,0.0,0.0,0.0,0.0,0.0,0.0,0.0,0.0,0.0,0.0,0.0,1.8118,1.8623,1.9448,0.0,0.0,0.0,0.0,0.0,0.0,1.9757,1.9738,0.0,0.0,0.0,0.0,0.0,0.0,0.0,0.0,0.0,0.0,0.0,0.0,0.0,0.0,0.0,0.0,0.0,0.0,0.0,0.0,0.0,0.0,0.0,0.0,0.0,0.0,0.0,0.0,0.0,0.0,0.0,0.0,0.0,0.0,0.0,0.0,0.0,0.0,0.0,0.0,0.0,0.0,0.0,0.0,0.0,0.0,0.0,0.0,0.0,0.0,0.0,0.0,0.0,0.0,0.0,2.5673,2.6392,2.7124,2.7928,2.8792,2.9201,2.9168,2.8994,2.8255,0.0,0.0,0.0,0.0,0.0,0.0,0.0,0.0,0.0,0.0,0.0,0.0,0.0,0.0,0.0,0.0,0.0,0.0,0.0,0.0,0.0,0.0,0.0,0.0,0.0,0.0,0.0,0.0,0.0,0.0,0.0,0.0,0.0,0.0,0.0,0.0,0.0,0.0,0.0,0.0,0.0,1.9021,1.9623,1.9911,0.0,0.0,0.0,0.0,2.0145,2.0028,0.0,0.0,0.0,0.0,0.0,0.0,0.0,0.0,0.0,0.0,0.0,0.0,0.0,0.0,0.0,0.0,0.0,0.0,0.0,0.0,0.0,0.0,0.0,0.0,0.0,0.0,0.0,0.0,0.0,0.0,0.0,0.0,0.0,0.0,0.0,0.0,0.0,0.0,0.0,0.0,0.0,0.0,0.0,0.0,0.0,0.0,0.0,0.0,0.0,0.0,0.0,0.0,0.0,0.0,0.0,0.0,2.5655,2.5801,2.6224,2.7043,2.7907,2.8359,2.8326,2.7595,2.7103,0.0,0.0,0.0,0.0,0.0,0.0,0.0,0.0,0.0,0.0,0.0,0.0,0.0,0.0,0.0,0.0,0.0,0.0,0.0,0.0,0.0,0.0,0.0,0.0,0.0,0.0,0.0,0.0,0.0,0.0,0.0,0.0,0.0,0.0,0.0,0.0,0.0,0.0,0.0,0.0,0.0,2.042,2.047,2.1078,2.1572,0.0,0.0,2.1649,2.1733,2.1131,0.0,0.0,0.0,0.0,0.0,0.0,0.0,0.0,0.0,0.0,0.0,0.0,0.0,0.0,0.0,0.0,0.0,0.0,0.0,0.0,0.0,0.0,0.0,0.0,0.0,0.0,0.0,0.0,0.0,0.0,0.0,0.0,0.0,0.0,0.0,0.0,0.0,0.0,0.0,0.0,0.0,0.0,0.0,0.0,0.0,0.0,0.0,0.0,0.0,0.0,0.0,0.0,0.0,0.0,0.0,2.5219,2.5675,2.5691,2.6112,2.6875,2.7274,2.7468,2.7453,2.7109,2.6668,0.0,0.0,0.0,0.0,0.0,0.0,0.0,0.0,0.0,0.0,0.0,0.0,0.0,0.0,0.0,0.0,0.0,0.0,0.0,0.0,0.0,0.0,0.0,0.0,0.0,0.0,0.0,0.0,0.0,0.0,0.0,0.0,0.0,0.0,0.0,0.0,0.0,0.0,0.0,0.0,0.0,0.0,2.1163,2.1511,0.0,0.0,0.0,2.1849,2.1884,0.0,0.0,0.0,0.0,0.0,0.0,0.0,0.0,0.0,0.0,0.0,0.0,0.0,0.0,0.0,0.0,0.0,0.0,0.0,0.0,0.0,0.0,0.0,0.0,0.0,0.0,0.0,0.0,0.0,0.0,0.0,0.0,0.0,0.0,0.0,0.0,0.0,0.0,0.0,0.0,0.0,0.0,0.0,0.0,0.0,0.0,0.0,0.0,0.0,0.0,0.0,0.0,0.0,0.0,0.0,0.0,0.0,2.5691,2.5703,2.5983,2.6534,2.6583,2.6587,2.6553,2.6571,0.0,0.0,0.0,0.0,0.0,0.0,0.0,0.0,0.0,0.0,0.0,0.0,0.0,0.0,0.0,0.0,0.0,0.0,0.0,0.0,0.0,0.0,0.0,0.0,0.0,0.0,0.0,1.781,0.0,0.0,0.0,0.0,0.0,0.0,0.0,0.0,0.0,0.0,0.0,0.0,0.0,0.0,2.1369,2.1881,2.2136,2.2264,0.0,0.0,2.2372,2.2372,2.226,2.1961,0.0,0.0,0.0,0.0,0.0,0.0,0.0,0.0,0.0,0.0,0.0,0.0,0.0,0.0,0.0,0.0,0.0,0.0,0.0,0.0,0.0,0.0,0.0,0.0,0.0,0.0,0.0,0.0,0.0,0.0,0.0,0.0,0.0,0.0,0.0,0.0,0.0,0.0,0.0,0.0,0.0,0.0,0.0,0.0,0.0,0.0,0.0,0.0,0.0,0.0,0.0,0.0,0.0,0.0,2.5699,2.5699,2.5699,2.5695,2.5702,2.5682,2.5693,2.5687,2.5698,2.5678,0.0,0.0,0.0,0.0,0.0,0.0,0.0,0.0,0.0,0.0,0.0,0.0,0.0,0.0,0.0,0.0,0.0,0.0,0.0,0.0,0.0,0.0,0.0,0.0,0.0,0.0,0.0,0.0,0.0,0.0,0.0,0.0,0.0,0.0,0.0,0.0,0.0,0.0,0.0,0.0,0.0,2.2714,2.2623,2.3318,2.3812,0.0,2.3852,2.3948,2.3948,2.3364,2.2904,2.2866,0.0,0.0,0.0,0.0,0.0,0.0,0.0,0.0,0.0,0.0,0.0,0.0,0.0,0.0,0.0,0.0,0.0,0.0,0.0,0.0,0.0,0.0,0.0,0.0,0.0,0.0,0.0,0.0,0.0,0.0,0.0,0.0,0.0,0.0,0.0,0.0,0.0,0.0,0.0,0.0,0.0,0.0,0.0,0.0,0.0,0.0,0.0,0.0,0.0,0.0,0.0,0.0,0.0,2.5699,2.5699,2.5699,2.5675,2.5604,2.5604,2.56,2.5605,2.5615,2.5613,0.0,0.0,0.0,0.0,0.0,0.0,0.0,0.0,0.0,0.0,0.0,0.0,0.0,0.0,0.0,0.0,0.0,0.0,0.0,0.0,0.0,0.0,0.0,0.0,0.0,0.0,0.0,0.0,1.9476,1.9545,1.9816,0.0,0.0,0.0,0.0,0.0,0.0,0.0,0.0,0.0,0.0,2.2912,2.3324,2.3629,0.0,0.0,2.3873,2.3917,2.3935,2.3742,2.3453,2.2959,2.2995,0.0,0.0,0.0,0.0,0.0,0.0,0.0,0.0,0.0,0.0,0.0,0.0,0.0,0.0,0.0,0.0,0.0,0.0,0.0,0.0,0.0,0.0,0.0,0.0,0.0,0.0,0.0,0.0,0.0,0.0,0.0,0.0,0.0,0.0,0.0,0.0,0.0,0.0,0.0,0.0,0.0,0.0,0.0,0.0,0.0,0.0,0.0,0.0,0.0,0.0,0.0,0.0,2.5699,2.5699,2.5699,2.5656,2.5632,2.5628,2.5628,2.5643,2.5628,2.566,0.0,0.0,0.0,0.0,0.0,0.0,0.0,0.0,0.0,0.0,0.0,0.0,0.0,0.0,0.0,0.0,0.0,0.0,0.0,0.0,0.0,0.0,0.0,0.0,0.0,0.0,0.0,0.0,2.0153,2.0238,2.0207,0.0,0.0,0.0,0.0,0.0,0.0,0.0,0.0,0.0,0.0,2.3195,2.3689,2.3721,2.3718,2.3718,2.3747,2.3792,2.3792,2.3894,2.3755,2.3188,0.0,0.0,0.0,0.0,0.0,0.0,0.0,0.0,0.0,0.0,0.0,0.0,0.0,0.0,0.0,0.0,0.0,0.0,0.0,0.0,0.0,0.0,0.0,0.0,0.0,0.0,0.0,2.3021,0.0,0.0,2.3134,0.0,0.0,0.0,0.0,0.0,0.0,0.0,0.0,0.0,0.0,0.0,0.0,0.0,0.0,0.0,0.0,0.0,0.0,0.0,0.0,0.0,0.0,2.5699,2.5699,2.5699,2.5699,2.5699,2.5699,2.5699,2.5699,2.5699,2.5703,2.5694,0.0,0.0,0.0,0.0,0.0,0.0,0.0,0.0,0.0,0.0,0.0,0.0,0.0,0.0,0.0,0.0,0.0,0.0,0.0,0.0,0.0,0.0,0.0,0.0,0.0,0.0,2.0063,2.0615,2.1085,0.0,0.0,0.0,0.0,0.0,0.0,0.0,0.0,0.0,2.3862,2.3795,2.3743,2.3629,2.3674,2.37,2.3718,2.3761,2.3804,2.3804,2.381,2.3813,0.0,0.0,0.0,0.0,0.0,0.0,0.0,0.0,0.0,0.0,0.0,0.0,0.0,0.0,0.0,0.0,0.0,0.0,0.0,0.0,0.0,0.0,0.0,0.0,0.0,0.0,0.0,2.4727,2.4734,0.0,0.0,0.0,0.0,0.0,0.0,0.0,0.0,0.0,0.0,0.0,2.7383,2.7008,0.0,0.0,0.0,0.0,0.0,0.0,0.0,0.0,0.0,0.0,0.0,0.0,2.5699,2.5699,2.5699,2.5699,2.5699,2.5699,2.5703,2.5687,2.5687,2.5694,2.569,0.0,0.0,0.0,0.0,0.0,0.0,0.0,0.0,0.0,0.0,0.0,0.0,0.0,0.0,0.0,0.0,0.0,0.0,0.0,0.0,0.0,0.0,0.0,0.0,0.0,2.181,0.0,0.0,0.0,0.0,0.0,0.0,0.0,0.0,0.0,0.0,0.0,2.3915,2.3789,2.37,2.3629,2.3539,2.3562,2.3585,0.0,0.0,0.0,0.0,0.0,0.0,0.0,0.0,0.0,0.0,0.0,0.0,0.0,0.0,2.1688,2.1823,2.1794,2.1688,2.1675,0.0,0.0,0.0,0.0,0.0,0.0,0.0,0.0,0.0,0.0,0.0,0.0,0.0,0.0,2.6504,2.6505,2.6505,0.0,0.0,0.0,0.0,0.0,0.0,0.0,0.0,2.6656,2.6992,2.8278,2.8094,2.8088,0.0,2.8294,2.7715,0.0,0.0,0.0,0.0,0.0,0.0,0.0,0.0,2.5699,2.5699,2.5699,2.5699,2.5699,2.5703,2.5687,2.5694,2.5701,2.5687,2.5698,2.5705,2.5689,0.0,0.0,0.0,0.0,0.0,0.0,0.0,0.0,0.0,0.0,0.0,0.0,0.0,0.0,0.0,0.0,0.0,0.0,0.0,0.0,0.0,0.0,0.0,2.225,0.0,0.0,0.0,0.0,0.0,0.0,0.0,0.0,0.0,2.4016,2.3894,2.375,2.3634,2.3562,2.3494,2.3471,0.0,0.0,0.0,0.0,0.0,0.0,0.0,2.3517,2.3471,2.3324,2.3111,2.2825,2.231,2.188,2.165,0.0,0.0,2.1433,2.1355,2.1245,2.1245,2.1166,2.1055,2.099,2.075,2.0475,0.0,0.0,0.0,0.0,0.0,0.0,0.0,0.0,2.8159,2.814,0.0,2.814,0.0,0.0,0.0,0.0,2.8182,2.8216,0.0,0.0,2.7712,2.7791,2.8515,2.9045,2.8967,2.844,2.8479,2.8429,2.8281,2.7495,0.0,0.0,0.0,0.0,0.0,0.0,2.5699,2.5699,2.5699,2.5699,2.5699,2.5687,2.5694,2.5701,2.5693,2.5698,2.5698,2.5705,2.5693,2.57,2.5703,0.0,0.0,0.0,0.0,0.0,0.0,0.0,0.0,0.0,0.0,0.0,0.0,0.0,0.0,0.0,0.0,0.0,0.0,0.0,0.0,2.2807,0.0,0.0,0.0,0.0,0.0,0.0,0.0,0.0,0.0,0.0,2.3894,2.3707,2.3589,2.3517,0.0,0.0,0.0,0.0,2.3448,2.358,2.3539,2.3494,2.3494,2.343,2.3354,2.3217,0.0,0.0,2.2286,2.193,2.1616,2.131,2.1054,2.0907,2.1086,2.0957,2.081,2.0842,2.0807,2.0691,2.0571,2.0419,2.007,3.1695,0.0,0.0,0.0,0.0,2.8198,2.8204,2.8189,2.8189,2.8194,2.8203,2.8203,0.0,0.0,0.0,0.0,0.0,0.0,2.8954,2.9982,2.8667,2.9413,3.1934,3.2092,3.176,3.1016,3.1016,3.0394,2.9248,2.8984,2.8101,2.6642,0.0,0.0,0.0,0.0,2.5687,2.5691,2.5687,2.5694,2.5701,2.5704,2.5687,2.5693,2.5701,2.5705,2.5705,2.5694,2.5701,2.5703,2.5702,0.0,0.0,0.0,0.0,0.0,0.0,0.0,0.0,0.0,0.0,0.0,0.0,0.0,0.0,0.0,0.0,0.0,0.0,0.0,2.4332,2.4041,2.3806,0.0,0.0,0.0,0.0,0.0,0.0,0.0,0.0,0.0,2.3616,2.3567,2.3499,0.0,0.0,2.333,2.3319,2.3313,2.3336,2.336,2.3378,0.0,2.3289,2.3241,2.3144,2.302,2.2678,2.2324,2.1953,2.2004,2.1977,2.1722,2.1384,2.1155,2.121,2.0821,2.0712,2.1101,2.1084,2.1111,2.1362,2.0944,2.0307,3.4776,3.3142,3.1115,3.0258,3.0278,3.0278,3.0258,3.0258,3.0278,3.0278,3.0239,2.9888,2.9751,2.9732,2.9401,0.0,0.0,0.0,3.0534,3.1799,3.1049,3.164,3.3337,3.3647,3.3354,3.263,3.2277,3.1571,3.0574,2.9916,2.9082,2.8022,0.0,0.0,2.5707,2.5704,2.5701,2.5701,2.5697,2.5697,2.5707,2.5687,2.5693,2.5703,2.5691,2.5696,2.5697,2.5702,2.5703,2.5701,2.5689,2.569,0.0,0.0,0.0,0.0,0.0,0.0,0.0,0.0,0.0,0.0,0.0,2.4874,2.5341,0.0,0.0,0.0,2.4921,2.4719,2.4569,2.4481,0.0,0.0,0.0,0.0,0.0,0.0,0.0,2.3858,2.3747,2.3652,2.3517,2.343,2.336,2.3336,2.3283,2.3241,2.3265,0.0,2.3265,2.3289,2.3241,2.3217,2.3168,2.307,2.2919,2.2738,2.2364,2.2015,2.179,2.1762,2.1682,2.144,2.1151,2.0885,2.0778,2.0426,2.0345,2.1002,2.1227,2.1379,2.1644,2.0968,2.0256,3.7494,3.7304,3.4846,3.3731,3.359,3.361,3.3544,3.3457,3.3477,3.3512,3.3419,3.2562,3.2192,3.2153,3.1373,0.0,3.2205,3.2218,3.2661,3.3534,3.4053,3.4057,3.3647,3.4178,3.4101,3.3495,3.2617,3.2167,3.2008,3.0476,2.9658,2.9551,2.8003,2.6784,2.5961,2.5913,2.5869,2.581,2.5804,2.5782,2.5704,2.5693,2.5701,2.5691,2.5699,2.5703,2.5703,2.5702,2.5696,2.5703,2.5697,2.5671,2.5585,0.0,0.0,0.0,0.0,0.0,0.0,0.0,0.0,0.0,0.0,0.0,0.0,0.0,0.0,0.0,2.479,0.0,2.4495,2.4375,0.0,0.0,0.0,2.4154,2.4094,2.3958,2.3876,2.3813,0.0,0.0,2.3494,2.3313,2.3193,2.3193,2.3144,2.3126,2.3193,2.3193,2.3217,2.3247,2.3168,2.3077,2.3028,2.2893,2.2642,2.2398,2.2084,2.1814,2.1596,2.1375,2.1065,2.0866,2.0534,2.0308,2.0096,1.9948,1.9944,2.061,2.1126,2.1441,2.1348,2.0688,1.994,3.9198,3.9119,3.7889,3.661,3.5408,3.5392,3.4862,3.4039,3.4293,3.423,3.3973,3.3368,3.3095,3.3056,3.2881,3.29,3.3099,3.3106,3.3542,3.4365,3.4315,3.4691,3.5374,3.5532,3.5181,3.4361,3.3502,3.2749,3.2089,3.1083,3.0257,2.9617,2.9178,2.8554,2.7719,2.7678,2.7347,2.6688,2.6687,2.6379,2.572,2.5702,2.5703,2.5703,2.5703,2.5701,2.5694,2.5696,2.5675,2.5621,2.5624,2.561,2.5615,2.5354,0.0,0.0,0.0,0.0,0.0,0.0,0.0,0.0,0.0,2.5303,2.5233,0.0,2.5144,0.0,2.4753,2.453,2.4375,2.4266,0.0,0.0,2.4056,2.3998,2.3878,2.3855,2.3771,2.3656,2.3562,2.3471,2.336,2.3265,2.3175,2.3144,2.3119,2.3102,2.3119,2.3102,2.3119,2.3095,2.3028,2.2952,2.2816,2.2579,2.2332,2.2044,2.1827,2.1573,2.1263,2.1434,2.1475,2.1182,2.0931,2.0749,2.0504,2.0287,2.0127,2.024,2.0426,2.0757,2.1426,2.061,1.962,4.073,4.034,3.9889,3.9157,3.8221,3.7471,3.6777,3.616,3.5946,3.5763,3.5522,3.4449,3.3766,3.3395,3.3395,3.361,3.3981,3.3968,3.444,3.5259,3.511,3.5408,3.601,3.601,3.5757,3.5249,3.439,3.3524,3.2656,3.1846,3.0972,3.0147,3.0121,2.9895,2.9394,2.8672,2.8065,2.7577,2.7187,2.6582,2.5736,2.5691,2.5705,2.5701,2.5659,2.5654,2.5655,2.5656,2.5639,2.5615,2.5565,2.5554,2.5556,2.5163,2.5091,0.0,0.0,0.0,0.0,0.0,0.0,0.0,0.0,0.0,0.0,0.0,2.5044,2.4875,2.4695,2.4497,2.4303,2.4209,2.4094,2.3976,2.3917,2.3876,2.381,2.3728,2.366,2.3562,2.3471,2.336,2.3265,2.3193,2.3144,2.3119,2.3095,2.307,2.307,2.307,2.3045,2.2952,2.2919,2.279,2.2569,2.2304,2.2032,2.1857,2.1617,2.134,2.1055,2.1077,2.1105,2.0895,2.0594,2.0317,2.0132,1.9906,1.9711,1.9735,1.9606,1.9893,2.0884,2.0217,1.9265,4.1949,4.1242,4.1125,4.1085,4.0991,3.953,3.8923,3.8871,3.7992,3.7494,3.7207,3.5591,3.4456,3.3731,3.3727,3.414,3.4839,3.4869,3.5279,3.5981,3.6007,3.601,3.601,3.601,3.601,3.5971,3.5115,3.4328,3.3555,3.2569,3.173,3.0969,3.0859,3.0801,3.0739,2.9357,2.8507,2.8293,2.7432,2.6564,2.5707,2.5687,2.5687,2.5688,2.563,2.5605,2.5585,2.5595,2.5585,2.5576,2.5538,2.5506,2.5492,2.4774,2.4694,0.0,2.4783,0.0,0.0,0.0,0.0,0.0,0.0,0.0,0.0,2.5044,2.4894,2.4726,2.4561,2.4426,2.4284,2.4171,2.4036,2.3915,2.3834,2.381,2.3783,2.3674,2.3562,2.3494,2.336,2.3265,2.3199,2.3144,2.3119,2.3077,2.3045,2.2995,2.297,2.2977,2.2952,2.2876,2.2755,2.2569,2.2293,2.2049,2.1811,2.1678,2.1402,2.1151,2.0877,2.0628,2.0441,2.025,1.995,1.9611,1.9413,1.9205,1.9114,1.9244,1.8843,1.8859,1.9782,1.9475,1.8838,4.2227,4.2013,4.1311,4.1056,4.1076,4.0766,4.0633,4.0566,3.9707,3.8572,3.726,3.6225,3.5652,3.55,3.55,3.5597,3.5754,3.5757,3.5835,3.601,3.601,3.601,3.601,3.601,3.601,3.5955,3.5112,3.4609,3.4411,3.2871,3.2026,3.1841,3.1153,3.0802,3.0789,0.0,0.0,0.0,2.7367,2.6509,2.5668,2.5617,2.5624,2.561,2.5595,0.0,2.5531,2.5511,2.5505,2.5506,2.5524,0.0,0.0,0.0,0.0,0.0,0.0,0.0,0.0,0.0,0.0,0.0,2.5044,2.5025,2.5038,2.4856,2.4742,2.4698,2.4515,2.4376,2.4228,2.4113,2.3974,2.3828,2.3807,2.3743,2.3652,2.3607,2.3562,2.3448,2.336,2.3265,2.3217,2.3144,2.3077,2.3045,2.302,2.297,2.2868,2.2893,2.285,2.2738,2.2542,2.2276,2.2032,2.1857,2.1648,2.1402,2.1135,2.0877,2.0646,2.046,2.0185,1.9904,1.9632,1.9413,1.9176,1.8889,1.8676,1.8672,1.8311,1.8208,1.8933,1.8521,1.7882,4.2991,4.2221,4.1762,4.1376,0.0,4.1045,4.1052,4.1,4.0176,3.886,3.7284,3.6834,3.6406,3.601,3.601,3.601,3.601,3.601,3.601,3.601,3.601,3.601,3.601,3.601,3.601,3.5991,3.5547,3.5115,3.466,3.3785,3.2918,3.2109,3.1626,3.1187,3.0767,3.0749,2.9907,2.8226,2.7746,2.6889,2.5664,2.5576,2.5546,2.5535,2.5543,0.0,0.0,0.0,0.0,0.0,0.0,0.0,0.0,2.5432,0.0,2.535,2.5284,2.5241,2.5195,2.5156,2.5051,2.4945,2.4875,2.4842,2.4856,2.4768,2.4679,2.462,2.4482,2.434,2.417,2.4054,2.3935,2.3825,2.3783,2.3718,2.3625,2.3539,2.3471,2.336,2.3289,2.3217,2.3168,2.3077,2.3028,2.3003,2.2944,2.2868,2.2764,2.2764,2.2738,2.2542,2.2287,2.2089,2.1869,2.1648,2.1433,2.1214,2.1007,2.0745,2.046,2.027,2.0061,1.9762,1.9472,1.9191,1.8974,1.8697,1.8425,1.8242,1.7989,1.7814,1.7999,1.7688,1.7365,4.3771,4.2403,4.2248,4.1732,4.098,4.0976,4.0979,4.0915,4.0115,0.0,0.0,3.758,3.7042,3.6229,3.6209,3.6131,3.6014,3.6014,3.6014,3.6014,3.6014,3.6014,3.6014,3.6014,3.6014,3.6014,3.5991,3.5593,3.4917,3.4686,3.3893,3.2619,3.2189,3.1559,3.0729,3.068,2.9924,2.845,2.8197,2.7356,2.5861,2.5615,2.5506,2.5506,2.5492,2.5483,2.5484,2.5476,2.5459,2.5406,2.5397,2.5378,2.5397,2.537,2.5341,2.5274,2.5192,2.5145,2.5082,2.5006,2.4926,2.4856,2.4772,2.4692,2.4692,2.4695,2.4631,2.4517,2.4412,2.4303,2.4113,2.4016,2.3915,2.3804,2.3739,2.3652,2.358,2.3471,2.336,2.3289,2.3241,2.3168,2.3095,2.3045,2.2995,2.297,2.2868,2.2738,2.2659,2.2605,2.2525,2.2276,2.2089,2.1928,2.1721,2.1464,2.1214,2.1055,2.086,2.0595,2.0304,2.0096,1.9884,1.9617,1.9288,1.9026,1.876,1.8542,1.8268,1.7909,1.7733,1.7516,1.7186,1.7073,1.6934,4.3983,4.309,4.2412,4.1651,4.0917,4.0927,4.0917,4.0857,4.0052,3.9608,3.9414,3.8647,3.7894,3.7133,3.7054,3.6664,3.6017,3.6017,3.6017,3.6017,3.6017,3.6017,3.6017,3.6017,3.6017,3.5997,3.5958,3.586,3.5663,3.4983,3.4432,3.3996,3.2656,3.1479,3.0671,3.0606,3.0123,2.908,2.8443,2.7612,2.6662,2.5885,2.5522,2.5488,2.5445,2.5401,2.5423,2.5416,2.5407,2.5379,2.5332,2.5322,2.5313,2.5253,2.5222,2.5192,2.5103,2.5019,2.5006,2.4912,2.4798,2.4729,2.4666,2.465,2.4682,2.4601,2.4515,2.4482,2.4321,2.419,2.4094,2.3955,2.3813,2.3721,2.3634,2.3562,2.3471,2.3407,2.3354,2.3241,2.3217,2.3144,2.3028,2.302,2.2944,2.2842,2.2738,2.2632,2.2432,2.2366,2.2248,2.2073,2.1911,2.1721,2.1464,2.1246,2.1055,2.086,2.0561,2.0304,2.0096,1.9869,1.9617,1.925,1.9026,1.8784,1.8581,1.8242,1.7949,1.7733,1.7488,1.7144,1.685,1.657,1.6411,4.4635,4.3834,4.298,4.2209,4.1447,4.1006,4.0784,4.0768,4.0461,4.0077,3.9728,3.9312,3.87,3.7971,3.7912,3.7717,3.7347,3.7347,3.7366,3.7347,3.7347,3.7113,3.6684,3.665,3.6411,3.5972,3.5878,3.5853,3.582,3.5434,3.4975,3.4359,3.2705,3.1632,3.1187,3.0752,3.0337,2.9862,2.91,2.8064,2.6779,2.6309,2.5878,2.5474,2.5388,2.5351,2.5351,2.5322,2.5283,2.5292,2.5222,2.5182,2.5198,2.5134,2.5091,2.5087,2.4974,2.4893,2.4889,2.4738,2.4629,2.4601,2.4534,2.4481,2.4481,2.45,2.4447,2.4339,2.4247,2.4151,2.3996,2.3858,2.3771,2.3721,2.3589,2.3499,2.3424,2.3336,2.3247,2.3168,2.3119,2.3052,2.297,2.2893,2.2816,2.2738,2.2605,2.2405,2.2231,2.2089,2.1991,2.1899,2.1721,2.1526,2.1294,2.1055,2.086,2.0613,2.0357,2.0115,1.9869,1.9654,1.9376,1.9093,1.8812,1.8528,1.8307,1.8016,1.7733,1.7447,1.7144,1.6837,1.6527,1.6107,1.5812,4.5087,4.4256,4.3615,4.2815,4.1895,4.1029,4.0655,4.0675,4.072,4.0436,3.9956,3.9952,3.9509,3.8779,3.8741,3.8643,3.8449,3.8449,3.8449,3.8449,3.8449,3.8079,3.7462,3.7267,3.6813,3.617,3.5903,3.5764,3.5779,3.5775,3.5292,3.4323,3.3004,3.2138,3.168,3.1083,3.0629,3.0364,2.977,2.8713,2.7306,2.7007,2.6534,2.5976,2.5889,2.5838,2.5798,2.5746,2.5711,2.5707,2.5652,2.5615,2.5583,2.5538,2.5498,2.5475,2.5393,2.5317,2.5274,2.5105,2.502,2.4985,2.4931,2.4875,2.48,2.4894,2.4709,2.4301,2.4151,2.4036,2.3896,2.3792,2.3707,2.3656,2.3544,2.343,2.336,2.3241,2.3144,2.3077,2.302,2.2944,2.285,2.2747,2.2685,2.2579,2.2405,2.2192,2.2027,2.1869,2.1721,2.1648,2.1479,2.1309,2.1151,2.0876,2.0628,2.0376,2.017,1.9889,1.9654,1.9413,1.9168,1.8917,1.8595,1.8293,1.7988,1.7707,1.7475,1.7157,1.685,1.6484,1.6107,1.568,1.5345,4.4921,4.4192,4.4094,4.3205,4.1774,4.0885,4.0519,4.0519,4.0588,4.0593,4.0501,4.0699,4.0286,3.9576,3.9498,3.911,3.843,3.8333,3.8391,3.8391,3.8305,3.8294,3.8138,3.7478,3.7042,3.6802,3.6115,3.5786,3.5776,3.5665,3.5195,3.4376,3.407,3.3166,3.1903,3.1578,3.1079,3.0343,3.0171,2.9723,2.8895,2.8091,2.7629,2.7499,2.7478,2.7452,2.7306,2.7325,2.7271,2.729,2.7182,2.7142,2.7062,2.7069,2.7022,2.6954,2.6889,2.6839,2.6693,2.6636,2.6466,2.6422,2.6328,2.6266,2.6237,2.6252,2.569,2.4589,2.4012,2.391,2.3795,2.3703,2.3589,2.3522,2.3453,2.336,2.3241,2.3144,2.3095,2.3003,2.2944,2.285,2.2738,2.2685,2.2579,2.2349,2.2175,2.1986,2.184,2.1631,2.1386,2.1294,2.1215,2.1103,2.086,2.0628,2.0376,2.0185,1.9889,1.9639,1.9413,1.9168,1.8917,1.8581,1.8293,1.8002,1.776,1.7475,1.7144,1.6808,1.6497,1.6107,1.5558,1.521,1.5108,4.4982,4.4645,4.4209,4.3082,4.1607,4.0687,4.0341,4.0394,4.0463,4.0492,4.05,4.0607,4.05,4.0261,4.0242,4.0029,3.9738,3.9719,3.9719,3.9719,3.9719,3.9486,3.8983,3.8692,3.8244,3.7607,3.6764,3.6335,3.6209,3.5734,3.5303,3.493,3.4395,3.3738,3.3015,3.201,3.1278,3.0944,3.0419,2.9975,2.9576,2.8868,2.816,2.7663,2.7586,2.7556,2.7481,2.7403,2.7377,2.7377,2.7318,2.7253,2.7184,2.7133,2.7117,2.7082,2.6935,2.6821,2.674,2.6659,2.6615,2.6533,2.6469,2.6403,2.6376,2.6309,2.5959,2.5415,2.4831,2.4317,2.3855,2.3629,2.3539,2.3494,2.336,2.3241,2.3168,2.3095,2.2995,2.2868,2.2773,2.2738,2.2605,2.2515,2.236,2.2118,2.1957,2.1811,2.1617,2.1402,2.123,2.099,2.0827,2.0679,2.0545,2.0376,2.0135,1.9904,1.9654,1.9362,1.9153,1.8865,1.8595,1.8254,1.8002,1.7707,1.7434,1.7131,1.6808,1.6454,1.5988,1.5603,1.5255,1.4937,1.4697,4.4943,4.4858,4.4148,4.3012,4.1701,4.0824,4.0368,4.0234,4.0289,4.0325,4.0339,4.0392,4.0469,4.0574,4.0615,4.0642,4.0642,4.0642,4.0642,4.0642,4.0642,4.0333,3.9779,3.9509,3.9064,3.8334,3.7492,3.693,3.6622,3.604,3.5584,3.5277,3.4626,3.4194,3.3834,3.2565,3.1752,3.1286,3.0491,3.0015,2.9878,2.9406,2.8802,2.8236,2.8139,2.8099,2.802,2.7966,2.7913,2.7896,2.7845,2.7773,2.7718,2.7661,2.7604,2.7544,2.7385,2.7279,2.7218,2.7127,2.7096,2.7032,2.6944,2.6897,2.6826,2.6754,2.6572,2.6296,2.5841,2.5152,2.4141,2.3843,2.3697,2.3437,2.3241,2.3144,2.3045,2.2995,2.2868,2.2738,2.2659,2.2552,2.2388,2.2248,2.2077,2.1857,2.1721,2.1587,2.1371,2.1183,2.099,2.0712,2.0478,2.0342,2.0308,2.0135,1.9904,1.9654,1.9362,1.9139,1.8874,1.8606,1.8307,1.7975,1.7733,1.7475,1.7144,1.6795,1.6411,1.6064,1.5591,1.5165,1.4937,1.4605,1.4326,4.4712,4.4624,4.3899,4.3133,4.2299,4.1427,4.0675,4.0093,4.0115,4.0176,4.0215,4.0196,4.0214,4.0233,4.0406,4.0504,4.0504,4.0504,4.0504,4.0504,4.0504,4.0485,4.0389,3.9604,3.9173,3.8994,3.8172,3.7357,3.6585,3.6451,3.6031,3.5267,3.5045,3.4611,3.3932,3.3481,3.2667,3.1421,3.0483,2.9931,2.9832,2.9718,2.9704,2.9628,2.9693,2.9532,2.9513,2.9476,2.942,2.9362,2.9229,2.9204,2.9138,2.9074,2.8913,2.8838,2.8787,2.8717,2.8609,2.8482,2.8427,2.8363,2.8204,2.8278,2.8012,2.796,2.7638,2.6952,2.6783,2.6169,2.4955,2.4466,2.4025,2.3327,2.3119,2.3045,2.2919,2.279,2.2738,2.2659,2.2497,2.2304,2.2056,2.1899,2.1768,2.1634,2.145,2.1294,2.1119,2.0925,2.0712,2.0478,2.0239,2.01,2.0065,1.9889,1.9617,1.9376,1.9153,1.8889,1.8563,1.8263,1.7988,1.7693,1.7406,1.7102,1.6808,1.6411,1.6032,1.5635,1.5334,1.4937,1.4569,1.4373,1.4082,4.4477,4.4503,4.3672,4.3163,4.2824,4.2015,4.1278,4.0617,4.0602,4.0366,4.0053,4.0017,3.9998,3.9998,4.008,4.0177,4.0306,4.0304,4.0304,4.0304,4.0306,4.0304,4.0267,3.9961,3.9793,3.9624,3.8842,3.7966,3.7091,3.6578,3.616,3.5799,3.5211,3.4718,3.4358,3.3658,3.3014,3.2467,3.1411,3.0678,3.0402,3.0335,3.0096,2.956,2.9569,2.9569,2.9516,2.9444,2.9349,2.9307,2.9225,2.9178,2.9108,2.9017,2.8905,2.8791,2.8694,2.8619,2.8612,2.8492,2.8414,2.838,2.83,2.8219,2.8164,2.8063,2.7809,2.7522,2.7384,2.6863,2.5957,2.4989,2.4206,2.378,2.3266,2.2885,2.2764,2.2659,2.2542,2.2432,2.222,2.2003,2.1811,2.1718,2.1552,2.1356,2.1231,2.1038,2.0777,2.0613,2.0444,2.0185,1.9975,1.9782,1.9566,1.9545,1.9376,1.9116,1.8889,1.8577,1.8263,1.8001,1.772,1.7378,1.7086,1.6765,1.6466,1.5944,1.5558,1.5232,1.488,1.4569,1.4197,1.3941,1.3647,4.4151,4.4231,4.3718,4.3306,4.3025,4.252,4.1844,4.1243,4.1186,4.0828,4.0287,4.0174,4.0042,3.9819,3.9758,3.9829,3.9979,4.006,4.0099,4.008,4.0099,4.0099,4.0099,4.0099,4.0059,3.988,3.9364,3.858,3.7718,3.7133,3.6736,3.6434,3.5564,3.5087,3.491,3.4135,3.3545,3.3125,3.2502,3.1817,3.113,3.0998,3.0536,2.9747,2.9654,2.9548,2.9359,2.9252,2.9152,2.9067,2.9021,2.8952,2.8834,2.8737,2.8637,2.8569,2.8466,2.8406,2.838,2.8273,2.8219,2.8146,2.8035,2.7996,2.794,2.7824,2.773,2.7642,2.76,2.7265,2.6613,2.5547,2.459,2.4066,2.3448,2.2926,2.2657,2.247,2.2304,2.2135,2.1945,2.1738,2.1556,2.1475,2.129,2.1039,2.094,2.0742,2.0475,2.0323,2.015,1.9884,1.9654,1.9457,1.9199,1.9049,1.8988,1.8774,1.8553,1.8238,1.7959,1.772,1.7447,1.7099,1.6761,1.6423,1.5988,1.5513,1.5153,1.4823,1.4501,1.4197,1.3858,1.3505,1.3208,4.3828,4.3974,4.3968,4.3522,4.2946,4.2835,4.2441,4.1838,4.181,4.1407,4.0828,4.0816,4.0422,3.9783,3.9802,3.9633,3.9801,4.0023,4.0,3.9889,3.9889,3.9911,3.9911,3.987,3.9804,3.9693,3.9537,3.9051,3.8319,3.8089,3.7676,3.6981,3.6193,3.5656,3.5544,3.4736,3.3981,3.3366,3.3478,3.3059,3.1821,3.16,3.1154,3.0304,3.0099,2.9782,2.9255,2.909,2.8947,2.881,2.8804,2.8712,2.8562,2.8458,2.8353,2.83,2.8228,2.8164,2.8126,2.8099,2.7996,2.7847,2.7818,2.773,2.7677,2.7587,2.7526,2.7434,2.7373,2.7258,2.6963,2.6265,2.5287,2.4087,2.3779,2.3295,2.2649,2.2265,2.2089,2.1857,2.1664,2.1511,2.134,2.1181,2.0991,2.0811,2.0626,2.0404,2.015,2.001,1.9812,1.9523,1.9325,1.9139,1.8822,1.8553,1.8489,1.8386,1.8173,1.7894,1.7652,1.7382,1.7099,1.6769,1.6331,1.6001,1.5591,1.5108,1.4789,1.4455,1.415,1.3868,1.3525,1.318,1.2822,4.3426,4.3511,4.3597,4.352,4.3281,4.3281,4.2918,4.2323,4.2267,4.1913,4.1343,4.1278,4.111,4.0924,4.0868,4.085,4.0887,4.0942,4.0532,3.9763,3.9661,3.9679,3.9661,3.9594,3.9477,3.935,3.9272,3.9107,3.879,3.8324,3.7832,3.7497,3.677,3.5987,3.5358,3.453,3.388,3.3644,3.37,3.3246,3.2293,3.217,3.173,3.0858,3.0178,2.9693,2.9489,2.9041,2.8737,2.8612,2.8562,2.8458,2.8327,2.8219,2.8182,2.8109,2.7961,2.7904,2.7818,2.7777,2.7719,2.7659,2.7569,2.7526,2.7448,2.7324,2.7261,2.7166,2.712,2.7024,2.6923,2.6621,2.5926,2.5169,2.4486,2.3789,2.2958,2.2232,2.1757,2.1495,2.1356,2.1199,2.099,2.0829,2.0649,2.0494,2.0281,2.0066,1.9848,1.969,1.9487,1.9168,1.904,1.8836,1.8489,1.8201,1.8042,1.7948,1.7747,1.7572,1.7288,1.7011,1.6731,1.6349,1.5949,1.5525,1.5108,1.4743,1.4419,1.4093,1.381,1.3478,1.3094,1.2793,1.2472,4.2995,4.3087,4.3214,4.3268,4.3268,4.3268,4.3082,4.2779,4.2776,4.2382,4.1865,4.1785,4.1601,4.136,4.1323,4.1305,4.1305,4.1305,4.0871,4.0198,4.0195,4.0117,3.9773,3.9357,3.9137,3.9045,3.8979,3.895,3.8894,3.8422,3.8163,3.8034,3.7332,3.6648,3.591,3.4907,3.4302,3.4146,3.4099,3.3671,3.2948,3.2711,3.2242,3.1408,3.0773,3.0109,2.9482,2.9026,2.8676,2.8407,2.8228,2.8119,2.8017,2.7968,2.7882,2.7853,2.7719,2.7612,2.76,2.7509,2.7448,2.7386,2.731,2.7233,2.7184,2.7038,2.6956,2.6892,2.6792,2.6691,2.6657,2.6488,2.6184,2.5832,2.5046,2.4247,2.3351,2.2374,2.1825,2.1601,2.1231,2.0892,2.0679,2.0462,2.0311,2.0166,1.9974,1.9752,1.9538,1.931,1.9078,1.8865,1.8659,1.8425,1.8109,1.7855,1.7652,1.7476,1.73,1.7165,1.7003,1.6714,1.6424,1.5872,1.5447,1.5119,1.4743,1.4373,1.4046,1.3716,1.343,1.3094,1.2754,1.2404,1.2092,4.2573,4.2673,4.2806,4.2844,4.2844,4.2844,4.2921,4.3124,4.3105,4.2793,4.2365,4.2307,4.1941,4.1317,4.1357,4.1357,4.1156,4.1284,4.1335,4.125,4.1335,4.1119,4.0296,3.9605,3.9202,3.8927,3.8836,3.8731,3.8585,3.8493,3.8621,3.8456,3.7802,3.7332,3.6839,3.5812,3.5048,3.4758,3.4691,3.4147,3.3356,3.3073,3.2667,3.1879,3.1579,3.0821,2.9677,2.9153,2.8676,2.8149,2.7893,2.7789,2.7672,2.76,2.7587,2.7557,2.7434,2.7373,2.7341,2.723,2.7149,2.7085,2.7023,2.6959,2.6876,2.6742,2.664,2.6589,2.6435,2.6365,2.6295,2.6123,2.5964,2.5832,2.5203,2.4472,2.3654,2.27,2.2176,2.192,2.1254,2.0537,2.055,2.0262,2.001,1.9899,1.9634,1.9361,1.9205,1.8974,1.8721,1.8489,1.8293,1.7975,1.7666,1.7502,1.7282,1.6964,1.6773,1.6667,1.6515,1.6269,1.5905,1.5402,1.4983,1.4662,1.4384,1.3999,1.3668,1.3372,1.3045,1.2715,1.2403,1.2061,1.1796,4.2086,4.2127,4.2351,4.249,4.2432,4.245,4.2552,4.2747,4.2765,4.2736,4.2686,4.2723,4.2559,4.2396,4.2341,4.2396,4.2305,4.2323,4.2414,4.2396,4.2468,4.177,4.0866,4.0427,3.9838,3.9283,3.9125,3.8816,3.8271,3.8307,3.8307,3.8252,3.8034,3.7533,3.6892,3.6468,3.5897,3.5148,3.4494,3.4167,3.3777,3.3087,3.2652,3.2389,3.1725,3.1133,3.0436,2.9321,2.839,2.7794,2.763,2.7557,2.7478,2.7355,2.7276,2.723,2.7152,2.7072,2.704,2.6908,2.6825,2.6791,2.6725,2.6657,2.6538,2.6469,2.6365,2.6312,2.6134,2.6026,2.5974,2.5819,2.5642,2.5384,2.4894,2.4349,2.3931,2.3099,2.2384,2.229,2.1487,2.0962,2.07,2.0173,1.9649,1.9561,1.9301,1.8955,1.8865,1.8592,1.8268,1.8082,1.7882,1.757,1.7282,1.7128,1.6876,1.6436,1.6213,1.6077,1.5903,1.5712,1.5312,1.4914,1.4558,1.428,1.3952,1.3621,1.3334,1.2997,1.2657,1.2323,1.1968,1.1651,1.149,4.1613,4.1613,4.1892,4.1977,4.2019,4.2079,4.2187,4.231,4.2351,4.2472,4.2631,4.267,4.2631,4.267,4.2652,4.2652,4.267,4.2652,4.2652,4.2652,4.2652,4.2063,4.1234,4.0817,4.0203,3.9716,3.9571,3.9283,3.887,3.8564,3.8366,3.8294,3.8042,3.7646,3.7235,3.7023,3.6541,3.5705,3.5083,3.471,3.4227,3.3366,3.2944,3.2683,3.1977,3.1317,3.068,2.9438,2.837,2.7618,2.7324,2.7247,2.7201,2.707,2.6956,2.694,2.6859,2.6809,2.6691,2.6607,2.6521,2.6453,2.6417,2.6312,2.6189,2.6101,2.5994,2.5937,2.5787,2.5659,2.5567,2.5389,2.5171,2.4961,2.4483,2.421,2.4311,2.339,2.2817,2.2447,2.1819,2.115,2.1096,2.0377,1.9875,1.9556,1.9241,1.8874,1.8588,1.819,1.7909,1.772,1.7462,1.7144,1.685,1.6693,1.6392,1.5957,1.5555,1.5419,1.5299,1.5085,1.4822,1.4463,1.415,1.3847,1.3563,1.3238,1.2958,1.2618,1.2283,1.2018,1.1668,1.1413,1.1237,4.11,4.1163,4.1426,4.1515,4.156,4.1648,4.1762,4.1831,4.1959,4.2103,4.2205,4.2246,4.2187,4.2205,4.2228,4.2187,4.2246,4.2228,4.2246,4.2282,4.2323,4.2029,4.1546,4.1007,4.0497,4.0149,4.0036,3.9836,3.9459,3.8999,3.8803,3.859,3.8037,3.7718,3.752,3.741,3.6872,3.6229,3.5784,3.5287,3.4621,3.3794,3.3265,3.2838,3.2111,3.1192,3.035,2.9476,2.8609,2.7313,2.7128,2.7028,2.6927,2.6742,2.6657,2.6624,2.6555,2.6452,2.6365,2.626,2.6189,2.6118,2.601,2.5917,2.5844,2.5754,2.5626,2.5567,2.5355,2.5224,2.5075,2.4775,2.4591,2.4495,2.4173,2.4166,2.4184,2.3631,2.3035,2.2953,2.204,2.148,2.1213,2.0864,2.0329,1.9721,1.9335,1.8934,1.8522,1.8042,1.7716,1.7406,1.7115,1.6735,1.6479,1.625,1.5869,1.5468,1.496,1.471,1.4616,1.4474,1.4298,1.4015,1.3716,1.3409,1.3132,1.2852,1.2548,1.2314,1.2043,1.1783,1.1492,1.1284,1.1108,4.0662,4.0662,4.0918,4.1076,4.1076,4.1169,4.129,4.1328,4.1498,4.1631,4.1736,4.1736,4.1736,4.1736,4.1736,4.1736,4.1736,4.1736,4.1736,4.1797,4.1886,4.1858,4.1687,4.1547,4.1262,4.0713,4.0495,4.0094,3.95,3.9306,3.9112,3.8989,3.839,3.7968,3.788,3.7325,3.6838,3.6422,3.5854,3.5404,3.5035,3.421,3.3419,3.2752,3.1856,3.0903,3.0056,2.966,2.9063,2.8239,2.7712,2.733,2.6722,2.6452,2.6349,2.6295,2.6189,2.6099,2.6026,2.5901,2.5828,2.5717,2.568,2.5621,2.5448,2.5394,2.5278,2.5123,2.4871,2.4719,2.4536,2.4297,2.4173,2.4053,2.3833,2.3581,2.3566,2.3447,2.3299,2.3036,2.2438,2.1772,2.1528,2.0869,2.0371,1.9918,1.9508,1.9071,1.8498,1.7948,1.7631,1.7377,1.6784,1.6416,1.6146,1.582,1.5311,1.4949,1.4446,1.4168,1.4063,1.3951,1.38,1.3552,1.3266,1.2997,1.2792,1.2506,1.2254,1.2004,1.1791,1.1614,1.142,1.12,1.1011,4.0121,4.0121,4.0436,4.0534,4.0583,4.0728,4.0806,4.0901,4.1105,4.1198,4.1244,4.1244,4.129,4.129,4.129,4.129,4.129,4.129,4.129,4.1307,4.1411,4.1411,4.1272,4.1401,4.1182,4.0929,4.0858,4.049,4.0132,3.9625,3.9469,3.9382,3.8668,3.8094,3.7815,3.728,3.6873,3.6385,3.5939,3.5589,3.5368,3.4624,3.3475,3.251,3.1674,3.094,3.007,2.9947,2.9395,2.8681,2.8267,2.7673,2.675,2.6247,2.6026,2.5901,2.5864,2.5733,2.5621,2.553,2.5454,2.5301,2.5301,2.5201,2.5045,2.4966,2.4871,2.4686,2.4467,2.423,2.3987,2.3779,2.3686,2.3615,2.3349,2.3098,2.2994,2.3098,2.3142,2.2905,2.2435,2.2022,2.1583,2.0962,2.047,2.0134,1.9779,1.9318,1.8611,1.8093,1.7743,1.7372,1.6687,1.62,1.5855,1.5395,1.4766,1.4376,1.3971,1.3807,1.377,1.3571,1.3402,1.3184,1.3018,1.2759,1.2525,1.2222,1.2016,1.1935,1.1729,1.1551,1.1316,1.1111,1.0902,3.9573,3.9556,3.9867,3.9969,4.002,4.0288,4.037,4.0436,4.068,4.0776,4.0758,4.0776,4.0776,4.0776,4.0776,4.0776,4.0776,4.0776,4.0776,4.0776,4.0879,4.0909,4.0758,4.0621,4.0681,4.1134,4.1036,4.0908,4.0689,4.0255,3.9829,3.9674,3.8975,3.8408,3.7796,3.7325,3.6911,3.6344,3.5949,3.5698,3.5559,3.4834,3.3755,3.2585,3.1676,3.109,3.0359,3.0044,2.9632,2.885,2.8662,2.802,2.7162,2.6265,2.5751,2.5724,2.5605,2.5394,2.524,2.5162,2.5084,2.4926,2.4871,2.4751,2.4589,2.4508,2.4426,2.4219,2.3994,2.3782,2.3508,2.3304,2.3201,2.3139,2.2841,2.2586,2.2555,2.2632,2.2586,2.2495,2.2225,2.1923,2.1622,2.1172,2.0758,2.0311,1.9978,1.9555,1.8783,1.8172,1.7798,1.7291,1.6586,1.5992,1.5635,1.5326,1.4639,1.4205,1.3713,1.3611,1.3562,1.3417,1.3284,1.3065,1.2878,1.2604,1.2384,1.2158,1.199,1.1888,1.1703,1.1461,1.1218,1.1093,1.0873,3.8969,3.8952,3.9206,3.9435,3.9642,3.9798,3.9884,4.0037,4.0188,4.0221,4.0221,4.0238,4.0221,4.0221,4.0221,4.0221,4.0221,4.0221,4.0238,4.0221,4.0272,4.0238,4.0204,4.0018,4.0068,4.0353,4.0534,4.0631,4.0583,4.0317,4.008,3.9946,3.927,3.8696,3.8221,3.7526,3.6835,3.6337,3.5811,3.5501,3.5191,3.4818,3.4192,3.2919,3.1878,3.0989,3.0406,2.991,2.9406,2.9037,2.8437,2.7968,2.7462,2.6691,2.6174,2.5886,2.5528,2.5234,2.5001,2.4836,2.4677,2.4482,2.4524,2.4379,2.4197,2.4124,2.4043,2.3739,2.3523,2.3304,2.3024,2.2814,2.2718,2.2637,2.2455,2.217,2.1996,2.1983,2.1969,2.1841,2.1746,2.1664,2.1326,2.0983,2.0627,2.0187,1.9912,1.9434,1.8759,1.8201,1.7742,1.7182,1.647,1.5936,1.5429,1.5182,1.4707,1.4337,1.3935,1.3681,1.3563,1.3348,1.3157,1.3022,1.2842,1.2645,1.2399,1.2138,1.1938,1.1853,1.1603,1.1324,1.1134,1.093,1.0678,3.8399,3.8455,3.8678,3.886,3.9023,3.9185,3.9379,3.9534,3.9625,3.9644,3.9644,3.9644,3.9644,3.9644,3.9627,3.9627,3.9644,3.9644,3.9644,3.9644,3.9644,3.9644,3.9627,3.9458,3.9492,3.9662,3.9833,4.007,4.0188,4.0037,3.9935,3.9817,3.9378,3.9008,3.8472,3.7836,3.6935,3.6386,3.5789,3.5295,3.4837,3.4528,3.3872,3.2908,3.1917,3.0943,3.018,2.9469,2.9029,2.8779,2.8436,2.814,2.7705,2.7133,2.6505,2.6178,2.5804,2.5532,2.5333,2.5262,2.5221,2.4955,2.4894,2.4595,2.4282,2.4089,2.3822,2.3319,2.3038,2.2859,2.2678,2.2385,2.2212,2.2147,2.1977,2.1712,2.1458,2.1423,2.1264,2.1104,2.1166,2.1019,2.0723,2.0435,2.0283,2.0042,1.9784,1.9236,1.863,1.8211,1.7717,1.716,1.6461,1.5763,1.5299,1.4991,1.4636,1.4311,1.4038,1.3774,1.3523,1.3259,1.3164,1.3021,1.2869,1.2538,1.2297,1.2003,1.1878,1.1759,1.1465,1.1171,1.0968,1.0737,1.0421,3.7812,3.7943,3.8148,3.8319,3.8472,3.8623,3.8799,3.9029,3.9056,3.9061,3.9044,3.9044,3.9044,3.9098,3.9098,3.9098,3.9098,3.9169,3.9152,3.9152,3.9152,3.9169,3.9082,3.8978,3.8978,3.9098,3.9098,3.9276,3.9661,3.9609,3.9537,3.9398,3.9362,3.9023,3.8338,3.7923,3.7112,3.6501,3.5711,3.5151,3.4397,3.3917,3.3447,3.2678,3.1918,3.1,3.0063,2.9259,2.8743,2.8475,2.8238,2.8057,2.7769,2.7327,2.6847,2.6426,2.6276,2.6032,2.5787,2.5696,2.5422,2.5159,2.5307,2.4914,2.4476,2.4116,2.3829,2.3073,2.289,2.2753,2.2507,2.211,2.1835,2.1616,2.1423,2.1166,2.0921,2.0785,2.0586,2.0536,2.0586,2.0422,2.0067,1.9978,1.9823,1.946,1.9198,1.8881,1.833,1.8074,1.7628,1.7126,1.6458,1.567,1.5139,1.4824,1.4494,1.4053,1.3882,1.3681,1.3401,1.3152,1.3015,1.2852,1.256,1.2281,1.2118,1.1885,1.1707,1.1461,1.1197,1.0933,1.0618,1.0295,0.997,3.7298,3.7373,3.7626,3.786,3.8001,3.81,3.8367,3.8666,3.8537,3.8504,3.8472,3.8488,3.8544,3.8678,3.8788,3.886,3.886,3.8805,3.8788,3.8788,3.8805,3.8788,3.8788,3.8717,3.859,3.8623,3.8544,3.8805,3.9044,3.9061,3.9061,3.9023,3.8805,3.8613,3.8345,3.7773,3.7297,3.6891,3.5679,3.4575,3.3809,3.3471,3.3098,3.2657,3.2019,3.1223,3.016,2.9271,2.8566,2.7996,2.7806,2.7575,2.7306,2.7225,2.6983,2.6556,2.6071,2.5538,2.5449,2.5505,2.5423,2.5209,2.5058,2.4737,2.4439,2.4106,2.3836,2.3733,2.3455,2.3078,2.2592,2.226,2.179,2.1385,2.1103,2.0738,2.0398,2.0283,2.0029,1.9772,1.9759,1.9604,1.9356,1.9356,1.9303,1.8987,1.8625,1.8302,1.7963,1.7611,1.7157,1.661,1.6213,1.5459,1.4943,1.463,1.4248,1.3852,1.3685,1.3517,1.322,1.2926,1.2785,1.2578,1.2261,1.2026,1.182,1.1626,1.1469,1.1149,1.08,1.0491,1.0174,0.9856,0.9578,3.6569,3.6952,3.7089,3.7254,3.7476,3.7594,3.7743,3.7908,3.7876,3.7812,3.7838,3.7976,3.8107,3.8189,3.8246,3.8262,3.8319,3.8303,3.8303,3.8303,3.8303,3.8303,3.8262,3.8189,3.8189,3.8075,3.8049,3.796,3.827,3.8511,3.86,3.8455,3.8286,3.8189,3.8059,3.7598,3.7173,3.6405,3.5244,3.4175,3.3683,3.3128,3.2648,3.2338,3.1659,3.099,3.0271,2.9064,2.8398,2.7862,2.7484,2.6997,2.6841,2.6721,2.6549,2.6361,2.5997,2.5821,2.5945,2.5814,2.5646,2.5563,2.5403,2.519,2.4605,2.3996,2.3634,2.3396,2.32,2.2908,2.2642,2.23,2.1747,2.129,2.0914,2.0386,2.0051,1.9797,1.9577,1.9263,1.8946,1.881,1.8756,1.8721,1.8614,1.8302,1.803,1.7755,1.7279,1.68,1.6348,1.5853,1.5526,1.5148,1.474,1.44,1.3992,1.3647,1.3348,1.3124,1.2915,1.2666,1.2484,1.2158,1.1811,1.1637,1.1567,1.1326,1.1115,1.0758,1.0358,1.011,0.9857,0.9682,0.9417,3.5752,3.6336,3.6538,3.6708,3.6952,3.7013,3.7134,3.7254,3.7254,3.7251,3.7279,3.746,3.7626,3.7727,3.7743,3.7786,3.7801,3.7801,3.7801,3.7801,3.7801,3.7786,3.7786,3.7743,3.7685,3.7567,3.7464,3.7433,3.7433,3.761,3.7844,3.7886,3.7812,3.7653,3.7492,3.7263,3.6877,3.6021,3.48,3.3951,3.3504,3.2671,3.2185,3.1734,3.1268,3.0708,3.0206,2.9268,2.855,2.7671,2.7234,2.673,2.6369,2.6122,2.6028,2.5865,2.5642,2.5642,2.5816,2.5844,2.5988,2.5867,2.5688,2.5108,2.4587,2.3933,2.3568,2.3514,2.3173,2.2971,2.2651,2.2295,2.1767,2.131,2.0907,2.0296,1.9763,1.9709,1.9341,1.8877,1.8525,1.8199,1.8121,1.8041,1.7865,1.7601,1.7379,1.7145,1.6662,1.6063,1.5671,1.5235,1.4893,1.4616,1.43,1.3941,1.3631,1.3363,1.3066,1.276,1.2476,1.2305,1.2138,1.1784,1.1446,1.1381,1.1348,1.1064,1.0759,1.0516,1.0217,0.9808,0.9573,0.9399,0.9089,3.4949,3.5329,3.5958,3.6258,3.6321,3.6461,3.6631,3.6831,3.68,3.6799,3.6874,3.7103,3.7194,3.7254,3.7373,3.7358,3.7417,3.7417,3.7417,3.7417,3.7401,3.7417,3.7373,3.7314,3.7194,3.7134,3.6952,3.6831,3.6708,3.6708,3.7058,3.7342,3.7222,3.7103,3.6982,3.6784,3.6353,3.5613,3.4618,3.3756,3.3075,3.2277,3.1697,3.1377,3.1042,3.063,2.9897,2.9301,2.8613,2.7582,2.713,2.6567,2.6036,2.5744,2.5577,2.5342,2.5174,2.5147,2.5189,2.5412,2.5412,2.5216,2.5048,2.4781,2.4366,2.4288,2.4134,2.3804,2.3328,2.311,2.2732,2.2299,2.1741,2.1235,2.0775,2.0322,1.9894,1.9781,1.9378,1.8669,1.8248,1.801,1.7647,1.7636,1.7355,1.7119,1.6694,1.6513,1.6046,1.5507,1.5108,1.4715,1.4359,1.4001,1.3631,1.3338,1.3136,1.2902,1.264,1.232,1.1992,1.1843,1.1804,1.1521,1.13,1.1229,1.109,1.0879,1.0625,1.0424,1.0105,0.9639,0.924,0.9002,0.8704,3.4399,3.4587,3.5067,3.5509,3.5879,3.5958,3.6163,3.6304,3.6289,3.6336,3.643,3.6646,3.6785,3.6785,3.6785,3.6831,3.6831,3.6831,3.6831,3.6831,3.6831,3.6846,3.6846,3.6769,3.6708,3.6569,3.6445,3.6274,3.6085,3.6037,3.6006,3.6228,3.643,3.6554,3.643,3.6196,3.5809,3.5347,3.4602,3.3774,3.2959,3.2139,3.1412,3.0704,3.051,3.0262,2.9741,2.912,2.845,2.7855,2.7287,2.6599,2.5917,2.5636,2.526,2.4845,2.4691,2.4536,2.4549,2.4765,2.4935,2.4694,2.4478,2.4247,2.3956,2.391,2.3721,2.3471,2.3185,2.283,2.2648,2.2224,2.1693,2.1129,2.0653,2.0239,1.9932,1.973,1.9272,1.8517,1.8213,1.8002,1.7617,1.7253,1.6967,1.6623,1.6185,1.5798,1.5478,1.5093,1.4731,1.4387,1.404,1.3691,1.3375,1.3042,1.2717,1.2515,1.2307,1.2025,1.1761,1.1626,1.1532,1.1309,1.1103,1.0956,1.0822,1.074,1.053,1.0325,0.9873,0.9384,0.9095,0.8774,0.8452,3.3922,3.4005,3.4278,3.4802,3.5379,3.5429,3.5559,3.5718,3.5782,3.5816,3.6006,3.6148,3.6148,3.6226,3.6226,3.6289,3.6289,3.6352,3.6352,3.6352,3.6352,3.6304,3.6289,3.6226,3.6148,3.6006,3.5879,3.5767,3.5589,3.5509,3.5429,3.5429,3.5559,3.5688,3.5831,3.5574,3.5314,3.502,3.4357,3.3608,3.2738,3.1948,3.113,3.0294,2.9993,2.9763,2.9477,2.8976,2.8395,2.7879,2.7353,2.6722,2.6096,2.5528,2.507,2.4662,2.4223,2.4028,2.4015,2.4144,2.4319,2.4073,2.3884,2.3603,2.3378,2.333,2.3125,2.2848,2.2531,2.2334,2.2273,2.1744,2.1362,2.0765,2.0545,2.0144,1.9732,1.9478,1.896,1.8373,1.8165,1.7854,1.7307,1.6907,1.6602,1.6356,1.6074,1.567,1.5241,1.4879,1.4542,1.4167,1.3853,1.3471,1.3154,1.2861,1.2569,1.2428,1.2197,1.1924,1.1613,1.1443,1.1272,1.1032,1.0891,1.0712,1.0563,1.0466,1.0341,1.0199,0.9697,0.915,0.8915,0.8639,0.8384,3.3466,3.3605,3.3813,3.4225,3.4683,3.4883,3.5001,3.5213,3.5279,3.5329,3.5479,3.5464,3.5464,3.5544,3.5703,3.5688,3.5752,3.5894,3.591,3.5894,3.591,3.5831,3.5767,3.5703,3.5623,3.5415,3.5299,3.5264,3.5148,3.5001,3.4868,3.475,3.4802,3.4935,3.5148,3.4898,3.4765,3.461,3.3827,3.3128,3.2334,3.149,3.0693,3.0023,2.9477,2.921,2.8971,2.8729,2.8193,2.7628,2.7357,2.6754,2.6051,2.5318,2.4922,2.4693,2.3888,2.3526,2.339,2.3569,2.3497,2.3437,2.3318,2.3005,2.2702,2.258,2.2519,2.2235,2.1913,2.1714,2.1451,2.1135,2.0771,2.047,2.0158,1.9857,1.948,1.9233,1.871,1.8274,1.7975,1.768,1.7061,1.6567,1.6296,1.6028,1.5808,1.5496,1.5076,1.4667,1.4269,1.3938,1.3599,1.3275,1.2933,1.2691,1.2445,1.2354,1.2058,1.1778,1.1527,1.1391,1.1184,1.0863,1.0646,1.0589,1.0393,1.0185,0.9925,0.9617,0.9335,0.8934,0.8751,0.8447,0.8138,3.2931,3.3072,3.3382,3.3605,3.3799,3.4196,3.4549,3.4831,3.4949,3.4986,3.5052,3.5037,3.5037,3.5103,3.5103,3.5169,3.5184,3.5169,3.5249,3.5249,3.5329,3.5264,3.5184,3.5184,3.5118,3.5001,3.4883,3.4683,3.4467,3.4399,3.4346,3.4157,3.4074,3.4128,3.4332,3.4332,3.4196,3.3991,3.3611,3.3067,3.2123,3.1341,3.0522,2.973,2.9022,2.8617,2.8412,2.8264,2.7827,2.7394,2.7183,2.6791,2.6078,2.5448,2.5154,2.4633,2.3879,2.3331,2.2862,2.2665,2.2653,2.2653,2.2714,2.2396,2.2087,2.2025,2.1839,2.1526,2.1221,2.1019,2.0828,2.0313,1.9966,1.9835,1.9607,1.9267,1.8885,1.8829,1.8558,1.8138,1.7764,1.7302,1.6768,1.623,1.5954,1.5673,1.5411,1.5085,1.4692,1.4353,1.4024,1.3711,1.3388,1.3078,1.2736,1.2535,1.229,1.2123,1.1827,1.154,1.1363,1.1294,1.0979,1.0636,1.0502,1.0443,1.0067,0.9695,0.9316,0.9084,0.8789,0.8637,0.847,0.8161,0.7778,3.1942,3.1928,3.2319,3.2458,3.2666,3.3599,3.421,3.4428,3.4481,3.4549,3.4549,3.4549,3.4534,3.4534,3.4601,3.4587,3.4668,3.4735,3.4735,3.4735,3.4735,3.4735,3.4654,3.4587,3.4534,3.4496,3.4428,3.4278,3.4074,3.4005,3.3799,3.3591,3.3382,3.3368,3.3479,3.3548,3.3563,3.3353,3.3031,3.2624,3.1762,3.0979,3.0228,2.9414,2.8677,2.8053,2.7788,2.7548,2.7377,2.7121,2.6867,2.6684,2.6097,2.5607,2.5274,2.4628,2.3717,2.3113,2.2507,2.1961,2.1937,2.1765,2.1963,2.1839,2.1463,2.1336,2.1146,2.0828,2.0442,2.0313,2.0118,1.9605,1.9341,1.9198,1.8998,1.8654,1.8307,1.824,1.8037,1.7647,1.7304,1.6811,1.6403,1.6009,1.5617,1.528,1.5024,1.4678,1.4361,1.4134,1.3846,1.353,1.324,1.2969,1.2649,1.241,1.2145,1.1925,1.1604,1.1265,1.1181,1.1009,1.0703,1.0449,1.024,1.0019,0.963,0.9251,0.8975,0.866,0.8327,0.825,0.8097,0.7791,0.7407,3.0378,3.0433,3.0773,3.0963,3.1265,3.2885,3.3656,3.3782,3.3768,3.3837,3.3879,3.3837,3.3934,3.4005,3.4074,3.4128,3.4196,3.4346,3.4346,3.4414,3.4414,3.4264,3.4196,3.4142,3.4074,3.3951,3.3882,3.3785,3.3813,3.3591,3.3297,3.3072,3.286,3.2717,3.2704,3.2803,3.2874,3.266,3.2475,3.2064,3.1424,3.0596,2.9787,2.905,2.8249,2.7665,2.733,2.705,2.685,2.6633,2.6358,2.622,2.584,2.5301,2.4993,2.4401,2.3401,2.2787,2.2127,2.1626,2.1152,2.0978,2.1071,2.0944,2.0764,2.0635,2.0442,2.0107,1.9781,1.966,1.9462,1.9065,1.8664,1.8529,1.8327,1.8046,1.7706,1.7501,1.7304,1.7028,1.6682,1.6263,1.585,1.5426,1.5141,1.4783,1.4458,1.4238,1.3971,1.3932,1.3712,1.3386,1.315,1.294,1.257,1.2163,1.1886,1.1633,1.1304,1.0965,1.0881,1.0784,1.0486,1.0204,0.9997,0.9708,0.9436,0.9029,0.8658,0.8344,0.8091,0.791,0.7846,0.7496,0.7103,2.9894,3.0089,3.0433,3.0569,3.0678,3.1417,3.1909,3.2192,3.2407,3.2739,3.3182,3.3197,3.3328,3.3868,3.3965,3.3908,3.3922,3.402,3.402,3.402,3.3937,3.402,3.3951,3.3799,3.366,3.3452,3.3368,3.3213,3.3072,3.3002,3.286,3.2561,3.2359,3.2214,3.2109,3.2104,3.2063,3.2023,3.185,3.1563,3.1069,3.0342,2.9523,2.8776,2.7945,2.7334,2.6754,2.6502,2.6302,2.5955,2.5816,2.5664,2.5264,2.5049,2.4789,2.4026,2.3271,2.2617,2.181,2.1372,2.0885,2.0303,2.0227,2.0183,2.0053,1.9965,1.979,1.9557,1.9297,1.9157,1.8975,1.8624,1.8272,1.8006,1.7868,1.759,1.7241,1.704,1.682,1.6439,1.6078,1.5672,1.5254,1.4864,1.4497,1.4281,1.3992,1.3702,1.3557,1.3477,1.3331,1.3046,1.2753,1.2526,1.215,1.1697,1.1514,1.1254,1.0992,1.0703,1.0553,1.0399,1.0153,0.9917,0.9693,0.9538,0.9332,0.8955,0.8462,0.823,0.7955,0.7791,0.7508,0.7196,0.6769,2.8789,2.8982,2.9241,2.9389,2.9524,2.9859,3.0124,3.0457,3.1218,3.1815,3.2111,3.2058,3.2351,3.2537,3.2593,3.2774,3.2973,3.2959,3.3058,3.3368,3.3409,3.3368,3.3382,3.3312,3.3157,3.3016,3.2931,3.2846,3.2561,3.2431,3.23,3.2082,3.195,3.173,3.1609,3.1527,3.1303,3.1264,3.1224,3.1075,3.0628,3.0054,2.9343,2.8616,2.7792,2.7001,2.6334,2.6128,2.5688,2.5394,2.5312,2.5111,2.4814,2.4636,2.4313,2.3598,2.31,2.2503,2.1804,2.1081,2.0528,1.9967,1.9613,1.95,1.951,1.9417,1.9349,1.9155,1.8923,1.8655,1.8436,1.8225,1.7882,1.7608,1.7394,1.718,1.6893,1.6613,1.6237,1.591,1.5474,1.5049,1.4648,1.4255,1.3928,1.3557,1.3258,1.2886,1.282,1.282,1.2746,1.2526,1.2231,1.2003,1.1632,1.1353,1.1148,1.097,1.0684,1.0379,1.0188,1.0097,0.9925,0.9687,0.9399,0.9222,0.9019,0.866,0.8204,0.8036,0.7725,0.7352,0.7093,0.6914,0.6461,2.7348,2.7509,2.7656,2.8027,2.8158,2.8473,2.8682,2.8709,3.0033,3.077,3.0812,3.0825,3.0976,3.1374,3.1402,3.1528,3.1847,3.1958,3.225,3.2593,3.2652,3.268,3.2761,3.2704,3.266,3.2646,3.2561,3.2359,3.2214,3.2009,3.1803,3.1522,3.136,3.1211,3.0924,3.0966,3.0725,3.0305,3.0279,3.0266,3.0012,2.953,2.8913,2.8387,2.7631,2.682,2.625,2.5744,2.5206,2.4981,2.4754,2.4634,2.4334,2.4032,2.3644,2.3261,2.2754,2.2263,2.1629,2.0956,2.0317,1.9802,1.9393,1.9184,1.9114,1.9114,1.9053,1.8932,1.8614,1.8332,1.8124,1.7888,1.7597,1.7313,1.7093,1.6872,1.6584,1.6204,1.5856,1.546,1.5107,1.4672,1.4298,1.3992,1.3647,1.3103,1.277,1.2485,1.2241,1.2247,1.2081,1.2,1.1793,1.1577,1.1216,1.094,1.0819,1.0585,1.0346,1.0245,1.0078,0.9951,0.9702,0.946,0.9196,0.8888,0.8721,0.8317,0.8002,0.7747,0.741,0.6853,0.6646,0.6552,0.6217,2.6782,2.7146,2.7469,2.7723,2.7868,2.8145,2.8224,2.8224,2.8544,2.9372,3.0083,3.0245,3.0372,3.0662,3.0675,3.0841,3.0979,3.1007,3.1488,3.1764,3.1943,3.2064,3.2307,3.2249,3.2187,3.2096,3.195,3.1803,3.1629,3.1421,3.1286,3.0924,3.0836,3.0609,3.0381,3.0433,3.0099,2.9599,2.9073,2.9279,2.9369,2.9036,2.8635,2.8102,2.7378,2.6697,2.6065,2.5465,2.4891,2.451,2.4212,2.397,2.3593,2.3372,2.3075,2.282,2.2414,2.1977,2.1397,2.0845,2.0277,1.9705,1.9275,1.8986,1.8831,1.8914,1.886,1.868,1.8442,1.8137,1.7875,1.7632,1.7322,1.7095,1.6792,1.6496,1.6267,1.5859,1.5451,1.5081,1.4727,1.4344,1.4033,1.3698,1.3361,1.3142,1.2921,1.2603,1.2089,1.1895,1.1713,1.1569,1.1403,1.1154,1.0831,1.0696,1.0627,1.05,1.0253,1.0126,0.9977,0.9756,0.9592,0.9339,0.9044,0.87,0.8418,0.8163,0.7906,0.7497,0.7046,0.6586,0.6183,0.601,0.5735,2.5782,2.6316,2.6883,2.7255,2.7469,2.7669,2.7815,2.7868,2.7934,2.8371,2.9114,2.9168,2.9358,2.9658,2.9644,2.9956,3.0051,3.0038,3.0351,3.0759,3.1046,3.1246,3.146,3.1586,3.1629,3.1476,3.1272,3.1136,3.0973,3.0823,3.0596,3.0381,3.0305,3.0075,2.9754,2.9661,2.944,2.8961,2.8124,2.816,2.8621,2.8481,2.833,2.7813,2.7275,2.6559,2.582,2.52,2.459,2.4045,2.3689,2.3383,2.3075,2.2777,2.2563,2.2252,2.1983,2.1607,2.1059,2.0622,2.0153,1.9574,1.9125,1.8826,1.86,1.8609,1.8665,1.8492,1.8475,1.816,1.7935,1.7613,1.7378,1.7063,1.6659,1.6341,1.603,1.5541,1.5173,1.4843,1.4388,1.398,1.3703,1.3326,1.2935,1.2508,1.2412,1.2296,1.1894,1.1705,1.1379,1.1222,1.1123,1.0927,1.0718,1.0537,1.0502,1.029,1.0156,0.995,0.98,0.96,0.9362,0.8982,0.8707,0.8428,0.8177,0.7848,0.7499,0.7173,0.6737,0.6225,0.5808,0.5453,0.519,2.4649,2.5373,2.608,2.6616,2.6841,2.7031,2.7271,2.7456,2.759,2.7802,2.8,2.7987,2.8013,2.8079,2.8106,2.8519,2.8772,2.9013,2.9334,2.9709,2.9843,3.0161,3.0437,3.0645,3.0811,3.0904,3.0748,3.0609,3.0444,3.0216,3.0062,2.9908,2.9664,2.9341,2.9172,2.8846,2.853,2.8291,2.782,2.7487,2.7637,2.7846,2.7844,2.7507,2.7069,2.6416,2.5701,2.4991,2.4254,2.3713,2.3216,2.2777,2.2553,2.2262,2.1959,2.1721,2.1492,2.1155,2.0757,2.0225,1.9803,1.9325,1.8942,1.8583,1.8404,1.8293,1.8267,1.818,1.8152,1.8043,1.7721,1.7398,1.7155,1.683,1.6421,1.6003,1.5598,1.5191,1.4846,1.449,1.4102,1.3689,1.3307,1.3002,1.2625,1.2091,1.1816,1.1589,1.1466,1.1393,1.1336,1.1105,1.0985,1.08,1.0557,1.0497,1.0355,1.01,0.9962,0.9734,0.9538,0.9248,0.8928,0.8556,0.8285,0.8017,0.7665,0.7316,0.6966,0.6704,0.6346,0.5897,0.5455,0.5099,0.4746,2.4152,2.4513,2.4888,2.536,2.5883,2.612,2.6509,2.704,2.7108,2.7214,2.7162,2.7268,2.7482,2.8079,2.8079,2.8239,2.8186,2.8279,2.8639,2.9106,2.8913,2.9157,2.9502,2.9757,3.0054,3.0138,3.0177,2.9985,2.9831,2.9586,2.9431,2.9287,2.904,2.8803,2.8669,2.8339,2.8179,2.7753,2.7371,2.7023,2.7092,2.7174,2.7244,2.7024,2.678,2.6337,2.5765,2.4919,2.4304,2.3569,2.2843,2.2305,2.1949,2.1721,2.1415,2.1108,2.0954,2.0644,2.0236,1.9877,1.9481,1.91,1.8698,1.84,1.8117,1.7806,1.7751,1.7429,1.735,1.7277,1.7041,1.6788,1.646,1.5966,1.5553,1.522,1.4887,1.4636,1.4316,1.4011,1.3741,1.3374,1.3092,1.2806,1.2551,1.2122,1.1882,1.1719,1.1348,1.1302,1.1139,1.1043,1.0858,1.0674,1.0402,1.0383,1.0267,0.9991,0.971,0.9402,0.9135,0.8819,0.848,0.8116,0.7672,0.7316,0.7051,0.6694,0.634,0.6077,0.5988,0.5633,0.5099,0.4654,0.4389]},{"header":{"parameterUnit":"m.s-1","parameterCategory":1,"la1":31.0,"la2":29.5877,"lo1":-88.7671,"lo2":-86.6584,"dy":0.0162,"dx":0.0185,"nx":115,"ny":88,"refTime":"2023-09-06T18:00:00:Z","depth":0,"parameterNumber":3,"parameterNumberName":"V-component_of_WINDS"},"data":[0.0,0.0,0.0,0.0,0.0,0.0,0.0,0.0,0.0,0.0,0.0,0.0,0.0,0.0,0.0,0.0,0.0,0.0,0.0,0.0,0.0,0.0,0.0,0.0,0.0,0.0,0.0,0.0,0.0,0.0,0.0,0.0,0.0,0.0,0.0,0.0,0.0,0.0,0.0,0.0,0.0,0.0,0.0,0.0,0.0,0.0,0.0,0.0,0.0,0.0,0.0,0.0,0.0,0.0,0.0,0.0,0.0,0.0,0.0,0.0,0.0,0.0,0.0,0.0,0.0,0.0,0.0,0.0,0.0,0.0,0.0,0.0,0.0,0.0,0.0,0.0,0.0,0.0,0.0,0.0,0.0,0.0,0.0,0.0,0.0,0.0,0.0,0.0,0.0,0.0,0.0,0.0,0.0,0.0,0.0,0.0,0.0,0.0,0.0,0.0,0.0,0.0,0.0,0.0,0.0,0.0,0.0,0.0,0.0,0.0,0.0,0.0,0.0,0.0,0.0,0.0,0.0,0.0,0.0,0.0,0.0,0.0,0.0,0.0,0.0,0.0,0.0,0.0,0.0,0.0,0.0,0.0,0.0,0.0,0.0,0.0,0.0,0.0,0.0,0.0,0.0,0.0,0.0,0.0,0.0,0.0,0.0,0.0,0.0,0.0,0.0,0.0,0.0,0.0,0.0,0.0,0.0,0.0,0.0,0.0,0.0,0.0,0.0,0.0,0.0,0.0,0.0,0.0,0.0,0.0,0.0,0.0,0.0,0.0,0.0,0.0,0.0,0.0,0.0,0.0,0.0,0.0,0.0,0.0,0.0,0.0,0.0,0.0,0.0,0.0,0.0,0.0,0.0,0.0,0.0,0.0,0.0,0.0,0.0,0.0,0.0,0.0,0.0,0.0,0.0,0.0,0.0,0.0,0.0,0.0,0.0,0.0,0.0,0.0,0.0,0.0,0.0,0.0,0.0,0.0,0.0,0.0,0.0,0.0,0.0,0.0,0.0,0.0,0.0,0.0,0.0,0.0,0.0,0.0,0.0,0.0,0.0,0.0,0.0,0.0,0.0,0.0,0.0,0.0,0.0,0.0,0.0,0.0,0.0,0.0,0.0,0.0,0.0,0.0,0.0,0.0,0.0,0.0,0.0,0.0,0.0,0.0,0.0,0.0,0.0,0.0,0.0,0.0,0.0,0.0,0.0,0.0,0.0,0.0,0.0,0.0,0.0,0.0,0.0,0.0,0.0,0.0,0.0,0.0,0.0,0.0,0.0,0.0,0.0,0.0,0.0,0.0,0.0,0.0,0.0,0.0,0.0,0.0,0.0,0.0,0.0,0.0,0.0,0.0,0.0,0.0,0.0,0.0,0.0,0.0,0.0,0.0,0.0,0.0,0.0,0.0,0.0,0.0,0.0,0.0,0.0,0.0,0.0,0.0,0.0,0.0,0.0,0.0,0.0,0.0,0.0,0.0,0.0,0.0,0.0,0.0,0.0,0.0,0.0,0.0,0.0,0.0,0.0,0.0,0.0,0.0,0.0,0.0,0.0,0.0,0.0,0.0,0.0,0.0,0.0,0.0,0.0,0.0,0.0,0.0,0.0,0.0,0.0,0.0,0.0,0.0,0.0,0.0,0.0,0.0,0.0,0.0,0.0,0.0,0.0,0.0,0.0,0.0,0.0,0.0,0.0,0.0,0.0,0.0,0.0,0.0,0.0,0.0,0.0,0.0,0.0,0.0,0.0,0.0,0.0,0.0,0.0,0.0,0.0,0.0,0.0,0.0,0.0,0.0,0.0,0.0,0.0,0.0,0.0,0.0,0.0,0.0,0.0,0.0,0.0,0.0,0.0,0.0,0.0,0.0,0.0,0.0,0.0,0.0,0.0,0.0,0.0,0.0,0.0,0.0,0.0,0.0,0.0,0.0,0.0,0.0,0.0,0.0,0.0,0.0,0.0,0.0,0.0,0.0,0.0,0.0,0.0,0.0,0.0,0.0,0.0,0.0,0.0,0.0,0.0,0.0,0.0,0.0,0.0,0.0,0.0,0.0,0.0,0.0,0.0,0.0,0.0,0.0,0.0,0.0,0.0,0.0,0.0,0.0,0.0,0.0,0.0,0.0,0.0,0.0,0.0,0.0,0.0,0.0,0.0,0.0,0.0,0.0,0.0,0.0,0.0,0.0,0.0,0.0,0.0,0.0,0.0,0.0,0.0,0.0,0.0,0.0,0.0,0.0,0.0,0.0,0.0,0.0,0.0,0.0,0.0,0.0,0.0,0.0,0.0,0.0,0.0,0.0,0.0,0.0,0.0,0.0,0.0,0.0,0.0,0.0,0.0,0.0,0.0,0.0,0.0,0.0,0.0,0.0,0.0,0.0,0.0,0.0,0.0,0.0,0.0,0.0,0.0,0.0,0.0,0.0,0.0,0.0,0.0,0.0,0.0,0.0,0.0,0.0,0.0,0.0,0.0,0.0,0.0,0.0,0.0,0.0,0.0,0.0,0.0,0.0,0.0,0.0,0.0,0.0,0.0,0.0,0.0,0.0,0.0,0.0,0.0,0.0,0.0,0.0,0.0,0.0,0.0,0.0,0.0,0.0,0.0,0.0,0.0,0.0,0.0,0.0,0.0,0.0,0.0,0.0,0.0,0.0,0.0,0.0,0.0,0.0,0.0,0.0,0.0,0.0,0.0,0.0,0.0,0.0,0.0,0.0,0.0,0.0,0.0,0.0,0.0,0.0,0.0,0.0,0.0,0.0,0.0,0.0,0.0,0.0,0.0,0.0,0.0,0.0,0.0,0.0,0.0,0.0,0.0,0.0,0.0,0.0,0.0,0.0,0.0,0.0,0.0,0.0,0.0,0.0,0.0,0.0,0.0,0.0,0.0,0.0,0.0,0.0,0.0,0.0,0.0,0.0,0.0,0.0,0.0,0.0,0.0,0.0,0.0,0.0,0.0,0.0,0.0,0.0,0.0,0.0,0.0,0.0,0.0,0.0,0.0,0.0,0.0,0.0,0.0,0.0,0.0,0.0,0.0,0.0,0.0,0.0,0.0,0.0,0.0,0.0,0.0,0.0,0.0,0.0,0.0,0.0,0.0,0.0,0.0,0.0,0.0,0.0,0.0,0.0,0.0,0.0,0.0,0.0,0.0,0.0,0.0,0.0,0.0,0.0,0.0,0.0,0.0,0.0,0.0,0.0,0.0,0.0,0.0,0.0,0.0,0.0,0.0,0.0,0.0,0.0,0.0,0.0,0.0,0.0,0.0,0.0,0.0,0.0,0.0,0.0,0.0,0.0,0.0,0.0,0.0,0.0,0.0,0.0,0.0,0.0,0.0,0.0,0.0,0.0,0.0,0.0,0.0,0.0,0.0,0.0,0.0,0.0,0.0,0.0,0.0,0.0,0.0,0.0,0.0,0.0,0.0,0.0,0.0,0.0,0.0,0.0,0.0,0.0,0.0,0.0,0.0,0.0,0.0,0.0,0.0,0.0,0.0,0.0,0.0,0.0,0.0,0.0,0.0,0.0,0.0,0.0,0.0,0.0,0.0,0.0,0.0,0.0,0.0,0.0,0.0,0.0,0.0,0.0,0.0,0.0,0.0,0.0,0.0,0.0,0.0,0.0,0.0,0.0,0.0,0.0,0.0,0.0,0.0,0.0,0.0,0.0,0.0,0.0,0.0,0.0,0.0,0.0,0.0,0.0,0.0,0.0,0.0,0.0,0.0,0.0,0.0,0.0,0.0,0.0,0.0,0.0,0.0,0.0,0.0,0.0,0.0,0.0,0.0,0.0,0.0,0.0,0.0,0.0,0.0,0.0,0.0,0.0,0.0,0.0,0.0,0.0,0.0,0.0,0.0,0.0,0.0,0.0,0.0,0.0,0.0,0.0,0.0,0.0,0.0,0.0,0.0,0.0,0.0,0.0,0.0,0.0,0.0,0.0,0.0,0.0,0.0,0.0,0.0,0.0,0.0,0.0,0.0,0.0,0.0,0.0,0.0,0.0,0.0,0.0,0.0,0.0,0.0,0.0,0.0,0.0,0.0,0.0,0.0,0.0,0.0,0.0,0.0,0.0,0.0,0.0,0.0,0.0,0.0,0.0,0.0,0.0,0.0,0.0,0.0,0.0,0.0,0.0,0.0,0.0,0.0,0.0,0.0,0.0,0.0,0.0,0.0,0.0,0.0,0.0,0.0,0.0,0.0,0.0,0.0,0.0,0.0,0.0,0.0,0.0,0.0,0.0,0.0,0.0,0.0,0.0,0.0,0.0,0.0,0.0,-0.0628,0.0,0.0,0.0,0.0,0.0,0.0,0.0,0.0,0.0,0.0,0.0,0.0,0.0,0.0,0.0,0.0,0.0,0.0,0.0,0.0,0.0,0.0,0.0,0.0,0.0,0.0,0.0,0.0,0.0,0.0,0.0,0.0,0.0,0.0,0.0,0.0,0.0,0.0,0.0,0.0,0.0,0.0,0.0,0.0,0.0,0.0,0.0,0.0,0.0,0.0,0.0,0.0,0.0,0.0,0.0,0.0,0.0,0.0,0.0,0.0,0.0,0.0,0.0,0.0,0.0,0.0,0.0,0.0,0.0,0.0,0.0,0.0,0.0,0.0,0.0,0.0,0.0,0.0,0.0,0.0,0.0,0.0,0.0,0.0,0.0,0.0,0.0,0.0,0.0,0.0,0.0,0.0,0.0,0.0,0.0,0.0,0.0,0.0,0.0,0.0,0.0,0.0,0.0,0.0,0.0,0.0,0.0,0.0,0.0,0.0,-0.0212,-0.0678,-0.0721,-0.0678,-0.0678,0.0,0.0,0.0,0.0,0.0,0.0,0.0,0.0,0.0,0.0,0.0,0.0,0.0,0.0,0.0,0.0,0.0,0.0,0.0,0.0,0.0,0.0,0.0,0.0,0.0,0.0,0.0,0.0,0.0,0.0,0.0,0.0,0.0,0.0,0.0,0.0,0.0,0.0,0.0,0.0,0.0,0.0,0.0,0.0,0.0,0.0,0.0,0.0,0.0,0.0,0.0,0.0,0.0,0.0,0.0,0.0,0.0,0.0,0.0,0.0,0.0,0.0,0.0,0.0,0.0,0.0,0.0,0.0,0.0,0.0,0.0,0.0,0.0,0.0,0.0,0.0,0.0,0.0,0.0,0.0,0.0,0.0,0.0,0.0,0.0,0.0,0.0,0.0,0.0,0.0,0.0,0.0,0.0,0.0,0.0,0.0,0.0,0.0,0.0,0.0,0.0,0.0,0.0,0.0,0.0,0.0,0.0,0.0,0.0,0.0,0.0,0.0,-0.0539,-0.0584,-0.0674,0.0,0.0,0.0,0.0,0.0,0.0,0.0,0.0,0.0,0.0,0.0,0.0,0.0,0.0,0.0,0.0,0.0,0.0,0.0,0.0,0.0,0.0,0.0,0.0,0.0,0.0,0.0,0.0,0.0,0.0,0.0,0.0,0.0,0.0,0.0,0.0,0.0,0.0,0.0,0.0,0.0,0.0,0.0,0.0,0.0,0.0,0.0,0.0,0.0,0.0,0.0,0.0,0.0,0.0,0.0,0.0,0.0,0.0,0.0,0.0,0.0,0.0,0.0,0.0,0.0,0.0,0.0,0.0,0.0,0.0,0.0,0.0,0.0,0.0,0.0,0.0,0.0,0.0,0.0,0.0,0.0,0.0,0.0,0.0,0.0,0.0,0.0,0.0,0.0,0.0,0.0,0.0,0.0,0.0,0.0,0.0,0.0,0.0,0.0,0.0,0.0,0.0,0.0,0.0,0.0,0.0,0.0,0.0,0.0,0.0,0.0225,-0.0045,-0.0045,0.0,-0.0674,0.0,0.0,0.0,0.0,0.0,0.0,0.0,0.0,0.0,0.0,0.0,0.0,0.0,0.0,0.0,0.0,0.0,0.0,0.0,0.0,0.0,0.0,0.0,0.0,0.0,0.0,0.0,0.0,0.0,0.0,0.0,0.0,0.0,0.0,0.0,0.0,0.0,0.0,0.0,0.0,0.0,0.0,0.0,0.0,0.0,0.0,0.0,0.0,0.0,0.0,0.0,0.0,0.0,0.0,0.0,0.0,0.0,0.0,0.0,0.0,0.0,0.0,0.0,0.0,0.0,0.0,0.0,0.0,0.0,0.0,0.0,0.0,0.0,0.0,0.0,0.0,0.0,0.0,0.0,0.0,0.0,0.0,0.0,0.0,0.0,0.0,0.0,0.0,0.0,0.0,0.0,0.0,0.0,0.0,0.0,0.0,0.0,0.0,0.0,0.0,0.0,0.0,0.0,0.0,0.0,0.0,0.0,0.0,0.0,0.0,0.0539,0.0405,0.0135,-0.009,0.0,0.0,0.0,0.0,0.0,0.0,0.0,0.0,0.0,0.0,0.0,0.0,0.0,0.0,0.0,0.0,0.0,0.0,0.0,0.0,0.0,0.0,0.0,0.0,0.0,0.0,0.0,0.0,0.0,0.0,0.0,0.0,0.0,0.0,0.0,0.0,0.0,0.0,0.0,0.0,0.0,0.0,0.0,0.0,0.0,0.0,0.0,0.0,0.0,0.0,0.0,0.0,0.0,0.0,0.0,0.0,0.0,0.0,0.0,0.0,0.0,0.0,0.0,0.0,0.0,0.0,0.0,0.0,0.0,0.0,0.0,0.0,0.0,0.0,0.0,0.0,0.0,0.0,0.0,0.0,0.0,0.0,0.0,0.0,0.0,0.0,0.0,0.0,0.0,0.0,0.0,0.0,0.0,0.0,0.0,0.0,0.0,0.0,0.0,0.0,0.0,0.0,0.0,0.0,0.0,0.0,0.0,0.0,0.0,0.0,0.0719,0.0719,0.0674,0.0225,0.0,0.0,0.0,0.0,0.0,0.0,0.0,0.0,0.0,0.0,0.0,0.0,0.0,0.0,0.0,0.0,0.0,0.0,0.0,0.0,0.0,0.0,0.0,0.0,0.0,0.0,0.0,0.0,0.0,0.0,0.0,0.0,0.0,0.0,0.0,0.0,0.0,0.0,0.0,0.0,0.0,0.0,0.0,0.0,0.0,0.0,0.0,0.0,0.0,0.0,0.0,0.0,0.0,0.0,0.0,0.0,0.0,0.0,0.0,0.0,0.0,0.0,0.0,0.0,0.0,0.0,0.0,0.0,0.0,0.0,0.0,0.0,0.0,0.0,0.0,0.0,0.0,0.0,0.0,0.0,0.0,0.0,0.0,0.0,0.0,0.0,0.0,0.0,0.0,0.0,0.0,0.0,0.0,0.0,0.0,0.0,0.0,0.0,0.0,0.0,0.0,0.0,0.0,0.0,0.0,0.0,0.0,0.0,0.0,0.0,0.0719,0.0719,0.0719,0.0719,0.027,0.0,0.0,0.0,0.0,0.0,0.0,0.0,0.0,0.0,0.0,0.0,0.0,0.0,0.0,0.0,0.0,0.0,0.0,0.0,0.0,0.0,0.0,0.0,0.0,0.0,0.0,0.0,0.0,0.0,0.0,0.0,0.0,0.0,0.0,0.0,0.0,0.0,0.0,0.0,0.0,0.0,0.0,0.0,0.0,0.0,0.0,0.0,0.0,0.0,0.0,0.0,0.0,0.0,0.0,0.0,0.0,0.0,0.0,0.0,0.0,0.0,0.0,0.0,0.0,0.0,0.0,0.0,0.0,0.0,0.0,0.0,0.0,0.0,0.0,0.0,0.0,0.0,0.0,0.0,0.0,0.0,0.0,0.0,0.0,0.0,0.0,0.0,0.0,0.0,0.0,0.0,0.0,0.0,0.0,0.0,0.0,0.0,0.0,0.0,0.0,0.0,0.0,0.0,0.0,0.0,0.0,0.0,0.0,0.0,0.0,0.0719,0.0719,0.0719,0.0674,0.0405,0.018,0.0,0.0,0.0,0.0,0.0,0.0,0.0,0.0,0.0,0.0,0.0,0.0,0.0,0.0,0.0,0.0,0.0,0.0,0.0,0.0,0.0,0.0,0.0,0.0,0.0,0.0,0.0,0.0,0.0,0.0,0.0,0.0,0.0,0.0,0.0,0.0,0.0,0.0,0.0,0.0,0.0,0.0,0.0,0.0,0.0,0.0,0.0,0.0,0.0,0.0,0.0,0.0,0.0,0.0,0.0,0.0,0.0,0.0,0.0,0.0,0.0,0.0,0.0,0.0,0.0,0.0,0.0,0.0,0.0,0.0,0.0,0.0,0.0,0.0,0.0,0.0,0.0,0.0,0.0,0.0,0.0,0.0,0.0,0.0,0.0,0.0,0.0,0.0,0.0,0.0,0.0,0.0,0.0,0.0,0.0,0.0,0.0,0.0,0.0,0.0,0.0,0.0,0.0,0.0,0.0,0.0,0.0,0.0,0.0,0.0719,0.0,0.0719,0.0719,0.0584,0.036,0.0,0.0,0.0,0.0,0.0,0.0,0.0,0.0,0.0,0.0,0.0,0.0,0.0,0.0,0.0,0.0,0.0,0.0,0.0,0.0,0.0,0.0,0.0,0.0,0.0,0.0,0.0,0.0,0.0,0.0,0.0,0.0,0.0,0.0,0.0,0.0,0.0,0.0,0.0,0.0,0.0,0.0,0.0,0.0,0.0,0.0,0.0,0.0,0.0,0.0,0.0,0.0,0.0,0.0,0.0,0.0,0.0,0.0,0.0,0.0,0.0,0.0,0.0,0.0,0.0,0.0,0.0,0.0,0.0,0.0,0.0,0.0,0.0,0.0,0.0,0.0,0.0,0.0,0.0,0.0,0.0,0.0,0.0,0.0,0.0,0.0,0.0,0.0,0.0,0.0,0.0,0.0,0.0,0.0,0.0,0.0,0.0,0.0,0.0,0.0,0.0,0.0,0.0,0.0,0.0,0.0,0.0,0.0,0.072,0.0719,0.072,0.0722,0.072,0.0676,0.0495,0.0,0.0,0.0,0.0,0.0,0.0,0.0,0.0,0.0,0.0,0.0,0.0,0.0,0.0,0.0,0.0,0.0,0.0,0.0,0.0,0.0,0.0,0.0,0.0,0.0,0.0,0.0,0.0,0.0,0.0,0.0,0.0,0.0,0.0,0.0,0.0,0.0,0.0,0.0,0.0,0.0,0.0,0.0,0.0,0.0,0.0,0.0,0.0,0.0,0.0,0.0,0.0,0.0,0.0,0.0,0.0,0.0,0.0,0.0,0.0,0.0,0.0,0.0,0.0,0.0,0.0,0.0,0.0,0.0,0.0,0.0,0.0,0.0,0.0,0.0,0.0,0.0,0.0,0.0,0.0,0.0,0.0,0.0,0.0,0.0,0.0,0.0,0.0,0.0,0.0,0.0,0.0,0.0,0.0,0.0,0.0,0.0,0.0,0.0,0.0,0.0,0.0,0.0,0.0,0.0,0.0,0.0,0.0,0.0,0.072,0.0694,0.0704,0.0704,0.0704,0.0609,0.0,0.0,0.0,0.0,0.0,0.0,0.0,0.0,0.0,0.0,0.0,0.0,0.0,0.0,0.0,0.0,0.0,0.0,0.0,0.0,0.0,0.0,0.0,0.0,0.0,0.0,0.0,0.0,0.0,0.0,0.0,0.0,0.0,0.0,0.0,0.0,0.0,0.0,0.0,0.0,0.0,0.0,0.0,0.0,0.0,0.0,0.0,0.0,0.0,0.0,0.0,0.0,0.0,0.0,0.0,0.0,0.0,0.0,0.0,0.0,0.0,0.0,0.0,0.0,0.0,0.0,0.0,0.0,0.0,0.0,0.0,0.0,0.0,0.0,0.0,0.0,0.0,0.0,0.0,0.0,0.0,0.0,0.0,0.0,0.0,0.0,0.0,0.0,0.0,0.0,0.0,0.0,0.0,0.0,0.0,0.0,0.0,0.0,0.0,0.0,0.0,0.0,0.0,0.0,0.0,0.0,0.0,0.0,0.0,0.0721,0.0631,0.0585,0.0585,0.0682,0.0732,0.0731,0.0,0.0,0.0,0.0,0.0,0.0,0.0,0.0,0.0,0.0,0.0,0.0,0.0,0.0,0.0,0.0,0.0,0.0,0.0,0.0,0.0,0.0,0.0,0.0,0.0,0.0,0.0,0.0,0.0,0.0,0.0,0.0,0.0,0.0,0.0,0.0,0.0,0.0,0.0,0.0,0.0,0.0,0.0,0.0,0.0,0.0,0.0,0.0,0.0,0.0,0.0,0.0,0.0,0.0,0.0,0.0,0.0,0.0,0.0,0.0,0.0,0.0,0.0,0.0,0.0,0.0,0.0,0.0,0.0,0.0,0.0,0.0,0.0,0.0,0.0,0.0,0.0,0.0,0.0,0.0,0.0,0.0,0.0,0.0,0.0,0.0,0.0,0.0,0.0,0.0,0.0,0.0,0.0,0.0,0.0,0.0,0.0,0.0,0.0,0.0,0.0,0.0,0.0,0.0,0.0,0.0,0.0,0.0,0.0694,0.0519,0.0409,0.0356,0.0661,0.0811,0.0,0.0,0.0,0.0,0.0,0.0,0.0,0.0,0.0,0.0,0.0,0.0,0.0,0.0,0.0,0.0,0.0,0.0,0.0,0.0,0.0,0.0,0.0,0.0,0.0,0.0,0.0,0.0,0.0,0.0,0.0,0.0,0.0,0.0,0.0,0.0,0.0,0.0,0.0,0.0,0.0,0.0,0.0,0.0,0.0,0.0,0.0,0.0,0.0,0.0,0.0,0.0,0.0,0.0,0.0,0.0,0.0,0.0,0.0,0.0,0.0,0.0,0.0,0.0,0.0,0.0,0.0,0.0,0.0,0.0,0.0,0.0,0.0,0.0,0.0,0.0,0.0,0.0,0.0,0.0,0.0,0.0,0.0,0.0,0.0,0.0,0.0,0.0,0.0,0.0,0.0,0.0,0.0,0.0,0.0,0.0,0.0,0.0,0.0,0.0,0.0,0.0,0.0,0.0,0.0,0.0,0.0,0.0,0.0,0.0719,0.0633,0.0465,0.0113,0.0387,0.06,0.0,0.0,0.0,0.0,0.0,0.0,0.0,0.0,0.0,0.0,0.0,0.0,0.0,0.0,0.0,0.0,0.0,0.0,0.0,0.0,0.0,0.0,0.0,0.0,0.0,0.0,0.0,0.0,0.0,0.0,0.0,0.0,0.0,0.0,0.0,0.0,0.0,0.0,0.0,0.0,0.0,0.0,0.0,0.0,0.0,0.0,0.0,0.0,0.0,0.0,0.0,0.0,0.0,0.0,0.0,0.0,0.0,0.0,0.0,0.0,0.0,0.0,0.0,0.0,0.0,0.0,0.0,0.0,0.0,0.0,0.0,0.0,0.0,0.0,0.0,0.0,0.0,0.0,0.0,0.0,0.0,0.0,0.0,0.0,0.0,0.0,0.0,0.0,0.0,0.0,0.0,0.0,0.0,0.0,0.0,0.0,0.0,0.0,0.0,0.0,0.0,0.0,0.0,0.0,0.0,0.0,0.0,0.0,0.0505,0.0715,0.0501,0.0448,0.0445,0.0422,0.0581,0.0,0.0,0.0,0.0,0.0,0.0,0.0,0.0,0.0,0.0,0.0,0.0,0.0,0.0,0.0,0.0,0.0,0.0,0.0,0.0,0.0,0.0,0.0,0.0,0.0,0.0,0.0,0.0,0.0,0.0,0.0,0.0,0.0,0.0,0.0,0.0,0.0,0.0,0.0,0.0,0.0,0.0,0.0,0.0,0.0,0.0,0.0,0.0,0.0,0.0,0.0,0.0,0.0,0.0,0.0,0.0,0.0,0.0,0.0,0.0,0.0,0.0,0.0,0.0,0.0,0.0,0.0,0.0,0.0,0.0,0.0,0.0,0.0,0.0,0.0,0.0,0.0,0.0,0.0,0.0,0.0,0.0,0.0,0.0,0.0,0.0,0.0,0.0,0.0,0.0,0.0,0.0,0.0,0.0,0.0,0.0,0.0,0.0,0.0,0.0,0.0,0.0,0.0,0.0,0.0,0.0,0.0,0.0,0.0531,0.0774,0.0266,0.0342,0.1117,0.0716,0.0614,0.0,0.0,0.0,0.0,0.0,0.0,0.0,0.0,0.0,0.0,0.0,0.0,0.0,0.0,0.0,0.0,0.0,0.0,0.0,0.0,0.0,0.0,0.0,0.0,0.0,0.0,0.0,0.0,0.0,0.0,0.0,0.0,0.0,0.0,0.0,0.0,0.0,0.0,0.0,0.0,0.0,0.0,0.0,0.0,0.0,0.0,0.0,0.0,0.0,0.0,0.0,0.0,0.0,0.0,0.0,0.0,0.0,0.0,0.0,0.0,0.0,0.0,0.0,0.0,0.0,0.0,0.0,0.0,0.0,0.0,0.0,0.0,0.0,0.0,0.0,0.0,0.0,0.0,0.0,0.0,0.0,0.0,0.0,0.0,0.0,0.0,0.0,0.0,0.0,0.0,0.0,0.0,0.0,0.0,0.0,0.0,0.0,0.0,0.0,0.0,0.0,0.0,0.0,0.0,0.0,0.0,0.0,0.0,0.0664,0.1161,0.0406,0.0488,0.1541,0.0878,0.0711,0.0,0.0,0.0,0.0,0.0,0.0,0.0,0.0,0.0,0.0,0.0,0.0,0.0,0.0,0.0,0.0,0.0,0.0,0.0,0.0,0.0,0.0,0.0,0.0,0.0,0.0,0.0,0.0,0.0,0.0,0.0,0.0,0.0,0.0,0.0,0.0,0.0,0.0,0.0,0.0,0.0,0.0,0.0,0.0,0.0,0.0,0.0,0.0,-0.4335,0.0,0.0,0.0,0.0,0.0,0.0,0.0,0.0,0.0,0.0,0.0,0.0,0.0,0.0,0.0,0.0,0.0,0.0,0.0,0.0,0.0,0.0,0.0,0.0,0.0,0.0,0.0,0.0,0.0,0.0,0.0,0.0,0.0,0.0,0.0,0.0,0.0,0.0,0.0,0.0,0.0,0.0,0.0,0.0,0.0,0.0,0.0,0.0,0.0,0.0,0.0,0.0,0.0,0.0,0.0,0.0,0.0,0.0,0.0,0.074,0.1162,0.0818,0.1051,0.1893,0.1661,0.153,0.0,0.0,0.0,0.0,0.0,0.0,0.0,0.0,0.0,0.0,0.0,0.0,0.0,0.0,0.0,0.0,0.0,0.0,0.0,0.0,0.0,0.0,0.0,0.0,0.0,0.0,0.0,0.0,0.0,0.0,0.0,0.0,0.0,0.0,0.0,0.0,0.0,0.0,0.0,0.0,0.0,0.0,0.0,0.0,0.0,0.0,0.0,0.0,0.0,0.0,0.0,0.0,0.0,0.0,0.0,0.0,0.0,0.0,0.0,0.0,0.0,0.0,0.0,0.0,0.0,0.0,0.0,0.0,0.0,0.0,0.0,0.0,0.0,0.0,0.0,0.0,0.0,0.0,0.0,0.0,0.0,0.0,0.0,0.0,0.0,0.0,0.0,0.0,0.0,0.0,0.0,0.0,0.0,0.0,0.0,0.0,0.0,0.0,0.0,0.0,0.0,0.0,0.0,0.0,0.0,0.0,0.0,0.0768,0.0877,0.1163,0.1364,0.1753,0.2174,0.2515,0.242,0.1799,0.0,0.0,0.0,0.0,0.0,0.0,0.0,0.0,0.0,0.0,0.0,0.0,0.0,0.0,0.0,0.0,0.0,0.0,0.0,0.0,0.0,0.0,0.0,0.0,0.0,0.0,0.0,0.0,0.0,0.0,0.0,0.0,0.0,0.0,0.0,0.0,0.0,0.0,-0.3905,-0.4619,0.0,0.0,0.0,0.0,0.0,0.0,0.0,0.0,-0.4844,0.0,0.0,0.0,0.0,0.0,0.0,0.0,0.0,0.0,0.0,0.0,0.0,0.0,0.0,0.0,0.0,0.0,0.0,0.0,0.0,0.0,0.0,0.0,0.0,0.0,0.0,0.0,0.0,0.0,0.0,0.0,0.0,0.0,0.0,0.0,0.0,0.0,0.0,0.0,0.0,0.0,0.0,0.0,0.0,0.0,0.0,0.0,0.0,0.0,0.0,0.0,0.0,0.0,0.0,0.0,0.0,0.089,0.0955,0.1066,0.1357,0.2048,0.2385,0.2244,0.254,0.2569,0.2356,0.0,0.0,0.0,0.0,0.0,0.0,0.0,0.0,0.0,0.0,0.0,0.0,0.0,0.0,0.0,0.0,0.0,0.0,0.0,0.0,0.0,0.0,0.0,0.0,0.0,0.0,0.0,0.0,0.0,0.0,0.0,0.0,0.0,0.0,0.0,0.0,0.0,0.0,0.0,-0.5368,-0.5763,0.0,0.0,0.0,0.0,0.0,0.0,0.0,0.0,-0.5519,0.0,0.0,0.0,0.0,0.0,0.0,0.0,0.0,0.0,0.0,0.0,0.0,0.0,0.0,0.0,0.0,0.0,0.0,0.0,0.0,0.0,0.0,0.0,0.0,0.0,0.0,0.0,0.0,0.0,0.0,0.0,0.0,0.0,0.0,0.0,0.0,0.0,0.0,0.0,0.0,0.0,0.0,0.0,0.0,0.0,0.0,0.0,0.0,0.0,0.0,0.0,0.0,0.0,0.0,0.0,0.1009,0.1119,0.1347,0.164,0.2172,0.2487,0.2551,0.2716,0.2755,0.0,0.0,0.0,0.0,0.0,0.0,0.0,0.0,0.0,0.0,0.0,0.0,0.0,0.0,0.0,0.0,0.0,0.0,0.0,0.0,0.0,0.0,0.0,0.0,0.0,0.0,0.0,0.0,0.0,0.0,0.0,0.0,0.0,0.0,0.0,0.0,0.0,0.0,0.0,0.0,-0.58,-0.6141,-0.6319,0.0,0.0,0.0,0.0,0.0,0.0,-0.5852,-0.5847,0.0,0.0,0.0,0.0,0.0,0.0,0.0,0.0,0.0,0.0,0.0,0.0,0.0,0.0,0.0,0.0,0.0,0.0,0.0,0.0,0.0,0.0,0.0,0.0,0.0,0.0,0.0,0.0,0.0,0.0,0.0,0.0,0.0,0.0,0.0,0.0,0.0,0.0,0.0,0.0,0.0,0.0,0.0,0.0,0.0,0.0,0.0,0.0,0.0,0.0,0.0,0.0,0.0,0.0,0.0,0.1233,0.1325,0.154,0.1831,0.2076,0.2362,0.2744,0.292,0.2845,0.0,0.0,0.0,0.0,0.0,0.0,0.0,0.0,0.0,0.0,0.0,0.0,0.0,0.0,0.0,0.0,0.0,0.0,0.0,0.0,0.0,0.0,0.0,0.0,0.0,0.0,0.0,0.0,0.0,0.0,0.0,0.0,0.0,0.0,0.0,0.0,0.0,0.0,0.0,0.0,0.0,-0.655,-0.6661,-0.6662,0.0,0.0,0.0,0.0,-0.6255,-0.6171,0.0,0.0,0.0,0.0,0.0,0.0,0.0,0.0,0.0,0.0,0.0,0.0,0.0,0.0,0.0,0.0,0.0,0.0,0.0,0.0,0.0,0.0,0.0,0.0,0.0,0.0,0.0,0.0,0.0,0.0,0.0,0.0,0.0,0.0,0.0,0.0,0.0,0.0,0.0,0.0,0.0,0.0,0.0,0.0,0.0,0.0,0.0,0.0,0.0,0.0,0.0,0.0,0.0,0.0,0.0,0.0,0.1569,0.1409,0.1547,0.1891,0.2135,0.2356,0.2727,0.2779,0.2789,0.0,0.0,0.0,0.0,0.0,0.0,0.0,0.0,0.0,0.0,0.0,0.0,0.0,0.0,0.0,0.0,0.0,0.0,0.0,0.0,0.0,0.0,0.0,0.0,0.0,0.0,0.0,0.0,0.0,0.0,0.0,0.0,0.0,0.0,0.0,0.0,0.0,0.0,0.0,0.0,0.0,-0.7281,-0.7199,-0.7413,-0.748,0.0,0.0,-0.7191,-0.7062,-0.6764,0.0,0.0,0.0,0.0,0.0,0.0,0.0,0.0,0.0,0.0,0.0,0.0,0.0,0.0,0.0,0.0,0.0,0.0,0.0,0.0,0.0,0.0,0.0,0.0,0.0,0.0,0.0,0.0,0.0,0.0,0.0,0.0,0.0,0.0,0.0,0.0,0.0,0.0,0.0,0.0,0.0,0.0,0.0,0.0,0.0,0.0,0.0,0.0,0.0,0.0,0.0,0.0,0.0,0.0,0.0,0.1653,0.157,0.1628,0.1769,0.2056,0.2206,0.2464,0.2825,0.273,0.2627,0.0,0.0,0.0,0.0,0.0,0.0,0.0,0.0,0.0,0.0,0.0,0.0,0.0,0.0,0.0,0.0,0.0,0.0,0.0,0.0,0.0,0.0,0.0,0.0,0.0,0.0,0.0,0.0,0.0,0.0,0.0,0.0,0.0,0.0,0.0,0.0,0.0,0.0,0.0,0.0,0.0,0.0,-0.7755,-0.7883,0.0,0.0,0.0,-0.7576,-0.7535,0.0,0.0,0.0,0.0,0.0,0.0,0.0,0.0,0.0,0.0,0.0,0.0,0.0,0.0,0.0,0.0,0.0,0.0,0.0,0.0,0.0,0.0,0.0,0.0,0.0,0.0,0.0,0.0,0.0,0.0,0.0,0.0,0.0,0.0,0.0,0.0,0.0,0.0,0.0,0.0,0.0,0.0,0.0,0.0,0.0,0.0,0.0,0.0,0.0,0.0,0.0,0.0,0.0,0.0,0.0,0.0,0.0,0.1628,0.1741,0.1931,0.2147,0.2267,0.2443,0.2791,0.2617,0.0,0.0,0.0,0.0,0.0,0.0,0.0,0.0,0.0,0.0,0.0,0.0,0.0,0.0,0.0,0.0,0.0,0.0,0.0,0.0,0.0,0.0,0.0,0.0,0.0,0.0,0.0,-0.3948,0.0,0.0,0.0,0.0,0.0,0.0,0.0,0.0,0.0,0.0,0.0,0.0,0.0,0.0,-0.8096,-0.829,-0.8387,-0.8491,0.0,0.0,-0.8088,-0.8088,-0.7937,-0.7669,0.0,0.0,0.0,0.0,0.0,0.0,0.0,0.0,0.0,0.0,0.0,0.0,0.0,0.0,0.0,0.0,0.0,0.0,0.0,0.0,0.0,0.0,0.0,0.0,0.0,0.0,0.0,0.0,0.0,0.0,0.0,0.0,0.0,0.0,0.0,0.0,0.0,0.0,0.0,0.0,0.0,0.0,0.0,0.0,0.0,0.0,0.0,0.0,0.0,0.0,0.0,0.0,0.0,0.0,0.1797,0.1797,0.1797,0.1853,0.2023,0.2021,0.2135,0.2417,0.2305,0.2077,0.0,0.0,0.0,0.0,0.0,0.0,0.0,0.0,0.0,0.0,0.0,0.0,0.0,0.0,0.0,0.0,0.0,0.0,0.0,0.0,0.0,0.0,0.0,0.0,0.0,0.0,0.0,0.0,0.0,0.0,0.0,0.0,0.0,0.0,0.0,0.0,0.0,0.0,0.0,0.0,0.0,-0.9004,-0.8969,-0.9068,-0.92,0.0,-0.9096,-0.8894,-0.8894,-0.8504,-0.8167,-0.8097,0.0,0.0,0.0,0.0,0.0,0.0,0.0,0.0,0.0,0.0,0.0,0.0,0.0,0.0,0.0,0.0,0.0,0.0,0.0,0.0,0.0,0.0,0.0,0.0,0.0,0.0,0.0,0.0,0.0,0.0,0.0,0.0,0.0,0.0,0.0,0.0,0.0,0.0,0.0,0.0,0.0,0.0,0.0,0.0,0.0,0.0,0.0,0.0,0.0,0.0,0.0,0.0,0.0,0.1797,0.1797,0.1797,0.1852,0.2015,0.2015,0.2071,0.224,0.2128,0.1903,0.0,0.0,0.0,0.0,0.0,0.0,0.0,0.0,0.0,0.0,0.0,0.0,0.0,0.0,0.0,0.0,0.0,0.0,0.0,0.0,0.0,0.0,0.0,0.0,0.0,0.0,0.0,0.0,-0.5037,-0.5237,-0.5356,0.0,0.0,0.0,0.0,0.0,0.0,0.0,0.0,0.0,0.0,-0.9141,-0.9424,-0.9607,0.0,0.0,-0.9524,-0.9361,-0.9368,-0.9054,-0.8769,-0.8584,-0.8655,0.0,0.0,0.0,0.0,0.0,0.0,0.0,0.0,0.0,0.0,0.0,0.0,0.0,0.0,0.0,0.0,0.0,0.0,0.0,0.0,0.0,0.0,0.0,0.0,0.0,0.0,0.0,0.0,0.0,0.0,0.0,0.0,0.0,0.0,0.0,0.0,0.0,0.0,0.0,0.0,0.0,0.0,0.0,0.0,0.0,0.0,0.0,0.0,0.0,0.0,0.0,0.0,0.1797,0.1797,0.1797,0.185,0.1905,0.1961,0.1961,0.2018,0.1961,0.1794,0.0,0.0,0.0,0.0,0.0,0.0,0.0,0.0,0.0,0.0,0.0,0.0,0.0,0.0,0.0,0.0,0.0,0.0,0.0,0.0,0.0,0.0,0.0,0.0,0.0,0.0,0.0,0.0,-0.5306,-0.5517,-0.5556,0.0,0.0,0.0,0.0,0.0,0.0,0.0,0.0,0.0,0.0,-0.943,-0.9873,-0.9947,-1.0007,-1.0007,-0.9836,-0.9673,-0.9673,-0.9472,-0.9238,-0.9134,0.0,0.0,0.0,0.0,0.0,0.0,0.0,0.0,0.0,0.0,0.0,0.0,0.0,0.0,0.0,0.0,0.0,0.0,0.0,0.0,0.0,0.0,0.0,0.0,0.0,0.0,0.0,0.2572,0.0,0.0,0.2432,0.0,0.0,0.0,0.0,0.0,0.0,0.0,0.0,0.0,0.0,0.0,0.0,0.0,0.0,0.0,0.0,0.0,0.0,0.0,0.0,0.0,0.0,0.1797,0.1797,0.1797,0.1797,0.1797,0.1797,0.1797,0.1797,0.1797,0.1741,0.1572,0.0,0.0,0.0,0.0,0.0,0.0,0.0,0.0,0.0,0.0,0.0,0.0,0.0,0.0,0.0,0.0,0.0,0.0,0.0,0.0,0.0,0.0,0.0,0.0,0.0,0.0,-0.5189,-0.562,-0.5897,0.0,0.0,0.0,0.0,0.0,0.0,0.0,0.0,0.0,-0.934,-0.9614,-0.9895,-1.0213,-1.011,-0.9999,-1.0007,-0.9903,-0.9799,-0.9799,-0.9681,-0.9621,0.0,0.0,0.0,0.0,0.0,0.0,0.0,0.0,0.0,0.0,0.0,0.0,0.0,0.0,0.0,0.0,0.0,0.0,0.0,0.0,0.0,0.0,0.0,0.0,0.0,0.0,0.0,0.2599,0.2327,0.0,0.0,0.0,0.0,0.0,0.0,0.0,0.0,0.0,0.0,0.0,0.0,-0.0471,0.0,0.0,0.0,0.0,0.0,0.0,0.0,0.0,0.0,0.0,0.0,0.0,0.1797,0.1797,0.1797,0.1797,0.1797,0.1797,0.1741,0.1684,0.1684,0.1572,0.129,0.0,0.0,0.0,0.0,0.0,0.0,0.0,0.0,0.0,0.0,0.0,0.0,0.0,0.0,0.0,0.0,0.0,0.0,0.0,0.0,0.0,0.0,0.0,0.0,0.0,-0.5286,0.0,0.0,0.0,0.0,0.0,0.0,0.0,0.0,0.0,0.0,0.0,-0.942,-0.9732,-0.9999,-1.0213,-1.0419,-1.0368,-1.0316,0.0,0.0,0.0,0.0,0.0,0.0,0.0,0.0,0.0,0.0,0.0,0.0,0.0,0.0,-1.3684,-1.3505,-1.3552,-1.3684,-1.3742,0.0,0.0,0.0,0.0,0.0,0.0,0.0,0.0,0.0,0.0,0.0,0.0,0.0,0.0,0.2494,0.2261,0.2261,0.0,0.0,0.0,0.0,0.0,0.0,0.0,0.0,0.0465,-0.0059,-0.0432,-0.0797,-0.0981,0.0,-0.0617,-0.006,0.0,0.0,0.0,0.0,0.0,0.0,0.0,0.0,0.1797,0.1797,0.1797,0.1797,0.1797,0.1741,0.1684,0.1572,0.1459,0.1346,0.1122,0.0954,0.0841,0.0,0.0,0.0,0.0,0.0,0.0,0.0,0.0,0.0,0.0,0.0,0.0,0.0,0.0,0.0,0.0,0.0,0.0,0.0,0.0,0.0,0.0,0.0,-0.5858,0.0,0.0,0.0,0.0,0.0,0.0,0.0,0.0,0.0,-0.9159,-0.9472,-0.9777,-1.0154,-1.0368,-1.0522,-1.0573,0.0,0.0,0.0,0.0,0.0,0.0,0.0,-1.047,-1.0573,-1.0753,-1.1023,-1.1256,-1.2881,-1.4074,-1.3926,0.0,0.0,-1.4186,-1.4269,-1.4398,-1.4398,-1.4547,-1.4743,-1.4834,-1.4869,-1.5081,0.0,0.0,0.0,0.0,0.0,0.0,0.0,0.0,0.2402,0.24,0.0,0.24,0.0,0.0,0.0,0.0,0.1847,0.1602,0.0,0.0,0.0423,-0.0364,-0.1058,-0.1014,-0.1012,-0.0993,-0.0994,-0.0682,-0.0123,0.054,0.0,0.0,0.0,0.0,0.0,0.0,0.1797,0.1797,0.1797,0.1797,0.1797,0.1684,0.1572,0.1459,0.1234,0.1122,0.1122,0.0954,0.0729,0.0393,0.0112,0.0,0.0,0.0,0.0,0.0,0.0,0.0,0.0,0.0,0.0,0.0,0.0,0.0,0.0,0.0,0.0,0.0,0.0,0.0,0.0,-0.6486,0.0,0.0,0.0,0.0,0.0,0.0,0.0,0.0,0.0,0.0,-0.9472,-0.988,-1.0257,-1.047,0.0,0.0,0.0,0.0,-1.0624,-1.0375,-1.0419,-1.0522,-1.0522,-1.0616,-1.0828,-1.1074,0.0,0.0,-1.2609,-1.3703,-1.4512,-1.451,-1.4879,-1.5051,-1.4834,-1.4949,-1.5119,-1.5142,-1.5256,-1.538,-1.5572,-1.5739,-1.5964,0.2286,0.0,0.0,0.0,0.0,0.2405,0.2344,0.228,0.228,0.2219,0.2096,0.2096,0.0,0.0,0.0,0.0,0.0,0.0,0.1327,0.1047,0.05,-0.0257,-0.1115,-0.1051,-0.104,-0.1083,-0.1083,-0.0995,-0.0766,-0.0126,0.0491,0.0989,0.0,0.0,0.0,0.0,0.1684,0.1628,0.1684,0.1572,0.1459,0.1403,0.1346,0.1234,0.1066,0.0954,0.0954,0.0673,0.0336,0.0112,-0.0224,0.0,0.0,0.0,0.0,0.0,0.0,0.0,0.0,0.0,0.0,0.0,0.0,0.0,0.0,0.0,0.0,0.0,0.0,0.0,-0.7323,-0.7407,-0.7506,0.0,0.0,0.0,0.0,0.0,0.0,0.0,0.0,0.0,-1.0146,-1.0308,-1.0462,0.0,0.0,-1.0879,-1.0812,-1.0871,-1.082,-1.0769,-1.0777,0.0,-1.0922,-1.1023,-1.1226,-1.1477,-1.1931,-1.2502,-1.3256,-1.4633,-1.5604,-1.5423,-1.5823,-1.616,-1.6055,-1.5761,-1.5678,-1.5973,-1.6252,-1.6568,-1.7068,-1.6809,-1.6665,0.1823,0.2317,0.2176,0.2116,0.2117,0.2117,0.2116,0.2116,0.2117,0.2117,0.2114,0.209,0.208,0.2079,0.2056,0.0,0.0,0.0,0.14,0.1041,0.061,0.0138,-0.0436,-0.0587,-0.0582,-0.0641,-0.0704,-0.0827,-0.0867,-0.0587,-0.0127,0.055,0.0,0.0,0.1347,0.1403,0.1459,0.1459,0.1515,0.1515,0.1347,0.1346,0.1234,0.101,0.0785,0.0617,0.0561,0.0224,-0.0056,-0.0336,-0.0841,-0.129,0.0,0.0,0.0,0.0,0.0,0.0,0.0,0.0,0.0,0.0,0.0,-0.3884,-0.4298,0.0,0.0,0.0,-0.6213,-0.6972,-0.7747,-0.7895,0.0,0.0,0.0,0.0,0.0,0.0,0.0,-0.9458,-0.9836,-1.0162,-1.047,-1.0616,-1.0769,-1.082,-1.0981,-1.1023,-1.0972,0.0,-1.0972,-1.0922,-1.1023,-1.1074,-1.1175,-1.1377,-1.1678,-1.2026,-1.2589,-1.3228,-1.3815,-1.4957,-1.5681,-1.5648,-1.5939,-1.6317,-1.6454,-1.6175,-1.6183,-1.6706,-1.7113,-1.7545,-1.8081,-1.7672,-1.7454,0.1391,0.171,0.1598,0.162,0.1687,0.1688,0.1831,0.1973,0.1974,0.205,0.2264,0.2206,0.2181,0.2178,0.2125,0.0,0.197,0.1759,0.1497,0.1171,0.0817,0.0594,0.0587,0.0298,0.0223,0.0219,-0.0071,-0.0281,-0.0489,-0.0865,-0.0777,-0.0064,0.0489,0.0818,0.0907,0.1131,0.1243,0.124,0.1352,0.1408,0.1403,0.1234,0.1066,0.0785,0.0449,0.0168,-0.0056,-0.028,-0.0617,-0.101,-0.1515,-0.1908,-0.2014,0.0,0.0,0.0,0.0,0.0,0.0,0.0,0.0,0.0,0.0,0.0,0.0,0.0,0.0,0.0,-0.6642,0.0,-0.7723,-0.8156,0.0,0.0,0.0,-0.8732,-0.9008,-0.9256,-0.9465,-0.9621,0.0,0.0,-1.0522,-1.0871,-1.1124,-1.1124,-1.1226,-1.1217,-1.1124,-1.1124,-1.1074,-1.0964,-1.1175,-1.1318,-1.1418,-1.1728,-1.2166,-1.2608,-1.3074,-1.3631,-1.4294,-1.4898,-1.5234,-1.544,-1.5686,-1.6009,-1.6274,-1.6517,-1.6735,-1.7217,-1.7727,-1.8232,-1.8639,-1.8384,-1.8192,0.0342,0.0427,0.0331,0.0879,0.1701,0.1623,0.1675,0.1709,0.1722,0.1794,0.1855,0.1822,0.1807,0.1805,0.1795,0.1796,0.1735,0.159,0.1464,0.1425,0.1198,0.106,0.1081,0.1008,0.0998,0.0975,0.095,0.0572,-0.014,-0.0814,-0.0991,-0.084,-0.0318,0.0249,0.0907,0.0967,0.0955,0.0757,0.0815,0.0633,0.0393,0.0224,0.0112,0.0056,-0.0112,-0.0336,-0.0673,-0.1178,-0.157,-0.1792,-0.2017,-0.2184,-0.2354,-0.2609,0.0,0.0,0.0,0.0,0.0,0.0,0.0,0.0,0.0,-0.4519,-0.4791,0.0,-0.5517,0.0,-0.6923,-0.7676,-0.8156,-0.8533,0.0,0.0,-0.9054,-0.9152,-0.9406,-0.9517,-0.9725,-1.0102,-1.0368,-1.0573,-1.0769,-1.0972,-1.1116,-1.1226,-1.1276,-1.1267,-1.1276,-1.1267,-1.1276,-1.1326,-1.1418,-1.1569,-1.1877,-1.2323,-1.2764,-1.318,-1.3573,-1.401,-1.4545,-1.5289,-1.5963,-1.6253,-1.6575,-1.6802,-1.6978,-1.7327,-1.7573,-1.7828,-1.7913,-1.8364,-1.9462,-1.9051,-1.8537,-0.0978,-0.0968,-0.1045,-0.0513,0.0334,0.0818,0.1204,0.15,0.1491,0.164,0.1784,0.173,0.1696,0.1677,0.1677,0.1688,0.1707,0.1557,0.1504,0.1539,0.1379,0.1236,0.1336,0.1336,0.1327,0.1308,0.1276,0.0878,0.0,-0.0764,-0.1217,-0.1316,-0.0986,-0.0652,-0.0192,0.0125,0.0245,0.018,0.0119,-0.0116,-0.0562,-0.0785,-0.0954,-0.1066,-0.112,-0.1232,-0.1569,-0.185,-0.2074,-0.2354,-0.2462,-0.2573,-0.2742,-0.2923,-0.3192,0.0,0.0,0.0,0.0,0.0,0.0,0.0,0.0,0.0,0.0,0.0,-0.5955,-0.6549,-0.7198,-0.7783,-0.8368,-0.8692,-0.9008,-0.9263,-0.9361,-0.9465,-0.9681,-0.9829,-1.0043,-1.0368,-1.0573,-1.0769,-1.0972,-1.1124,-1.1226,-1.1276,-1.1326,-1.1377,-1.1377,-1.1377,-1.1427,-1.1569,-1.1678,-1.1927,-1.2382,-1.2813,-1.3238,-1.3525,-1.3905,-1.4326,-1.4743,-1.5384,-1.5903,-1.6178,-1.6528,-1.6898,-1.7118,-1.738,-1.7748,-1.8243,-1.8123,-1.8389,-1.956,-1.927,-1.885,-0.229,-0.2342,-0.2335,-0.1973,-0.1431,-0.0345,0.0425,0.1103,0.1078,0.1391,0.1706,0.1554,0.158,0.162,0.1694,0.164,0.175,0.1522,0.154,0.1571,0.1415,0.1336,0.1336,0.1336,0.1336,0.1335,0.1226,0.0749,0.0,-0.0782,-0.1316,-0.1691,-0.155,-0.1547,-0.1611,-0.1025,-0.0684,-0.0679,-0.0718,-0.0986,-0.1347,-0.1684,-0.1965,-0.2191,-0.2186,-0.224,-0.2464,-0.2352,-0.2464,-0.2745,-0.291,-0.3019,-0.313,-0.3207,-0.3361,0.0,-0.3704,0.0,0.0,0.0,0.0,0.0,0.0,0.0,0.0,-0.5955,-0.6554,-0.709,-0.7509,-0.7937,-0.8421,-0.8798,-0.9106,-0.942,-0.9569,-0.9681,-0.9851,-1.011,-1.0368,-1.0522,-1.0769,-1.0972,-1.1065,-1.1226,-1.1276,-1.1318,-1.1427,-1.1528,-1.1578,-1.1519,-1.1569,-1.1719,-1.2036,-1.2382,-1.2871,-1.3248,-1.3563,-1.381,-1.4233,-1.4605,-1.496,-1.5334,-1.5614,-1.5893,-1.63,-1.6675,-1.6876,-1.7141,-1.7591,-1.8422,-1.8276,-1.8371,-1.9271,-1.9222,-1.9086,-0.286,-0.2846,-0.2798,-0.2511,-0.2153,-0.1691,-0.0975,-0.0177,0.0173,0.0421,0.065,0.0632,0.0934,0.1395,0.1395,0.1399,0.1405,0.1327,0.133,0.1336,0.1336,0.1336,0.1336,0.1336,0.1336,0.1256,0.0613,0.0,-0.045,-0.1148,-0.1678,-0.2157,-0.1905,-0.1884,-0.2085,0.0,0.0,0.0,-0.1734,-0.1679,-0.1682,-0.1847,-0.2017,-0.2184,-0.2352,0.0,-0.2796,-0.2794,-0.285,-0.3019,-0.319,0.0,0.0,0.0,0.0,0.0,0.0,0.0,0.0,0.0,0.0,0.0,-0.5955,-0.595,-0.5896,-0.6544,-0.7036,-0.7257,-0.7788,-0.8275,-0.8699,-0.8956,-0.9323,-0.9688,-0.974,-0.9895,-1.0162,-1.0265,-1.0368,-1.0624,-1.0769,-1.0972,-1.1074,-1.1226,-1.1318,-1.1427,-1.1477,-1.1578,-1.1778,-1.1728,-1.1769,-1.2026,-1.2431,-1.2861,-1.3238,-1.3525,-1.3858,-1.4233,-1.4593,-1.496,-1.5277,-1.5558,-1.5913,-1.6262,-1.662,-1.6876,-1.7115,-1.7461,-1.7801,-1.8031,-1.8232,-1.8609,-1.9266,-1.9013,-1.8761,-0.3856,-0.3694,-0.3562,-0.3256,0.0,-0.269,-0.2241,-0.17,-0.1228,-0.0763,-0.0325,-0.0321,0.0079,0.0629,0.0629,0.0629,0.0629,0.0629,0.0629,0.0629,0.0629,0.0629,0.0629,0.0629,0.0629,0.0628,0.0078,-0.0383,-0.0756,-0.1697,-0.2158,-0.2245,-0.242,-0.2523,-0.2624,-0.2825,-0.2814,-0.2532,-0.2427,-0.2353,-0.2245,-0.235,-0.246,-0.2571,-0.2685,0.0,0.0,0.0,0.0,0.0,0.0,0.0,0.0,-0.3858,0.0,-0.4128,-0.4515,-0.4849,-0.5183,-0.5462,-0.5841,-0.6277,-0.6549,-0.6598,-0.6544,-0.6869,-0.7252,-0.7586,-0.7955,-0.8381,-0.8857,-0.9113,-0.9368,-0.9747,-0.9851,-1.0007,-1.0272,-1.0419,-1.0573,-1.0769,-1.0922,-1.1074,-1.1175,-1.1318,-1.1418,-1.1469,-1.1628,-1.1778,-1.1977,-1.1977,-1.2026,-1.2431,-1.2803,-1.3142,-1.3467,-1.3858,-1.4186,-1.4512,-1.4777,-1.5142,-1.5558,-1.5836,-1.61,-1.6436,-1.6778,-1.7128,-1.731,-1.7666,-1.7949,-1.8163,-1.8386,-1.8691,-1.9134,-1.9051,-1.895,-0.489,-0.4644,-0.444,-0.411,-0.3765,-0.3585,-0.3315,-0.313,-0.2541,0.0,0.0,-0.1148,-0.0808,-0.0316,-0.0316,-0.0315,-0.0314,-0.0314,-0.0314,-0.0314,-0.0314,-0.0314,-0.0314,-0.0314,-0.0314,-0.0314,-0.0628,-0.0932,-0.1296,-0.2349,-0.2742,-0.2496,-0.2958,-0.3178,-0.323,-0.3496,-0.3409,-0.3053,-0.3026,-0.2996,-0.2832,-0.2919,-0.3019,-0.3019,-0.313,-0.3355,-0.3638,-0.3694,-0.3805,-0.4024,-0.4079,-0.4076,-0.4079,-0.4245,-0.4411,-0.457,-0.4897,-0.523,-0.5618,-0.5946,-0.6273,-0.6544,-0.6928,-0.7139,-0.7139,-0.7198,-0.7413,-0.7848,-0.8168,-0.8487,-0.8956,-0.9159,-0.942,-0.9799,-0.9955,-1.0162,-1.0375,-1.0573,-1.0769,-1.0922,-1.1023,-1.1175,-1.1326,-1.1427,-1.1528,-1.1578,-1.1778,-1.2026,-1.2175,-1.2274,-1.2421,-1.2861,-1.3142,-1.3372,-1.3705,-1.414,-1.4512,-1.4743,-1.5017,-1.5379,-1.5792,-1.6057,-1.6318,-1.6607,-1.6989,-1.7282,-1.757,-1.7828,-1.8109,-1.8464,-1.8606,-1.8784,-1.9087,-1.9213,-1.931,-0.5888,-0.5482,-0.5395,-0.5022,-0.4572,-0.4482,-0.4391,-0.4024,-0.3152,-0.2509,-0.2152,-0.1856,-0.1654,-0.1621,-0.1618,-0.1601,-0.1651,-0.1651,-0.1651,-0.1651,-0.1651,-0.1651,-0.1651,-0.1651,-0.1651,-0.165,-0.2042,-0.235,-0.265,-0.283,-0.3088,-0.3348,-0.3576,-0.3726,-0.3902,-0.4097,-0.4167,-0.4152,-0.3618,-0.3329,-0.3215,-0.3293,-0.336,-0.3469,-0.3633,-0.3796,-0.3913,-0.4082,-0.4138,-0.419,-0.4353,-0.4408,-0.4463,-0.468,-0.4846,-0.4897,-0.5336,-0.5719,-0.5946,-0.6327,-0.6761,-0.7149,-0.7365,-0.7419,-0.7311,-0.758,-0.7788,-0.7955,-0.8374,-0.8804,-0.9008,-0.9316,-0.9621,-0.9947,-1.0154,-1.0368,-1.0573,-1.0667,-1.0828,-1.1023,-1.1074,-1.1226,-1.1418,-1.1477,-1.1628,-1.1828,-1.2026,-1.2224,-1.2627,-1.2783,-1.291,-1.3132,-1.3362,-1.3705,-1.414,-1.4466,-1.4743,-1.5017,-1.5424,-1.5792,-1.6057,-1.6306,-1.6607,-1.7031,-1.7282,-1.7516,-1.7788,-1.8163,-1.8425,-1.8606,-1.8836,-1.9124,-1.9384,-1.9573,-1.9732,-0.697,-0.6649,-0.6423,-0.6026,-0.5549,-0.5307,-0.5188,-0.5006,-0.4431,-0.3771,-0.3039,-0.2835,-0.2621,-0.2406,-0.2402,-0.2389,-0.2366,-0.2366,-0.2367,-0.2366,-0.2366,-0.2351,-0.2324,-0.2242,-0.2307,-0.2437,-0.2666,-0.2979,-0.3134,-0.349,-0.3753,-0.3991,-0.4161,-0.4375,-0.4591,-0.4596,-0.4602,-0.473,-0.4284,-0.3944,-0.3823,-0.3932,-0.4041,-0.4092,-0.4135,-0.4242,-0.4356,-0.4522,-0.4629,-0.4688,-0.4846,-0.4952,-0.5069,-0.5285,-0.5391,-0.5504,-0.5996,-0.6322,-0.6495,-0.6977,-0.7354,-0.758,-0.7794,-0.7895,-0.7895,-0.7901,-0.8062,-0.8321,-0.8646,-0.891,-0.9211,-0.9458,-0.9725,-0.9947,-1.0257,-1.0462,-1.0675,-1.082,-1.0964,-1.1175,-1.1276,-1.1368,-1.1578,-1.1728,-1.1877,-1.2026,-1.2274,-1.2676,-1.29,-1.3142,-1.3344,-1.342,-1.3705,-1.4046,-1.443,-1.4743,-1.5017,-1.5322,-1.5691,-1.6001,-1.6306,-1.6565,-1.6918,-1.7267,-1.7543,-1.7814,-1.8069,-1.8333,-1.8606,-1.8874,-1.9124,-1.9369,-1.9609,-1.998,-2.0239,-0.8052,-0.7704,-0.7397,-0.6973,-0.6542,-0.6132,-0.5985,-0.5988,-0.5813,-0.5144,-0.42,-0.3847,-0.3543,-0.3137,-0.3134,-0.3126,-0.311,-0.311,-0.311,-0.311,-0.311,-0.308,-0.2948,-0.2933,-0.2978,-0.3164,-0.3299,-0.3522,-0.3761,-0.4155,-0.4411,-0.4595,-0.4859,-0.509,-0.523,-0.5132,-0.5125,-0.5286,-0.5049,-0.4741,-0.4386,-0.4519,-0.4619,-0.4522,-0.4681,-0.4847,-0.4956,-0.5121,-0.529,-0.5406,-0.557,-0.5737,-0.5965,-0.6072,-0.6239,-0.6411,-0.6804,-0.7081,-0.7307,-0.7735,-0.8069,-0.8239,-0.8402,-0.8565,-0.8721,-0.8511,-0.8448,-0.8785,-0.891,-0.9106,-0.9413,-0.9673,-0.988,-1.0102,-1.036,-1.0616,-1.0769,-1.1023,-1.1226,-1.1318,-1.1477,-1.1628,-1.1769,-1.1968,-1.2126,-1.2323,-1.2676,-1.3007,-1.317,-1.3467,-1.3705,-1.3858,-1.4082,-1.4373,-1.4673,-1.5028,-1.5334,-1.5635,-1.5901,-1.625,-1.6565,-1.6876,-1.7183,-1.7487,-1.7801,-1.8055,-1.8305,-1.8577,-1.8822,-1.9139,-1.9384,-1.9645,-1.998,-2.0342,-2.0644,-0.8833,-0.849,-0.8272,-0.7813,-0.7272,-0.7025,-0.6962,-0.6962,-0.6792,-0.652,-0.5963,-0.5087,-0.4412,-0.4072,-0.4064,-0.4024,-0.3954,-0.3944,-0.395,-0.395,-0.4026,-0.394,-0.3924,-0.3856,-0.3893,-0.4112,-0.4274,-0.4394,-0.4631,-0.5012,-0.526,-0.5445,-0.5625,-0.5699,-0.5554,-0.571,-0.583,-0.583,-0.6001,-0.5643,-0.4835,-0.5016,-0.4934,-0.454,-0.5217,-0.5648,-0.568,-0.6058,-0.6296,-0.63,-0.6588,-0.683,-0.7062,-0.719,-0.7367,-0.7538,-0.7837,-0.8142,-0.8545,-0.8783,-0.8984,-0.9292,-0.9323,-0.9495,-0.9744,-0.9815,-0.9478,-0.9132,-0.9278,-0.9539,-0.9614,-0.994,-1.0257,-1.0411,-1.0565,-1.0769,-1.1023,-1.1226,-1.1326,-1.1469,-1.1628,-1.1769,-1.2026,-1.2126,-1.2323,-1.2774,-1.2997,-1.3276,-1.3515,-1.3847,-1.4222,-1.443,-1.4581,-1.4708,-1.5017,-1.5334,-1.5635,-1.5913,-1.625,-1.6552,-1.6876,-1.7183,-1.7487,-1.7788,-1.8055,-1.8319,-1.8553,-1.8822,-1.9124,-1.942,-1.966,-1.998,-2.046,-2.0744,-2.0794,-0.9972,-0.9591,-0.9296,-0.8863,-0.8276,-0.8093,-0.7933,-0.776,-0.7499,-0.7231,-0.6959,-0.6432,-0.5692,-0.5122,-0.5119,-0.5092,-0.5055,-0.5053,-0.5053,-0.5053,-0.5053,-0.5023,-0.4959,-0.4922,-0.5035,-0.5369,-0.5331,-0.543,-0.5735,-0.598,-0.6066,-0.6159,-0.6375,-0.6482,-0.6417,-0.6367,-0.6435,-0.6507,-0.6535,-0.6371,-0.6085,-0.5939,-0.5793,-0.5691,-0.6053,-0.6362,-0.6598,-0.6832,-0.7016,-0.7016,-0.732,-0.7558,-0.7731,-0.7908,-0.8032,-0.8215,-0.8622,-0.8909,-0.9207,-0.944,-0.9621,-0.9789,-0.9962,-1.0135,-1.0257,-1.043,-1.0357,-1.014,-0.9969,-0.9886,-0.9881,-1.0213,-1.0419,-1.0522,-1.0769,-1.1023,-1.1175,-1.1326,-1.1528,-1.1778,-1.1918,-1.2026,-1.2274,-1.248,-1.2715,-1.3094,-1.3324,-1.3563,-1.3905,-1.4233,-1.4523,-1.4834,-1.5062,-1.5232,-1.5412,-1.5635,-1.5944,-1.6262,-1.6565,-1.6905,-1.717,-1.7515,-1.7801,-1.8095,-1.8319,-1.8577,-1.886,-1.9109,-1.942,-1.9696,-2.01,-2.0426,-2.0711,-2.0941,-2.1087,-1.0998,-1.0769,-1.0294,-0.9831,-0.934,-0.9144,-0.8857,-0.8552,-0.8288,-0.8113,-0.7841,-0.7669,-0.7136,-0.6517,-0.6251,-0.6074,-0.6074,-0.6074,-0.6074,-0.6074,-0.6074,-0.6028,-0.6034,-0.5993,-0.6187,-0.6415,-0.6358,-0.6512,-0.6788,-0.6924,-0.6917,-0.6857,-0.7124,-0.719,-0.7192,-0.7145,-0.7112,-0.7223,-0.7109,-0.6999,-0.6898,-0.6857,-0.6782,-0.6714,-0.6951,-0.7267,-0.7639,-0.769,-0.7807,-0.7868,-0.8116,-0.8359,-0.854,-0.8722,-0.8902,-0.9149,-0.9496,-0.9794,-0.9907,-1.021,-1.0401,-1.0512,-1.0682,-1.0799,-1.0975,-1.115,-1.1279,-1.123,-1.0902,-1.0676,-1.0309,-1.0553,-1.0737,-1.0742,-1.1023,-1.1226,-1.1427,-1.1528,-1.1778,-1.2026,-1.2175,-1.2372,-1.2666,-1.291,-1.32,-1.3525,-1.3705,-1.3952,-1.428,-1.4558,-1.4834,-1.5187,-1.5501,-1.568,-1.5724,-1.5944,-1.6262,-1.6565,-1.6905,-1.7157,-1.7447,-1.7733,-1.8069,-1.8372,-1.8606,-1.8822,-1.9124,-1.9406,-1.9732,-2.0015,-2.041,-2.0777,-2.0941,-2.1151,-2.134,-1.198,-1.1853,-1.1149,-1.0754,-1.0546,-1.0329,-0.9953,-0.9533,-0.9354,-0.9091,-0.8823,-0.8636,-0.8456,-0.8368,-0.7489,-0.7051,-0.7051,-0.7051,-0.7051,-0.7051,-0.7051,-0.7048,-0.7031,-0.6983,-0.7172,-0.7491,-0.742,-0.7516,-0.7776,-0.7748,-0.7659,-0.7496,-0.7689,-0.7752,-0.7834,-0.7961,-0.7918,-0.7834,-0.7954,-0.7671,-0.7093,-0.7478,-0.7613,-0.7593,-0.7887,-0.8329,-0.8812,-0.8801,-0.8784,-0.8907,-0.9076,-0.9348,-0.9679,-0.9869,-1.0097,-1.0425,-1.062,-1.0808,-1.0982,-1.1148,-1.1341,-1.1603,-1.1682,-1.1858,-1.2035,-1.2157,-1.2161,-1.2212,-1.2206,-1.1857,-1.1176,-1.1214,-1.1331,-1.1251,-1.1276,-1.1427,-1.1678,-1.1927,-1.2026,-1.2175,-1.2471,-1.2813,-1.3122,-1.342,-1.3668,-1.3915,-1.4197,-1.443,-1.4651,-1.4926,-1.5187,-1.5501,-1.5812,-1.5988,-1.6032,-1.625,-1.6607,-1.6918,-1.717,-1.7461,-1.7693,-1.7947,-1.8305,-1.8644,-1.8912,-1.9161,-1.942,-1.9732,-2.0065,-2.0376,-2.0628,-2.0941,-2.1199,-2.1309,-2.1479,-1.2754,-1.2446,-1.2009,-1.1869,-1.1776,-1.1553,-1.106,-1.0504,-1.0406,-1.0064,-0.9616,-0.9515,-0.951,-0.951,-0.9161,-0.8632,-0.8109,-0.8017,-0.8017,-0.8017,-0.8109,-0.8017,-0.8101,-0.8039,-0.8277,-0.8603,-0.8522,-0.8591,-0.8819,-0.8697,-0.8598,-0.8512,-0.8535,-0.8656,-0.8726,-0.8861,-0.8923,-0.8928,-0.8933,-0.8436,-0.7721,-0.8057,-0.863,-0.9391,-0.8899,-0.8899,-0.959,-0.9496,-0.9536,-0.9664,-0.9849,-1.0047,-1.0308,-1.0561,-1.0807,-1.1052,-1.1303,-1.149,-1.156,-1.1802,-1.1988,-1.212,-1.2305,-1.249,-1.2613,-1.2789,-1.2967,-1.298,-1.3135,-1.2957,-1.2451,-1.1986,-1.1676,-1.1792,-1.1727,-1.1787,-1.1977,-1.2175,-1.2431,-1.2627,-1.2958,-1.3286,-1.3563,-1.3637,-1.3862,-1.4337,-1.4592,-1.4868,-1.5165,-1.5322,-1.5546,-1.5913,-1.6175,-1.638,-1.6637,-1.6693,-1.6918,-1.7212,-1.7461,-1.7707,-1.7947,-1.8238,-1.8592,-1.8965,-1.9228,-1.9457,-1.9711,-2.0135,-2.046,-2.0679,-2.0958,-2.1199,-2.145,-2.157,-2.1735,-1.3709,-1.3312,-1.3054,-1.2931,-1.2847,-1.2696,-1.2296,-1.1632,-1.1616,-1.1227,-1.0607,-1.0577,-1.0542,-1.0391,-1.0467,-1.0115,-0.9506,-0.9157,-0.9074,-0.9069,-0.9074,-0.9074,-0.9074,-0.9074,-0.9248,-0.9666,-0.9723,-0.9798,-0.993,-0.9776,-0.9672,-0.9592,-0.9446,-0.9566,-0.9764,-0.9707,-0.9778,-0.9891,-0.9859,-0.9425,-0.8706,-0.8742,-0.9409,-1.0315,-0.9922,-0.9744,-1.0181,-1.0072,-1.018,-1.0364,-1.0491,-1.0681,-1.0996,-1.1247,-1.1498,-1.1615,-1.1864,-1.2058,-1.212,-1.2367,-1.249,-1.2605,-1.285,-1.2981,-1.3103,-1.3346,-1.345,-1.3631,-1.3761,-1.3817,-1.3633,-1.3017,-1.2529,-1.2395,-1.2271,-1.2254,-1.2302,-1.252,-1.2813,-1.3104,-1.3382,-1.3716,-1.3999,-1.3946,-1.4226,-1.4731,-1.5006,-1.5278,-1.557,-1.5736,-1.5957,-1.6318,-1.6565,-1.6765,-1.706,-1.7227,-1.7323,-1.7584,-1.776,-1.8001,-1.8196,-1.8511,-1.8874,-1.9242,-1.9538,-1.9747,-2.01,-2.0494,-2.0761,-2.0974,-2.1198,-2.145,-2.1648,-2.1823,-2.1982,-1.4771,-1.4394,-1.4286,-1.4141,-1.3954,-1.3918,-1.3483,-1.2991,-1.2882,-1.2462,-1.1804,-1.1704,-1.1591,-1.1408,-1.1413,-1.1365,-1.1131,-1.0537,-1.0159,-1.0038,-1.0038,-0.9951,-0.9951,-1.0033,-1.0294,-1.0636,-1.1058,-1.1198,-1.0988,-1.1012,-1.0892,-1.0692,-1.0464,-1.0562,-1.0867,-1.0703,-1.0633,-1.0761,-1.0797,-1.0503,-0.9881,-0.9737,-1.0048,-1.0731,-1.0955,-1.0913,-1.0648,-1.0588,-1.0751,-1.1059,-1.1129,-1.131,-1.1685,-1.1934,-1.2182,-1.2305,-1.2421,-1.2613,-1.2744,-1.2805,-1.2981,-1.3208,-1.3268,-1.345,-1.3649,-1.383,-1.395,-1.413,-1.4249,-1.4341,-1.4563,-1.4335,-1.3801,-1.2942,-1.2978,-1.3046,-1.2879,-1.292,-1.3142,-1.3525,-1.3868,-1.4104,-1.4326,-1.4422,-1.463,-1.5051,-1.5402,-1.5727,-1.5957,-1.6132,-1.6405,-1.6748,-1.6947,-1.7157,-1.7475,-1.776,-1.7855,-1.7989,-1.8094,-1.8288,-1.844,-1.8722,-1.9242,-1.9634,-1.9899,-2.0115,-2.041,-2.0794,-2.1023,-2.123,-2.1481,-2.1664,-2.1857,-2.2044,-2.2209,-1.5913,-1.5622,-1.5439,-1.5305,-1.522,-1.522,-1.4778,-1.4161,-1.4142,-1.372,-1.3134,-1.3015,-1.2962,-1.2903,-1.2886,-1.288,-1.2892,-1.2517,-1.191,-1.1121,-1.0906,-1.0911,-1.0906,-1.1073,-1.1413,-1.1843,-1.21,-1.2237,-1.2137,-1.1992,-1.1928,-1.1823,-1.1594,-1.1606,-1.1831,-1.1721,-1.1749,-1.1832,-1.1851,-1.161,-1.1198,-1.1313,-1.1784,-1.2467,-1.2116,-1.1697,-1.1468,-1.122,-1.1247,-1.156,-1.1685,-1.1934,-1.2243,-1.249,-1.2621,-1.2736,-1.2964,-1.3086,-1.3268,-1.3398,-1.3519,-1.364,-1.3821,-1.395,-1.4061,-1.43,-1.4419,-1.4597,-1.4725,-1.498,-1.5001,-1.5061,-1.4743,-1.4096,-1.3995,-1.3873,-1.3591,-1.3624,-1.3794,-1.4093,-1.4337,-1.4569,-1.4834,-1.4926,-1.5141,-1.5513,-1.5917,-1.6249,-1.6362,-1.6522,-1.6791,-1.7183,-1.7295,-1.7488,-1.7855,-1.8121,-1.8279,-1.8344,-1.8458,-1.8517,-1.8702,-1.9059,-1.9589,-2.001,-2.0231,-2.0509,-2.0794,-2.1055,-2.1277,-2.1495,-2.1678,-2.1886,-2.2118,-2.2271,-2.2385,-1.7044,-1.6756,-1.648,-1.6393,-1.6393,-1.6393,-1.6001,-1.5465,-1.5358,-1.5008,-1.4415,-1.4286,-1.4223,-1.4141,-1.4128,-1.4122,-1.4122,-1.4122,-1.3576,-1.2674,-1.2289,-1.2074,-1.2065,-1.2221,-1.2528,-1.2875,-1.3137,-1.3222,-1.3203,-1.3136,-1.3048,-1.3003,-1.2763,-1.2708,-1.2805,-1.2878,-1.2825,-1.2852,-1.2919,-1.2673,-1.2319,-1.2393,-1.3108,-1.4066,-1.3621,-1.3092,-1.2819,-1.2396,-1.2172,-1.2205,-1.2421,-1.2666,-1.2842,-1.3042,-1.3224,-1.3285,-1.3519,-1.3692,-1.3761,-1.3941,-1.4061,-1.4181,-1.4369,-1.4556,-1.4606,-1.4834,-1.4942,-1.5137,-1.5313,-1.5488,-1.5546,-1.568,-1.5656,-1.5445,-1.5273,-1.4859,-1.445,-1.4461,-1.4514,-1.4639,-1.4797,-1.504,-1.5232,-1.549,-1.5656,-1.5969,-1.6393,-1.6721,-1.6761,-1.6934,-1.7253,-1.7515,-1.7706,-1.7949,-1.8268,-1.8489,-1.8683,-1.8741,-1.8797,-1.8815,-1.8883,-1.9398,-1.9924,-2.0316,-2.0592,-2.081,-2.1055,-2.1309,-2.1526,-2.1738,-2.1915,-2.2118,-2.2315,-2.2378,-2.2504,-1.8071,-1.7785,-1.7512,-1.7419,-1.7419,-1.7419,-1.7124,-1.6662,-1.6655,-1.6213,-1.5629,-1.5503,-1.5369,-1.514,-1.5258,-1.5258,-1.5183,-1.523,-1.5147,-1.481,-1.4334,-1.3758,-1.3385,-1.354,-1.369,-1.3881,-1.4135,-1.4193,-1.4139,-1.4105,-1.4153,-1.4092,-1.3946,-1.3865,-1.3957,-1.4016,-1.3983,-1.3867,-1.3928,-1.371,-1.3055,-1.3028,-1.3866,-1.5548,-1.5317,-1.4866,-1.4315,-1.3827,-1.3372,-1.2977,-1.3155,-1.3329,-1.3571,-1.3761,-1.383,-1.389,-1.413,-1.4249,-1.4309,-1.4478,-1.4588,-1.4706,-1.4902,-1.5098,-1.5205,-1.5362,-1.5536,-1.5662,-1.5884,-1.5999,-1.6114,-1.6244,-1.6461,-1.6775,-1.6524,-1.5892,-1.5142,-1.5384,-1.5456,-1.5277,-1.5372,-1.5617,-1.5697,-1.5973,-1.6132,-1.6331,-1.6769,-1.7054,-1.7141,-1.731,-1.7611,-1.7855,-1.8055,-1.8372,-1.8697,-1.8851,-1.9026,-1.9258,-1.9295,-1.9258,-1.9337,-1.9823,-2.0266,-2.0626,-2.0909,-2.1135,-2.1325,-2.1556,-2.1768,-2.1928,-2.2147,-2.236,-2.249,-2.2565,-2.2903,-1.918,-1.9088,-1.8635,-1.8365,-1.845,-1.8458,-1.8172,-1.7707,-1.7714,-1.7375,-1.6922,-1.6829,-1.6765,-1.67,-1.6679,-1.67,-1.6664,-1.6671,-1.6707,-1.67,-1.6515,-1.5825,-1.5178,-1.5014,-1.5193,-1.5276,-1.5412,-1.529,-1.5075,-1.509,-1.509,-1.5068,-1.4982,-1.4974,-1.4999,-1.5105,-1.5053,-1.4919,-1.4909,-1.468,-1.4251,-1.3875,-1.4538,-1.5972,-1.6078,-1.5777,-1.5424,-1.4859,-1.4232,-1.3631,-1.37,-1.389,-1.4001,-1.424,-1.435,-1.4478,-1.4666,-1.4852,-1.4911,-1.5069,-1.5177,-1.5235,-1.543,-1.5546,-1.571,-1.5826,-1.5999,-1.6124,-1.641,-1.6581,-1.6627,-1.6687,-1.7134,-1.7856,-1.7431,-1.6813,-1.6524,-1.6553,-1.6639,-1.6569,-1.6562,-1.6599,-1.6614,-1.6704,-1.6782,-1.6854,-1.7151,-1.7446,-1.7515,-1.772,-1.8109,-1.824,-1.8436,-1.876,-1.9026,-1.9191,-1.9413,-1.9762,-1.9844,-1.9854,-1.9993,-2.0292,-2.0693,-2.1006,-2.1183,-2.1371,-2.1587,-2.1797,-2.1974,-2.2175,-2.2371,-2.2579,-2.2747,-2.2867,-2.3428,-2.0184,-2.0184,-1.9646,-1.9463,-1.9371,-1.9288,-1.9004,-1.8727,-1.8635,-1.8357,-1.7986,-1.7893,-1.7986,-1.7893,-1.7885,-1.7885,-1.7893,-1.7885,-1.7885,-1.7885,-1.7885,-1.7316,-1.6555,-1.6284,-1.6448,-1.6552,-1.6695,-1.6675,-1.6499,-1.627,-1.6187,-1.6156,-1.605,-1.5883,-1.5901,-1.6098,-1.6174,-1.6084,-1.5988,-1.5818,-1.5418,-1.4855,-1.545,-1.6563,-1.6824,-1.6652,-1.6227,-1.5817,-1.5164,-1.4454,-1.43,-1.4488,-1.4616,-1.4775,-1.4942,-1.501,-1.5196,-1.5323,-1.5488,-1.5594,-1.57,-1.5816,-1.5951,-1.6124,-1.6285,-1.6389,-1.656,-1.6684,-1.6987,-1.7145,-1.7245,-1.7368,-1.7954,-1.8639,-1.8365,-1.7914,-1.7744,-1.7706,-1.7747,-1.7775,-1.7747,-1.7668,-1.7702,-1.7791,-1.7739,-1.7686,-1.7942,-1.7989,-1.795,-1.827,-1.8464,-1.8592,-1.8808,-1.9124,-1.9384,-1.9545,-1.9797,-2.015,-2.0364,-2.0369,-2.0581,-2.0859,-2.107,-2.1342,-2.1481,-2.1631,-2.1811,-2.2032,-2.222,-2.2415,-2.2623,-2.2963,-2.3274,-2.34,-2.3961,-2.1168,-2.1087,-2.0654,-2.0473,-2.0382,-2.0201,-1.992,-1.9729,-1.9455,-1.9188,-1.9012,-1.892,-1.9004,-1.9012,-1.8912,-1.9004,-1.892,-1.8912,-1.892,-1.8936,-1.8843,-1.8493,-1.7742,-1.7512,-1.7609,-1.7771,-1.793,-1.7945,-1.7879,-1.7568,-1.748,-1.7383,-1.7135,-1.6892,-1.7,-1.7147,-1.7194,-1.7183,-1.7164,-1.7115,-1.6699,-1.6119,-1.6315,-1.7368,-1.7525,-1.729,-1.6997,-1.6677,-1.6186,-1.5062,-1.5115,-1.5214,-1.5312,-1.5362,-1.5468,-1.5526,-1.572,-1.5894,-1.5999,-1.6171,-1.6285,-1.64,-1.657,-1.6751,-1.6864,-1.6965,-1.7123,-1.7245,-1.759,-1.7744,-1.7886,-1.8333,-1.8869,-1.931,-1.9401,-1.9223,-1.898,-1.8797,-1.882,-1.8921,-1.8824,-1.8755,-1.8851,-1.9035,-1.9124,-1.8715,-1.8918,-1.8934,-1.8848,-1.9013,-1.8998,-1.8912,-1.9176,-1.9508,-1.9726,-1.9889,-2.022,-2.0527,-2.0781,-2.0911,-2.1167,-2.1358,-2.15,-2.1685,-2.1738,-2.1882,-2.2073,-2.226,-2.2521,-2.2917,-2.3258,-2.3762,-2.4229,-2.4198,-2.4515,-2.2078,-2.2078,-2.1642,-2.1383,-2.1383,-2.1203,-2.0925,-2.0718,-2.0464,-2.0192,-2.0019,-2.0019,-2.0019,-2.0019,-2.0019,-2.0019,-2.0019,-2.0019,-2.0019,-1.9936,-1.9978,-1.9853,-1.9439,-1.9043,-1.8913,-1.8985,-1.8991,-1.9016,-1.8946,-1.8853,-1.876,-1.8701,-1.8414,-1.8211,-1.8169,-1.8104,-1.8167,-1.8259,-1.817,-1.8234,-1.8141,-1.7525,-1.7397,-1.8062,-1.8023,-1.7842,-1.7704,-1.7646,-1.7463,-1.7052,-1.6487,-1.6098,-1.5898,-1.5894,-1.5989,-1.6114,-1.6285,-1.6467,-1.6581,-1.674,-1.6853,-1.7022,-1.7078,-1.72,-1.749,-1.7534,-1.77,-1.792,-1.8236,-1.8375,-1.8489,-1.8898,-1.9401,-1.9828,-1.991,-1.9875,-1.9862,-1.9762,-1.9724,-1.9762,-1.9677,-1.9603,-1.9813,-1.9718,-1.9758,-1.9745,-1.9851,-1.9921,-1.9924,-1.9846,-1.9841,-1.9727,-1.9826,-2.0182,-2.0299,-2.0431,-2.0597,-2.0861,-2.1118,-2.1609,-2.1864,-2.2005,-2.2192,-2.2115,-2.1969,-2.2175,-2.2496,-2.2679,-2.2926,-2.3432,-2.4042,-2.4625,-2.5059,-2.5009,-2.5476,-2.3047,-2.3047,-2.253,-2.2353,-2.2264,-2.1998,-2.1811,-2.1633,-2.1284,-2.1105,-2.1015,-2.1015,-2.0925,-2.0925,-2.0925,-2.0925,-2.0925,-2.0925,-2.0925,-2.0934,-2.0987,-2.0987,-2.0916,-2.0529,-2.0309,-2.0073,-2.026,-2.0298,-2.0228,-2.019,-2.011,-2.0066,-1.9702,-1.941,-1.9268,-1.92,-1.9093,-1.9143,-1.9109,-1.9223,-1.9303,-1.8995,-1.8651,-1.8769,-1.8844,-1.8775,-1.8699,-1.8713,-1.8636,-1.8448,-1.8008,-1.7376,-1.6715,-1.6561,-1.6581,-1.674,-1.6797,-1.7032,-1.72,-1.7301,-1.7412,-1.7634,-1.7634,-1.781,-1.803,-1.8139,-1.8236,-1.8518,-1.8774,-1.9016,-1.9165,-1.9515,-1.9963,-2.0258,-2.0386,-2.0435,-2.0523,-2.0435,-2.0385,-2.0534,-2.0558,-2.0716,-2.0752,-2.069,-2.074,-2.085,-2.1026,-2.1081,-2.0852,-2.0813,-2.0959,-2.0888,-2.0792,-2.0828,-2.0945,-2.0996,-2.0991,-2.1213,-2.1411,-2.2096,-2.2692,-2.2811,-2.2866,-2.2721,-2.2547,-2.2784,-2.3069,-2.3231,-2.3711,-2.4471,-2.5154,-2.5643,-2.6025,-2.6177,-2.6814,-2.4013,-2.4003,-2.3484,-2.3309,-2.3222,-2.2794,-2.2608,-2.253,-2.2087,-2.1909,-2.19,-2.1909,-2.1909,-2.1909,-2.1909,-2.1909,-2.1909,-2.1909,-2.1909,-2.1909,-2.1965,-2.1866,-2.19,-2.1826,-2.163,-2.1186,-2.1248,-2.1409,-2.1407,-2.1517,-2.1401,-2.1318,-2.1052,-2.0745,-2.0522,-2.0161,-2.0145,-2.0042,-2.0029,-2.0197,-2.0324,-2.0213,-2.0082,-2.0461,-1.9889,-1.9902,-1.9809,-1.9791,-1.9706,-1.9643,-1.9607,-1.8988,-1.8235,-1.7467,-1.7288,-1.7433,-1.7434,-1.7534,-1.7755,-1.7865,-1.7975,-1.8193,-1.8236,-1.8398,-1.8614,-1.8721,-1.8827,-1.9093,-1.9344,-1.9604,-1.9901,-2.0169,-2.0436,-2.0653,-2.0838,-2.097,-2.1033,-2.0921,-2.097,-2.1068,-2.1183,-2.1356,-2.1716,-2.1829,-2.1875,-2.1972,-2.2091,-2.2103,-2.1895,-2.1849,-2.1979,-2.1934,-2.1812,-2.2011,-2.2123,-2.2195,-2.2117,-2.219,-2.2269,-2.2878,-2.3608,-2.3714,-2.3721,-2.3329,-2.3232,-2.3581,-2.3917,-2.4252,-2.4857,-2.564,-2.6132,-2.6516,-2.6916,-2.7284,-2.796,-2.4946,-2.4935,-2.4498,-2.4166,-2.3937,-2.3677,-2.3493,-2.3232,-2.2969,-2.2872,-2.2872,-2.2882,-2.2872,-2.2872,-2.2872,-2.2872,-2.2872,-2.2872,-2.2882,-2.2872,-2.2901,-2.2882,-2.2862,-2.2872,-2.2785,-2.2599,-2.2353,-2.2176,-2.2264,-2.2463,-2.2446,-2.2485,-2.2331,-2.2116,-2.1845,-2.1448,-2.116,-2.1085,-2.1095,-2.1121,-2.1145,-2.1232,-2.1574,-2.2204,-2.13,-2.0804,-2.0897,-2.0653,-2.059,-2.0808,-2.0472,-2.032,-1.9953,-1.8951,-1.8498,-1.8464,-1.8293,-1.8334,-1.8585,-1.8546,-1.8595,-1.8786,-1.8988,-1.9047,-1.9247,-1.9275,-1.947,-1.9656,-1.9914,-2.0169,-2.0459,-2.0723,-2.1,-2.1202,-2.1309,-2.141,-2.1616,-2.1602,-2.1589,-2.1746,-2.1841,-2.1949,-2.2278,-2.2601,-2.261,-2.2717,-2.2907,-2.2957,-2.2858,-2.2882,-2.3018,-2.2905,-2.2774,-2.3079,-2.3422,-2.349,-2.3537,-2.3627,-2.3776,-2.4058,-2.4594,-2.4712,-2.4615,-2.462,-2.4538,-2.4684,-2.5005,-2.5306,-2.5896,-2.6621,-2.7007,-2.7337,-2.7731,-2.8106,-2.837,-2.5779,-2.5695,-2.5359,-2.5115,-2.4861,-2.4605,-2.4368,-2.4227,-2.3927,-2.382,-2.382,-2.382,-2.382,-2.382,-2.381,-2.381,-2.382,-2.382,-2.382,-2.382,-2.382,-2.382,-2.381,-2.3826,-2.3846,-2.3714,-2.3464,-2.3135,-2.2969,-2.3232,-2.3406,-2.3454,-2.3428,-2.3323,-2.323,-2.2847,-2.2413,-2.2188,-2.2039,-2.1948,-2.198,-2.2103,-2.2955,-2.3149,-2.2453,-2.1767,-2.1627,-2.141,-2.1285,-2.1491,-2.1428,-2.1495,-2.1355,-2.0914,-2.0063,-1.9816,-1.9533,-1.9503,-1.9793,-1.9915,-2.0061,-2.0298,-2.0249,-2.0275,-2.0285,-2.0303,-2.0346,-2.0361,-2.0472,-2.0673,-2.0871,-2.1242,-2.145,-2.1574,-2.1691,-2.1902,-2.2123,-2.2184,-2.231,-2.2434,-2.2402,-2.254,-2.2814,-2.3098,-2.3231,-2.3466,-2.3683,-2.3755,-2.3738,-2.384,-2.3943,-2.4058,-2.3951,-2.4043,-2.4365,-2.4463,-2.4723,-2.4913,-2.5067,-2.5369,-2.5703,-2.5883,-2.626,-2.6549,-2.6384,-2.585,-2.6074,-2.6339,-2.6994,-2.7536,-2.785,-2.8179,-2.8573,-2.891,-2.9026,-2.6599,-2.6445,-2.6218,-2.5968,-2.5706,-2.5443,-2.5317,-2.5105,-2.4882,-2.4765,-2.4754,-2.4754,-2.4754,-2.4669,-2.4669,-2.4669,-2.4669,-2.4594,-2.4584,-2.4584,-2.4584,-2.4594,-2.4659,-2.4713,-2.4713,-2.4669,-2.4669,-2.4423,-2.3831,-2.3917,-2.411,-2.4262,-2.4358,-2.4385,-2.419,-2.4043,-2.3643,-2.3366,-2.297,-2.2937,-2.2875,-2.3202,-2.3638,-2.407,-2.319,-2.2626,-2.2449,-2.2249,-2.2056,-2.2147,-2.2261,-2.2519,-2.2688,-2.2427,-2.1935,-2.1399,-2.0994,-2.0986,-2.1163,-2.1182,-2.1237,-2.1488,-2.1614,-2.1562,-2.1559,-2.1524,-2.155,-2.1422,-2.1532,-2.1592,-2.1735,-2.1918,-2.2027,-2.1996,-2.2184,-2.2402,-2.2632,-2.2783,-2.2963,-2.3008,-2.2963,-2.3083,-2.3392,-2.3494,-2.3625,-2.3925,-2.4135,-2.4385,-2.4436,-2.465,-2.4828,-2.5153,-2.5222,-2.5077,-2.5196,-2.5292,-2.5618,-2.6018,-2.6109,-2.6281,-2.6731,-2.7115,-2.7441,-2.7561,-2.7244,-2.6792,-2.7059,-2.7333,-2.7749,-2.8189,-2.8609,-2.8858,-2.8975,-2.9071,-2.9163,-2.7348,-2.7278,-2.6962,-2.6633,-2.6362,-2.6185,-2.6001,-2.5836,-2.5749,-2.5728,-2.5706,-2.5717,-2.5633,-2.5359,-2.5189,-2.5115,-2.5115,-2.52,-2.5189,-2.5189,-2.52,-2.5189,-2.5189,-2.5263,-2.5421,-2.5443,-2.5633,-2.52,-2.4754,-2.4765,-2.4765,-2.4861,-2.52,-2.5316,-2.526,-2.5239,-2.5039,-2.4766,-2.4293,-2.3762,-2.3564,-2.3875,-2.4158,-2.4165,-2.391,-2.3635,-2.3353,-2.3283,-2.3132,-2.2874,-2.2921,-2.3138,-2.3424,-2.3458,-2.3559,-2.3187,-2.2464,-2.1524,-2.1929,-2.2074,-2.2197,-2.2499,-2.2463,-2.2469,-2.2591,-2.2776,-2.2918,-2.3221,-2.3252,-2.3078,-2.279,-2.2951,-2.2861,-2.2733,-2.2729,-2.2931,-2.3157,-2.3231,-2.3451,-2.3668,-2.3653,-2.3782,-2.4009,-2.4009,-2.4051,-2.4302,-2.4605,-2.4846,-2.5068,-2.5269,-2.5556,-2.5822,-2.6073,-2.5984,-2.6013,-2.6124,-2.6378,-2.6896,-2.7004,-2.711,-2.7408,-2.772,-2.7893,-2.7923,-2.7701,-2.7825,-2.8188,-2.8417,-2.8565,-2.867,-2.8887,-2.9021,-2.9134,-2.9243,-2.9479,-2.8315,-2.7846,-2.7696,-2.7441,-2.7103,-2.694,-2.6798,-2.6667,-2.6644,-2.6599,-2.6494,-2.6467,-2.6313,-2.6124,-2.6041,-2.6052,-2.5968,-2.5957,-2.5957,-2.5957,-2.5957,-2.5957,-2.6052,-2.6124,-2.6124,-2.629,-2.6396,-2.6456,-2.5935,-2.5611,-2.5549,-2.5695,-2.5946,-2.6124,-2.6279,-2.6326,-2.615,-2.5848,-2.5256,-2.4602,-2.4249,-2.4513,-2.4826,-2.4814,-2.4735,-2.4762,-2.4843,-2.428,-2.404,-2.3796,-2.3786,-2.378,-2.3956,-2.406,-2.4221,-2.4368,-2.3927,-2.3454,-2.3258,-2.3345,-2.35,-2.3734,-2.3792,-2.3904,-2.3865,-2.3788,-2.3737,-2.3807,-2.4025,-2.4035,-2.3964,-2.4124,-2.3941,-2.3749,-2.3639,-2.3659,-2.379,-2.3698,-2.3855,-2.4109,-2.4359,-2.4513,-2.4554,-2.4508,-2.4589,-2.4846,-2.5045,-2.524,-2.5497,-2.5746,-2.6035,-2.6385,-2.6624,-2.6774,-2.6867,-2.694,-2.7022,-2.7372,-2.752,-2.767,-2.7855,-2.8119,-2.8371,-2.847,-2.834,-2.8623,-2.9178,-2.9125,-2.8956,-2.8965,-2.9048,-2.9363,-2.9675,-3.002,-3.0329,-2.9341,-2.8645,-2.8419,-2.8167,-2.7846,-2.7765,-2.7603,-2.7441,-2.7441,-2.7313,-2.7209,-2.7092,-2.6962,-2.6787,-2.6798,-2.6704,-2.6715,-2.6715,-2.6715,-2.6715,-2.6715,-2.6704,-2.6704,-2.6798,-2.688,-2.7044,-2.7219,-2.7196,-2.7196,-2.6951,-2.6622,-2.6528,-2.6599,-2.6857,-2.7115,-2.7197,-2.7163,-2.6776,-2.6224,-2.5468,-2.4792,-2.5183,-2.5487,-2.5583,-2.5661,-2.5996,-2.649,-2.5781,-2.5148,-2.4697,-2.4629,-2.4601,-2.4589,-2.4681,-2.4808,-2.4978,-2.4871,-2.4871,-2.4606,-2.4633,-2.4878,-2.5089,-2.5244,-2.5108,-2.5019,-2.4675,-2.462,-2.4887,-2.5178,-2.5178,-2.5046,-2.5311,-2.515,-2.4951,-2.4806,-2.473,-2.4734,-2.4777,-2.4868,-2.5051,-2.5264,-2.5163,-2.5171,-2.506,-2.5162,-2.5371,-2.5524,-2.5659,-2.5905,-2.6212,-2.6471,-2.6791,-2.7006,-2.7201,-2.7324,-2.7509,-2.7642,-2.7859,-2.8021,-2.8162,-2.8353,-2.864,-2.8945,-2.8985,-2.9057,-2.9648,-3.035,-2.9789,-2.936,-2.9904,-3.0317,-3.0185,-3.0362,-3.0744,-3.1183,-3.0381,-2.9908,-2.9118,-2.8712,-2.8633,-2.8486,-2.8363,-2.8134,-2.8111,-2.7983,-2.7787,-2.758,-2.7522,-2.7441,-2.7278,-2.7267,-2.7185,-2.7185,-2.7185,-2.7185,-2.7174,-2.7185,-2.7278,-2.736,-2.7522,-2.7603,-2.7846,-2.8007,-2.8167,-2.8167,-2.7672,-2.7255,-2.7418,-2.758,-2.7742,-2.7971,-2.8021,-2.7699,-2.7291,-2.6492,-2.5841,-2.5905,-2.6245,-2.6445,-2.6748,-2.7219,-2.7879,-2.7086,-2.6334,-2.5608,-2.5633,-2.5432,-2.5363,-2.5409,-2.5577,-2.5564,-2.5729,-2.5701,-2.5632,-2.5412,-2.5412,-2.566,-2.5825,-2.6,-2.6016,-2.6275,-2.6337,-2.6321,-2.6484,-2.6468,-2.6382,-2.634,-2.6374,-2.6106,-2.6001,-2.601,-2.6044,-2.6131,-2.6188,-2.6172,-2.6182,-2.6205,-2.6286,-2.627,-2.5729,-2.5863,-2.5954,-2.6046,-2.6314,-2.659,-2.6841,-2.7103,-2.7293,-2.7478,-2.7642,-2.7806,-2.801,-2.8312,-2.8558,-2.8676,-2.8773,-2.913,-2.9777,-3.0013,-3.0222,-3.0852,-3.1317,-3.0936,-3.0859,-3.138,-3.1567,-3.1283,-3.1444,-3.1919,-3.2204,-3.0973,-3.0735,-3.0216,-2.9664,-2.9184,-2.9118,-2.8895,-2.8749,-2.8736,-2.8645,-2.8462,-2.8247,-2.8099,-2.8099,-2.8099,-2.8007,-2.8007,-2.8007,-2.8007,-2.8007,-2.8007,-2.8018,-2.8018,-2.8087,-2.8167,-2.8315,-2.8474,-2.8724,-2.8961,-2.9052,-2.9028,-2.8688,-2.8462,-2.8303,-2.8462,-2.8791,-2.8868,-2.8879,-2.8524,-2.7841,-2.7048,-2.7087,-2.7306,-2.7165,-2.7471,-2.7974,-2.8471,-2.7877,-2.7474,-2.7135,-2.6932,-2.6599,-2.6259,-2.6316,-2.6272,-2.6181,-2.6247,-2.6312,-2.6326,-2.6096,-2.5934,-2.6136,-2.6365,-2.6578,-2.6841,-2.6907,-2.7049,-2.724,-2.7509,-2.745,-2.7474,-2.7567,-2.7641,-2.7288,-2.716,-2.7227,-2.7308,-2.7406,-2.7396,-2.7324,-2.7387,-2.7457,-2.752,-2.7611,-2.6891,-2.6346,-2.6412,-2.6554,-2.6945,-2.7229,-2.756,-2.7785,-2.8006,-2.807,-2.82,-2.8291,-2.8396,-2.8783,-2.917,-2.9393,-2.9668,-3.0287,-3.0844,-3.1072,-3.1354,-3.1819,-3.2112,-3.2098,-3.2168,-3.2255,-3.2294,-3.2195,-3.2522,-3.3034,-3.3279,-3.1495,-3.1434,-3.1136,-3.052,-2.9819,-2.9729,-2.9574,-2.9443,-2.9365,-2.9263,-2.9028,-2.8882,-2.8882,-2.8816,-2.8816,-2.8736,-2.8736,-2.8657,-2.8657,-2.8657,-2.8657,-2.8749,-2.8736,-2.8816,-2.8882,-2.9028,-2.9184,-2.9353,-2.9599,-2.9664,-2.9729,-2.9729,-2.9574,-2.9419,-2.9275,-2.9586,-2.9896,-2.991,-2.9604,-2.9215,-2.8459,-2.8265,-2.8153,-2.7881,-2.8091,-2.8617,-2.8967,-2.8724,-2.8395,-2.8246,-2.8078,-2.7792,-2.7499,-2.7256,-2.7121,-2.6913,-2.6785,-2.6803,-2.6788,-2.6698,-2.6539,-2.6736,-2.6878,-2.7152,-2.7372,-2.7437,-2.756,-2.784,-2.8073,-2.8204,-2.8253,-2.8466,-2.8607,-2.832,-2.8408,-2.8503,-2.8576,-2.8608,-2.8509,-2.8427,-2.8514,-2.8572,-2.8381,-2.8417,-2.8325,-2.7767,-2.7841,-2.7981,-2.8217,-2.8432,-2.854,-2.8728,-2.8881,-2.8888,-2.8863,-2.9229,-2.9611,-2.9819,-3.0188,-3.0464,-3.0856,-3.1439,-3.1832,-3.204,-3.2316,-3.2725,-3.2999,-3.3194,-3.3049,-3.2847,-3.2999,-3.3277,-3.3563,-3.4018,-3.4262,-3.2036,-3.189,-3.1669,-3.1224,-3.0685,-3.0457,-3.0292,-3.0075,-2.9998,-2.9908,-2.9639,-2.9626,-2.9626,-2.9561,-2.9431,-2.9419,-2.9341,-2.9197,-2.9209,-2.9197,-2.9209,-2.9275,-2.9353,-2.9431,-2.9496,-2.9716,-2.9883,-2.9985,-3.0152,-3.0292,-3.0444,-3.0609,-3.052,-3.0368,-3.0152,-3.047,-3.0622,-3.062,-3.0325,-3.0224,-3.002,-2.9493,-2.9,-2.8741,-2.8716,-2.921,-2.961,-2.9491,-2.9195,-2.9114,-2.9209,-2.8943,-2.8554,-2.8242,-2.8046,-2.791,-2.7602,-2.7424,-2.7386,-2.7233,-2.7269,-2.7321,-2.7423,-2.766,-2.791,-2.8008,-2.8057,-2.8332,-2.8558,-2.8685,-2.8858,-2.909,-2.9255,-2.9371,-2.9468,-2.9578,-2.9571,-2.9615,-2.951,-2.953,-2.9621,-2.9571,-2.9256,-2.9134,-2.9399,-2.9368,-2.942,-2.9453,-2.9429,-2.9417,-2.9417,-2.9554,-2.9668,-2.9815,-2.9922,-3.045,-3.0803,-3.0966,-3.1209,-3.1503,-3.1887,-3.2391,-3.2711,-3.2943,-3.3259,-3.3585,-3.3994,-3.4383,-3.4052,-3.3815,-3.4239,-3.4547,-3.4775,-3.485,-3.4904,-3.2503,-3.2359,-3.2096,-3.189,-3.1656,-3.1198,-3.0836,-3.0546,-3.0381,-3.0279,-3.0203,-3.019,-3.019,-3.0114,-3.0114,-3.0037,-3.005,-3.0037,-2.9973,-2.9973,-2.9908,-2.9985,-3.005,-3.005,-3.0126,-3.0292,-3.0457,-3.0685,-3.0898,-3.0973,-3.1061,-3.1299,-3.136,-3.1272,-3.1048,-3.1048,-3.1198,-3.1421,-3.1343,-3.1379,-3.143,-3.0665,-2.9994,-2.96,-2.9533,-2.9763,-3.0335,-3.0045,-2.9972,-3.0026,-3.019,-3.0017,-2.9736,-2.9404,-2.9322,-2.9098,-2.8711,-2.8177,-2.8106,-2.7989,-2.7974,-2.7974,-2.7925,-2.8155,-2.8398,-2.8446,-2.859,-2.8826,-2.9075,-2.9198,-2.9335,-2.9694,-2.9881,-2.9968,-3.0048,-3.0243,-3.0369,-3.0427,-3.0432,-3.0639,-3.0768,-3.0895,-3.0722,-3.0524,-3.0647,-3.0594,-3.0574,-3.0256,-3.0124,-3.0092,-3.0074,-3.0261,-3.0427,-3.0625,-3.0938,-3.142,-3.181,-3.1999,-3.2276,-3.2587,-3.3001,-3.3272,-3.3542,-3.3734,-3.4083,-3.4427,-3.4539,-3.4666,-3.4769,-3.4811,-3.4927,-3.4965,-3.4945,-3.4999,-3.5086,-3.2222,-3.2208,-3.1899,-3.1758,-3.1684,-3.1469,-3.1211,-3.0999,-3.0911,-3.0836,-3.0836,-3.0836,-3.0823,-3.0823,-3.0748,-3.0735,-3.0672,-3.0596,-3.0596,-3.0596,-3.0596,-3.0596,-3.0659,-3.0735,-3.0823,-3.0924,-3.0999,-3.1136,-3.136,-3.1434,-3.1656,-3.1877,-3.2096,-3.2082,-3.1909,-3.1836,-3.185,-3.2069,-3.2177,-3.2341,-3.218,-3.1662,-3.0895,-3.0459,-3.0219,-3.0215,-3.0592,-3.0729,-3.0673,-3.0925,-3.1043,-3.0968,-3.0827,-3.0653,-3.0524,-3.0144,-2.955,-2.9057,-2.8938,-2.862,-2.8589,-2.8622,-2.8494,-2.859,-2.8873,-2.8967,-2.9106,-2.9335,-2.9605,-2.9694,-2.9826,-3.0189,-3.0359,-3.0426,-3.0551,-3.074,-3.0925,-3.0965,-3.1083,-3.1351,-3.1542,-3.1785,-3.202,-3.2109,-3.2019,-3.1857,-3.1676,-3.1299,-3.0973,-3.1013,-3.11,-3.1303,-3.1575,-3.1898,-3.211,-3.2329,-3.27,-3.2989,-3.3227,-3.3426,-3.366,-3.3881,-3.4204,-3.4446,-3.457,-3.4655,-3.4724,-3.4827,-3.502,-3.5059,-3.502,-3.5038,-3.5073,-3.5143,-3.5226,-3.1457,-3.1377,-3.1043,-3.0963,-3.0993,-3.1343,-3.1523,-3.1502,-3.1489,-3.1415,-3.1455,-3.1415,-3.1368,-3.1434,-3.136,-3.1272,-3.1198,-3.1061,-3.1061,-3.0986,-3.0986,-3.1123,-3.1198,-3.1286,-3.136,-3.1522,-3.1596,-3.1643,-3.1669,-3.1877,-3.2155,-3.2359,-3.2574,-3.2717,-3.2704,-3.266,-3.2588,-3.2803,-3.2903,-3.3059,-3.297,-3.2383,-3.1803,-3.1289,-3.0964,-3.086,-3.1027,-3.1117,-3.1161,-3.1321,-3.1552,-3.1667,-3.1626,-3.1384,-3.128,-3.0952,-3.0222,-3.0102,-2.9767,-2.936,-2.9247,-2.9275,-2.9136,-2.9227,-2.938,-2.947,-2.9605,-2.981,-3.0027,-3.013,-3.0258,-3.051,-3.0757,-3.0838,-3.0958,-3.11,-3.1295,-3.1411,-3.1542,-3.1691,-3.1875,-3.2091,-3.2318,-3.2523,-3.2657,-3.2627,-3.2474,-3.255,-3.2325,-3.2427,-3.2499,-3.2719,-3.2962,-3.3276,-3.3396,-3.3193,-3.3335,-3.3548,-3.3784,-3.3998,-3.425,-3.4465,-3.4843,-3.5008,-3.4864,-3.5007,-3.5526,-3.5551,-3.5382,-3.5437,-3.5756,-3.5316,-3.5391,-3.5267,-3.5308,-3.1917,-3.1707,-3.1377,-3.1244,-3.1219,-3.1144,-3.0949,-3.0683,-3.0485,-3.053,-3.0943,-3.0956,-3.1216,-3.1582,-3.1535,-3.1482,-3.1495,-3.1447,-3.1447,-3.1447,-3.1508,-3.1447,-3.1522,-3.1656,-3.1803,-3.2023,-3.2082,-3.2214,-3.2359,-3.2431,-3.2574,-3.2846,-3.3072,-3.3213,-3.3396,-3.3536,-3.3494,-3.3452,-3.3563,-3.3699,-3.3758,-3.3258,-3.2788,-3.2382,-3.1865,-3.1723,-3.1603,-3.1584,-3.1625,-3.191,-3.2023,-3.212,-3.2336,-3.2206,-3.216,-3.1883,-3.1593,-3.1417,-3.0577,-3.0241,-3.0106,-2.996,-2.9847,-2.9782,-2.987,-3.0022,-3.0185,-3.0405,-3.0733,-3.0958,-3.1116,-3.1304,-3.1489,-3.1664,-3.1742,-3.1897,-3.2087,-3.2216,-3.231,-3.2264,-3.2424,-3.2492,-3.2712,-3.2805,-3.2948,-3.3042,-3.3165,-3.3286,-3.3345,-3.3357,-3.3415,-3.3549,-3.3661,-3.3726,-3.3842,-3.3732,-3.3919,-3.413,-3.4338,-3.447,-3.4517,-3.4828,-3.5409,-3.576,-3.5861,-3.6226,-3.6744,-3.6596,-3.6292,-3.6746,-3.7026,-3.6262,-3.5703,-3.5768,-3.5652,-3.1555,-3.1352,-3.1084,-3.097,-3.0841,-3.0518,-3.0256,-3.006,-3.0147,-3.0456,-3.074,-3.0823,-3.0969,-3.1284,-3.1338,-3.1375,-3.1703,-3.169,-3.1784,-3.2082,-3.1982,-3.2082,-3.2096,-3.2169,-3.23,-3.2444,-3.2503,-3.2561,-3.2846,-3.3002,-3.3157,-3.3368,-3.3521,-3.373,-3.3896,-3.4106,-3.4311,-3.4268,-3.4225,-3.4361,-3.4316,-3.412,-3.3755,-3.3505,-3.2975,-3.2465,-3.2231,-3.2122,-3.215,-3.2358,-3.2398,-3.2578,-3.278,-3.2841,-3.3008,-3.278,-3.2536,-3.2287,-3.1726,-3.1108,-3.0868,-3.0746,-3.0787,-3.0905,-3.0922,-3.1073,-3.1115,-3.1258,-3.1649,-3.1989,-3.2093,-3.2213,-3.2427,-3.2599,-3.2714,-3.2827,-3.2976,-3.3139,-3.3108,-3.2984,-3.2997,-3.3022,-3.3094,-3.318,-3.3214,-3.3345,-3.3444,-3.3569,-3.3615,-3.3615,-3.3643,-3.3726,-3.3834,-3.3895,-3.4023,-3.4179,-3.4309,-3.453,-3.4946,-3.5038,-3.4952,-3.5506,-3.6406,-3.6793,-3.7009,-3.7335,-3.7565,-3.7509,-3.7392,-3.7808,-3.7972,-3.7389,-3.6922,-3.6857,-3.6642,-3.0776,-3.0686,-3.0447,-3.0319,-3.0064,-2.9874,-2.9701,-2.9729,-3.0429,-3.077,-3.0812,-3.0825,-3.0841,-3.0966,-3.0993,-3.1254,-3.1432,-3.1542,-3.183,-3.2593,-3.2368,-3.2396,-3.2618,-3.2704,-3.2803,-3.2789,-3.2846,-3.3072,-3.3213,-3.3437,-3.366,-3.3951,-3.4074,-3.421,-3.4496,-3.4695,-3.4882,-3.5016,-3.4986,-3.4971,-3.4984,-3.4728,-3.4457,-3.4437,-3.3819,-3.312,-3.3001,-3.2803,-3.2554,-3.2703,-3.285,-3.2989,-3.3187,-3.3382,-3.361,-3.3687,-3.3419,-3.3161,-3.2833,-3.2269,-3.1891,-3.1845,-3.1959,-3.2085,-3.2127,-3.2127,-3.2185,-3.2302,-3.2734,-3.3071,-3.3208,-3.3291,-3.3446,-3.3616,-3.3728,-3.384,-3.4003,-3.4164,-3.4198,-3.4122,-3.413,-3.415,-3.4096,-3.4202,-3.4425,-3.4134,-3.4156,-3.4302,-3.4328,-3.4347,-3.4115,-3.4123,-3.4009,-3.4104,-3.4266,-3.4437,-3.4577,-3.4895,-3.5496,-3.5728,-3.5735,-3.65,-3.7516,-3.794,-3.8306,-3.8118,-3.8156,-3.8307,-3.8473,-3.8506,-3.8572,-3.8377,-3.8176,-3.8132,-3.7654,-3.1219,-3.0955,-3.0642,-3.0387,-3.028,-3.005,-3.0003,-3.0003,-3.0211,-3.0283,-3.0214,-3.0245,-3.0505,-3.0796,-3.0809,-3.0976,-3.1114,-3.1279,-3.1488,-3.1903,-3.2083,-3.2486,-3.2876,-3.2961,-3.3185,-3.3382,-3.3521,-3.366,-3.377,-3.3991,-3.4142,-3.4496,-3.4549,-3.475,-3.4949,-3.5163,-3.5398,-3.5589,-3.5743,-3.5676,-3.5627,-3.5698,-3.552,-3.5171,-3.4574,-3.4017,-3.3816,-3.3488,-3.3333,-3.3275,-3.3324,-3.345,-3.3694,-3.3848,-3.405,-3.4152,-3.4186,-3.4004,-3.3749,-3.3359,-3.309,-3.2957,-3.3052,-3.3219,-3.3284,-3.326,-3.3335,-3.3526,-3.3791,-3.4111,-3.4337,-3.4418,-3.4554,-3.4666,-3.4814,-3.4977,-3.5084,-3.5206,-3.5323,-3.5313,-3.5335,-3.5281,-3.5175,-3.5223,-3.5499,-3.5622,-3.5744,-3.5837,-3.5869,-3.581,-3.5006,-3.4828,-3.4328,-3.4327,-3.4614,-3.4983,-3.531,-3.5735,-3.6355,-3.6512,-3.6594,-3.7724,-3.8833,-3.9276,-3.9565,-3.9242,-3.9184,-3.9677,-3.9749,-3.949,-3.9454,-3.9355,-3.9598,-3.9625,-3.8955,-3.0863,-3.0949,-3.0925,-3.0807,-3.0642,-3.0462,-3.0355,-3.028,-3.0219,-3.0159,-3.0017,-3.0073,-3.0269,-3.0577,-3.0563,-3.0751,-3.0848,-3.097,-3.1429,-3.1713,-3.187,-3.2356,-3.272,-3.314,-3.3476,-3.3754,-3.4128,-3.4278,-3.4399,-3.4534,-3.4735,-3.4949,-3.5016,-3.5213,-3.5459,-3.5664,-3.5872,-3.6085,-3.6322,-3.6369,-3.6305,-3.6291,-3.6261,-3.5921,-3.5546,-3.5085,-3.4736,-3.4368,-3.3846,-3.3709,-3.3674,-3.3864,-3.405,-3.425,-3.4415,-3.4594,-3.4673,-3.4748,-3.4535,-3.432,-3.4213,-3.4075,-3.415,-3.4316,-3.4616,-3.4633,-3.4737,-3.4962,-3.5302,-3.564,-3.5776,-3.5913,-3.6028,-3.6178,-3.6344,-3.6488,-3.6647,-3.6836,-3.663,-3.628,-3.6295,-3.6182,-3.5933,-3.5407,-3.5781,-3.6325,-3.6564,-3.6747,-3.6879,-3.7124,-3.6367,-3.5863,-3.5546,-3.5464,-3.5895,-3.6152,-3.6325,-3.6791,-3.7254,-3.7794,-3.8237,-3.9233,-4.0153,-4.01,-4.0101,-4.008,-4.0192,-4.0377,-4.0463,-4.0165,-4.026,-4.0442,-4.0681,-4.073,-4.0095,-3.0303,-3.0644,-3.0944,-3.1026,-3.1013,-3.0822,-3.0689,-3.0628,-3.0507,-3.0341,-3.0291,-3.0276,-3.0172,-3.0111,-3.014,-3.0449,-3.072,-3.0708,-3.1183,-3.1582,-3.1724,-3.2202,-3.2639,-3.3006,-3.3624,-3.4172,-3.4601,-3.475,-3.4868,-3.5067,-3.5198,-3.5329,-3.5509,-3.5752,-3.5864,-3.6102,-3.6352,-3.6538,-3.6751,-3.6977,-3.7011,-3.6952,-3.6783,-3.6669,-3.6582,-3.6358,-3.6031,-3.5361,-3.4638,-3.4182,-3.4097,-3.425,-3.4399,-3.4611,-3.4804,-3.493,-3.5071,-3.5207,-3.5239,-3.503,-3.5001,-3.5044,-3.5253,-3.5509,-3.5734,-3.5901,-3.6046,-3.6265,-3.6606,-3.679,-3.6946,-3.7099,-3.7212,-3.7361,-3.7542,-3.7701,-3.7891,-3.8077,-3.7689,-3.7262,-3.7223,-3.7106,-3.6809,-3.6213,-3.6408,-3.6939,-3.7192,-3.7324,-3.7505,-3.7854,-3.7667,-3.7491,-3.7384,-3.7357,-3.7122,-3.722,-3.7341,-3.7694,-3.8175,-3.9039,-3.973,-4.0059,-4.0272,-4.0253,-4.027,-4.0304,-4.0372,-4.0457,-4.0539,-4.0603,-4.064,-4.0668,-4.075,-4.0796,-4.0858,-3.0228,-3.0137,-3.0057,-3.0223,-3.0574,-3.0448,-3.0629,-3.097,-3.0911,-3.0895,-3.0837,-3.0821,-3.0657,-3.0111,-3.0111,-3.0283,-3.0492,-3.0459,-3.0711,-3.1076,-3.1415,-3.1959,-3.2622,-3.3339,-3.412,-3.4669,-3.5023,-3.5264,-3.5394,-3.5574,-3.5703,-3.5846,-3.6022,-3.6211,-3.6367,-3.66,-3.6723,-3.6997,-3.716,-3.7365,-3.746,-3.7401,-3.7156,-3.7196,-3.7372,-3.7614,-3.7488,-3.6599,-3.5695,-3.5107,-3.4676,-3.4676,-3.4787,-3.493,-3.5118,-3.5304,-3.5396,-3.5577,-3.5586,-3.5676,-3.5694,-3.5921,-3.611,-3.6307,-3.6536,-3.671,-3.6802,-3.6955,-3.7208,-3.7264,-3.7394,-3.7487,-3.7632,-3.7844,-3.8016,-3.815,-3.8281,-3.8378,-3.829,-3.8236,-3.8272,-3.8298,-3.8293,-3.7998,-3.8062,-3.8447,-3.8562,-3.8633,-3.8621,-3.8777,-3.8845,-3.8831,-3.8823,-3.8164,-3.751,-3.8083,-3.8316,-3.8631,-3.8944,-3.9542,-3.9965,-4.0196,-4.0329,-4.0344,-4.0411,-4.0457,-4.0504,-4.0545,-4.0602,-4.0662,-4.0675,-4.0725,-4.0796,-4.0849,-4.0898]}]]